[[{"header":{"parameterUnit":"m.s-1","parameterCategory":1,"la1":30.6,"la2":28.766,"lo1":-90.7593,"lo2":-88.6598,"dy":0.0162,"dx":0.0183,"nx":116,"ny":114,"refTime":"2023-03-05T06:00:00:Z","depth":0,"parameterNumber":2,"parameterNumberName":"U-component_of_WINDS"},"data":[0.0,0.0,0.0,0.0,0.0,0.0,0.0,0.0,0.0,0.0,0.0,0.0,0.0,0.0,0.0,0.0,0.0,0.0,0.0,0.0,0.0,0.0,0.0,0.0,0.0,0.0,0.0,0.0,0.0,0.0,0.0,0.0,0.0,0.0,0.0,0.0,0.0,0.0,0.0,0.0,0.0,0.0,0.0,0.0,0.0,0.0,0.0,0.0,0.0,0.0,0.0,0.0,0.0,0.0,0.0,0.0,0.0,0.0,0.0,0.0,0.0,0.0,0.0,0.0,0.0,0.0,0.0,0.0,0.0,0.0,0.0,0.0,0.0,0.0,0.0,0.0,0.0,0.0,0.0,0.0,0.0,0.0,0.0,0.0,0.0,0.0,0.0,0.0,0.0,0.0,0.0,0.0,0.0,0.0,0.0,0.0,0.0,0.0,0.0,0.0,0.0,0.0,0.0,0.0,0.0,0.0,0.0,0.0,0.0,0.0,0.0,0.0,0.0,0.0,0.0,0.0,0.0,0.0,0.0,0.0,0.0,0.0,0.0,0.0,0.0,0.0,0.0,0.0,0.0,0.0,0.0,0.0,0.0,0.0,0.0,0.0,0.0,0.0,0.0,0.0,0.0,0.0,0.0,0.0,0.0,0.0,0.0,0.0,0.0,0.0,0.0,0.0,0.0,0.0,0.0,0.0,0.0,0.0,0.0,0.0,0.0,0.0,0.0,0.0,0.0,0.0,0.0,0.0,0.0,0.0,0.0,0.0,0.0,0.0,0.0,0.0,0.0,0.0,0.0,0.0,0.0,0.0,0.0,0.0,0.0,0.0,0.0,0.0,0.0,0.0,0.0,0.0,0.0,0.0,0.0,0.0,0.0,0.0,0.0,0.0,0.0,0.0,0.0,0.0,0.0,0.0,0.0,0.0,0.0,0.0,0.0,0.0,0.0,0.0,0.0,0.0,0.0,0.0,0.0,0.0,0.0,0.0,0.0,0.0,0.0,0.0,0.0,0.0,0.0,0.0,0.0,0.0,0.0,0.0,0.0,0.0,0.0,0.0,0.0,0.0,0.0,0.0,0.0,0.0,0.0,0.0,0.0,0.0,0.0,0.0,0.0,0.0,0.0,0.0,0.0,0.0,0.0,0.0,0.0,0.0,0.0,0.0,0.0,0.0,0.0,0.0,0.0,0.0,0.0,0.0,0.0,0.0,0.0,0.0,0.0,0.0,0.0,0.0,0.0,0.0,0.0,0.0,0.0,0.0,0.0,0.0,0.0,0.0,0.0,0.0,0.0,0.0,0.0,0.0,0.0,0.0,0.0,0.0,0.0,0.0,0.0,0.0,0.0,0.0,0.0,0.0,0.0,0.0,0.0,0.0,0.0,0.0,0.0,0.0,0.0,0.0,0.0,0.0,0.0,0.0,0.0,0.0,0.0,0.0,0.0,0.0,0.0,0.0,0.0,0.0,0.0,0.0,0.0,0.0,0.0,0.0,0.0,0.0,0.0,0.0,0.0,0.0,0.0,0.0,0.0,0.0,0.0,0.0,0.0,0.0,0.0,0.0,0.0,0.0,0.0,0.0,0.0,0.0,0.0,0.0,0.0,0.0,0.0,0.0,0.0,0.0,0.0,0.0,0.0,0.0,0.0,0.0,0.0,0.0,0.0,0.0,0.0,0.0,0.0,0.0,0.0,0.0,0.0,0.0,0.0,0.0,0.0,0.0,0.0,0.0,0.0,0.0,0.0,0.0,0.0,0.0,0.0,0.0,0.0,0.0,0.0,0.0,0.0,0.0,0.0,0.0,0.0,0.0,0.0,0.0,0.0,0.0,0.0,0.0,0.0,0.0,0.0,0.0,0.0,0.0,0.0,0.0,0.0,0.0,0.0,0.0,0.0,0.0,0.0,0.0,0.0,0.0,0.0,0.0,0.0,0.0,0.0,0.0,0.0,0.0,0.0,0.0,0.0,0.0,0.0,0.0,0.0,0.0,0.0,0.0,0.0,0.0,0.0,0.0,0.0,0.0,0.0,0.0,0.0,0.0,0.0,0.0,0.0,0.0,0.0,0.0,0.0,0.0,0.0,0.0,0.0,0.0,0.0,0.0,0.0,0.0,0.0,0.0,0.0,0.0,0.0,0.0,0.0,0.0,0.0,0.0,0.0,0.0,0.0,0.0,0.0,0.0,0.0,0.0,0.0,0.0,0.0,0.0,0.0,0.0,0.0,0.0,0.0,0.0,0.0,0.0,0.0,0.0,0.0,0.0,0.0,0.0,0.0,0.0,0.0,0.0,0.0,0.0,0.0,0.0,0.0,0.0,0.0,0.0,0.0,0.0,0.0,0.0,0.0,0.0,0.0,0.0,0.0,0.0,0.0,0.0,0.0,0.0,0.0,0.0,0.0,0.0,0.0,0.0,0.0,0.0,0.0,0.0,0.0,0.0,0.0,0.0,0.0,0.0,0.0,0.0,0.0,0.0,0.0,0.0,0.0,0.0,0.0,0.0,0.0,0.0,0.0,0.0,0.0,0.0,0.0,0.0,0.0,0.0,0.0,0.0,0.0,0.0,0.0,0.0,0.0,0.0,0.0,0.0,0.0,0.0,0.0,0.0,0.0,0.0,0.0,0.0,0.0,0.0,0.0,0.0,0.0,0.0,0.0,0.0,0.0,0.0,0.0,0.0,0.0,0.0,0.0,0.0,0.0,0.0,0.0,0.0,0.0,0.0,0.0,0.0,0.0,0.0,0.0,0.0,0.0,0.0,0.0,0.0,0.0,0.0,0.0,0.0,0.0,0.0,0.0,0.0,0.0,0.0,0.0,0.0,0.0,0.0,0.0,0.0,0.0,0.0,0.0,0.0,0.0,0.0,0.0,0.0,0.0,0.0,0.0,0.0,0.0,0.0,0.0,0.0,0.0,0.0,0.0,0.0,0.0,0.0,0.0,0.0,0.0,0.0,0.0,0.0,0.0,0.0,0.0,0.0,0.0,0.0,0.0,0.0,0.0,0.0,0.0,0.0,0.0,0.0,0.0,0.0,0.0,0.0,0.0,0.0,0.0,0.0,0.0,0.0,0.0,0.0,0.0,0.0,0.0,0.0,0.0,0.0,0.0,0.0,0.0,0.0,0.0,0.0,0.0,0.0,0.0,0.0,0.0,0.0,0.0,0.0,0.0,0.0,0.0,0.0,0.0,0.0,0.0,0.0,0.0,0.0,0.0,0.0,0.0,0.0,0.0,0.0,0.0,0.0,0.0,0.0,0.0,0.0,0.0,0.0,0.0,0.0,0.0,0.0,0.0,0.0,0.0,0.0,0.0,0.0,0.0,0.0,0.0,0.0,0.0,0.0,0.0,0.0,0.0,0.0,0.0,0.0,0.0,0.0,0.0,0.0,0.0,0.0,0.0,0.0,0.0,0.0,0.0,0.0,0.0,0.0,0.0,0.0,0.0,0.0,0.0,0.0,0.0,0.0,0.0,0.0,0.0,0.0,0.0,0.0,0.0,0.0,0.0,0.0,0.0,0.0,0.0,0.0,0.0,0.0,0.0,0.0,0.0,0.0,0.0,0.0,0.0,0.0,0.0,0.0,0.0,0.0,0.0,0.0,0.0,0.0,0.0,0.0,0.0,0.0,0.0,0.0,0.0,0.0,0.0,0.0,0.0,0.0,0.0,0.0,0.0,0.0,0.0,0.0,0.0,0.0,0.0,0.0,0.0,0.0,0.0,0.0,0.0,0.0,0.0,0.0,0.0,0.0,0.0,0.0,0.0,0.0,0.0,0.0,0.0,0.0,0.0,0.0,0.0,0.0,0.0,0.0,0.0,0.0,0.0,0.0,0.0,0.0,0.0,0.0,0.0,0.0,0.0,0.0,0.0,0.0,0.0,0.0,0.0,0.0,0.0,0.0,0.0,0.0,0.0,0.0,0.0,0.0,0.0,0.0,0.0,0.0,0.0,0.0,0.0,0.0,0.0,0.0,0.0,0.0,0.0,0.0,0.0,0.0,0.0,0.0,0.0,0.0,0.0,0.0,0.0,0.0,0.0,0.0,0.0,0.0,0.0,0.0,0.0,0.0,0.0,0.0,0.0,0.0,0.0,0.0,0.0,0.0,0.0,0.0,0.0,0.0,0.0,0.0,0.0,0.0,0.0,0.0,0.0,0.0,0.0,0.0,0.0,0.0,0.0,0.0,0.0,0.0,0.0,0.0,0.0,0.0,0.0,0.0,0.0,0.0,0.0,0.0,0.0,0.0,0.0,0.0,0.0,0.0,0.0,0.0,0.0,0.0,0.0,0.0,0.0,0.0,0.0,0.0,0.0,0.0,0.0,0.0,0.0,0.0,0.0,0.0,0.0,0.0,0.0,0.0,0.0,0.0,0.0,0.0,0.0,0.0,0.0,0.0,0.0,0.0,0.0,0.0,0.0,0.0,0.0,0.0,0.0,0.0,0.0,0.0,0.0,0.0,0.0,0.0,0.0,0.0,0.0,0.0,0.0,0.0,0.0,0.0,0.0,0.0,0.0,0.0,0.0,0.0,0.0,0.0,0.0,0.0,0.0,0.0,0.0,0.0,0.0,0.0,0.0,0.0,0.0,0.0,0.0,0.0,0.0,0.0,0.0,0.0,0.0,0.0,0.0,0.0,0.0,0.0,0.0,0.0,0.0,0.0,0.0,0.0,0.0,0.0,0.0,0.0,0.0,0.0,0.0,0.0,0.0,0.0,0.0,0.0,0.0,0.0,0.0,0.0,0.0,0.0,0.0,0.0,0.0,0.0,0.0,0.0,0.0,0.0,0.0,0.0,0.0,0.0,0.0,0.0,0.0,0.0,0.0,0.0,0.0,0.0,0.0,0.0,0.0,0.0,0.0,0.0,0.0,0.0,0.0,0.0,0.0,0.0,0.0,0.0,0.0,0.0,0.0,0.0,0.0,0.0,0.0,0.0,0.0,0.0,0.0,0.0,0.0,0.0,0.0,0.0,0.0,0.0,0.0,0.0,0.0,0.0,0.0,0.0,0.0,0.0,0.0,0.0,0.0,0.0,0.0,0.0,0.0,0.0,0.0,0.0,0.0,0.0,0.0,0.0,0.0,0.0,0.0,0.0,0.0,0.0,0.0,0.0,0.0,0.0,0.0,0.0,0.0,0.0,0.0,0.0,0.0,0.0,0.0,0.0,0.0,0.0,0.0,0.0,0.0,0.0,0.0,0.0,0.0,0.0,0.0,0.0,0.0,0.0,0.0,0.0,0.0,0.0,0.0,0.0,0.0,0.0,0.0,0.0,0.0,0.0,0.0,0.0,0.0,0.0,0.0,0.0,0.0,0.0,0.0,0.0,0.0,0.0,0.0,0.0,0.0,0.0,0.0,0.0,0.0,0.0,0.0,0.0,0.0,0.0,0.0,0.0,0.0,0.0,0.0,0.0,0.0,0.0,0.0,0.0,0.0,0.0,0.0,0.0,0.0,0.0,0.0,0.0,0.0,0.0,0.0,0.0,0.0,0.0,0.0,0.0,0.0,0.0,0.0,0.0,0.0,0.0,0.0,0.0,0.0,0.0,0.0,0.0,0.0,0.0,0.0,0.0,0.0,0.0,0.0,0.0,0.0,0.0,0.0,0.0,0.0,0.0,0.0,0.0,0.0,0.0,0.0,0.0,0.0,0.0,0.0,0.0,0.0,0.0,0.0,0.0,0.0,0.0,0.0,0.0,0.0,0.0,0.0,0.0,0.0,0.0,0.0,0.0,0.0,0.0,0.0,0.0,0.0,0.0,0.0,0.0,0.0,0.0,0.0,0.0,0.0,0.0,0.0,0.0,0.0,0.0,0.0,0.0,0.0,0.0,0.0,0.0,0.0,0.0,0.0,0.0,0.0,0.0,0.0,0.0,0.0,0.0,0.0,0.0,0.0,0.0,0.0,0.0,0.0,0.0,0.0,0.0,0.0,0.0,0.0,0.0,0.0,0.0,0.0,0.0,0.0,0.0,0.0,0.0,0.0,0.0,0.0,0.0,0.0,0.0,0.0,0.0,0.0,0.0,0.0,0.0,0.0,0.0,0.0,0.0,0.0,0.0,0.0,0.0,0.0,0.0,0.0,0.0,0.0,0.0,0.0,0.0,0.0,0.0,-2.2528,0.0,0.0,0.0,0.0,0.0,0.0,0.0,0.0,0.0,0.0,0.0,0.0,0.0,0.0,0.0,0.0,0.0,0.0,0.0,0.0,0.0,0.0,0.0,0.0,0.0,0.0,0.0,0.0,0.0,0.0,0.0,0.0,0.0,0.0,0.0,0.0,0.0,0.0,0.0,0.0,0.0,0.0,0.0,0.0,0.0,0.0,0.0,0.0,0.0,0.0,0.0,0.0,0.0,0.0,0.0,0.0,0.0,0.0,0.0,0.0,0.0,0.0,0.0,0.0,0.0,0.0,0.0,0.0,0.0,0.0,0.0,0.0,0.0,0.0,0.0,0.0,0.0,0.0,0.0,0.0,0.0,0.0,0.0,0.0,0.0,0.0,0.0,0.0,0.0,0.0,0.0,0.0,0.0,0.0,0.0,0.0,0.0,0.0,0.0,0.0,0.0,0.0,0.0,0.0,0.0,0.0,0.0,0.0,0.0,0.0,0.0,0.0,0.0,0.0,0.0,0.0,-2.3171,0.0,0.0,0.0,0.0,0.0,0.0,0.0,0.0,0.0,0.0,0.0,0.0,0.0,0.0,0.0,0.0,0.0,0.0,0.0,0.0,0.0,0.0,0.0,0.0,0.0,0.0,0.0,0.0,0.0,0.0,0.0,0.0,0.0,0.0,0.0,0.0,0.0,0.0,0.0,0.0,0.0,0.0,0.0,0.0,0.0,0.0,0.0,0.0,0.0,0.0,0.0,0.0,0.0,0.0,0.0,0.0,0.0,0.0,0.0,0.0,0.0,0.0,0.0,0.0,0.0,0.0,0.0,0.0,0.0,0.0,0.0,0.0,0.0,0.0,0.0,0.0,0.0,0.0,0.0,0.0,0.0,0.0,0.0,0.0,0.0,0.0,0.0,0.0,0.0,0.0,0.0,0.0,0.0,0.0,0.0,0.0,0.0,0.0,0.0,0.0,0.0,0.0,0.0,0.0,0.0,0.0,0.0,0.0,-2.445,-2.4598,-2.4727,-2.4727,-2.5161,-2.5891,-2.5059,-2.5067,-2.5521,-2.4366,0.0,0.0,0.0,0.0,0.0,0.0,0.0,0.0,0.0,0.0,0.0,0.0,0.0,0.0,0.0,0.0,0.0,0.0,0.0,0.0,0.0,0.0,0.0,0.0,0.0,0.0,0.0,0.0,0.0,0.0,0.0,0.0,0.0,0.0,0.0,0.0,0.0,0.0,-1.5857,-1.5857,-1.5802,-1.5735,0.0,0.0,0.0,0.0,0.0,0.0,0.0,0.0,0.0,0.0,0.0,0.0,0.0,0.0,0.0,0.0,0.0,0.0,0.0,0.0,0.0,0.0,0.0,0.0,0.0,0.0,0.0,0.0,0.0,0.0,0.0,0.0,0.0,0.0,0.0,0.0,0.0,0.0,0.0,0.0,0.0,0.0,0.0,0.0,-2.1629,-2.1629,0.0,0.0,0.0,0.0,0.0,0.0,0.0,0.0,0.0,0.0,0.0,0.0,0.0,-2.3313,-2.2821,-2.3339,-2.3999,-2.4723,-2.5434,-2.6132,-2.6791,-2.6791,-2.724,-2.7952,-2.7146,0.0,-2.6494,-2.7162,0.0,0.0,0.0,0.0,0.0,0.0,0.0,0.0,0.0,0.0,0.0,0.0,0.0,0.0,0.0,0.0,0.0,0.0,0.0,0.0,0.0,0.0,0.0,0.0,0.0,0.0,0.0,0.0,0.0,0.0,0.0,0.0,0.0,0.0,0.0,0.0,-1.6059,-1.6518,-1.705,-1.705,-1.7289,-1.7736,-1.8096,-1.7539,-1.6365,-1.6365,0.0,0.0,0.0,0.0,0.0,0.0,0.0,0.0,0.0,0.0,0.0,0.0,0.0,0.0,0.0,0.0,0.0,0.0,0.0,0.0,0.0,0.0,0.0,0.0,0.0,0.0,0.0,0.0,0.0,0.0,0.0,0.0,0.0,0.0,0.0,0.0,0.0,0.0,0.0,-2.1253,-2.1827,-2.1893,-2.2083,-2.2021,0.0,0.0,0.0,0.0,0.0,0.0,0.0,0.0,0.0,-2.4314,-2.4353,-2.4631,-2.5184,-2.5453,-2.5767,-2.6144,-2.6505,-2.6855,-2.7204,-2.7204,-2.7382,-2.771,-2.7344,-2.7104,-2.6935,-2.6922,-2.6621,-2.6136,0.0,0.0,0.0,0.0,-2.4855,-2.4753,0.0,0.0,0.0,0.0,0.0,0.0,0.0,0.0,0.0,0.0,0.0,0.0,0.0,0.0,0.0,-1.6548,0.0,0.0,0.0,0.0,0.0,0.0,0.0,0.0,0.0,0.0,0.0,0.0,-1.5912,-1.6628,-1.7796,-1.7796,-1.8108,-1.8684,-1.8684,-1.8151,-1.7202,-1.7202,-1.7202,0.0,0.0,0.0,0.0,0.0,0.0,0.0,0.0,0.0,0.0,0.0,0.0,0.0,0.0,0.0,0.0,0.0,0.0,0.0,0.0,0.0,0.0,0.0,0.0,0.0,0.0,0.0,0.0,0.0,0.0,0.0,0.0,0.0,0.0,0.0,0.0,0.0,0.0,-2.2093,-2.2765,-2.2648,-2.3484,-2.3674,0.0,0.0,0.0,0.0,0.0,0.0,-2.3472,-2.3428,-2.3998,-2.5292,-2.5291,-2.5718,-2.6706,-2.6706,-2.6706,-2.6706,-2.6706,-2.6706,-2.6706,-2.6706,-2.6839,-2.7036,-2.6801,-2.6839,-2.7009,-2.6514,-2.6279,-2.6206,-2.5558,-2.5273,-2.5192,-2.4896,-2.4768,-2.467,0.0,0.0,0.0,0.0,0.0,0.0,0.0,0.0,0.0,0.0,0.0,0.0,0.0,0.0,-1.5717,-1.5753,-1.5717,-1.538,0.0,0.0,0.0,0.0,0.0,0.0,0.0,0.0,0.0,-1.5698,-1.6475,-1.689,-1.6963,-1.6963,-1.6982,-1.7018,-1.7018,-1.7403,-1.8034,-1.8034,-1.8034,-1.7961,0.0,0.0,0.0,0.0,0.0,0.0,0.0,0.0,0.0,0.0,0.0,0.0,0.0,0.0,0.0,0.0,0.0,0.0,0.0,0.0,0.0,0.0,0.0,0.0,0.0,0.0,0.0,0.0,0.0,0.0,0.0,0.0,0.0,0.0,0.0,0.0,0.0,0.0,0.0,-2.4466,-2.5426,0.0,0.0,0.0,0.0,-2.346,-2.3834,-2.4596,-2.5771,-2.6173,-2.6337,-2.6244,-2.6403,-2.6153,-2.5398,-2.5398,-2.5398,-2.5398,-2.5398,-2.5398,-2.5398,-2.5398,-2.584,-2.6575,-2.5744,-2.5859,-2.6669,-2.6998,-2.6764,-2.6199,-2.6161,-2.5672,-2.4998,-2.4855,-2.4678,-2.4486,0.0,0.0,0.0,0.0,0.0,0.0,0.0,0.0,0.0,0.0,0.0,0.0,0.0,-1.6475,-1.6475,-1.6475,-1.6004,-1.5588,-1.5288,0.0,0.0,0.0,0.0,0.0,0.0,0.0,-1.5949,-1.6475,-1.6762,-1.7165,-1.7667,-1.7667,-1.7942,-1.8445,-1.8445,-1.8592,-1.8867,-1.8867,-1.8867,-1.8856,-1.8555,-1.8317,0.0,0.0,0.0,0.0,0.0,0.0,0.0,0.0,0.0,0.0,0.0,0.0,0.0,0.0,0.0,0.0,0.0,0.0,0.0,0.0,0.0,0.0,0.0,0.0,0.0,0.0,0.0,0.0,0.0,0.0,0.0,0.0,0.0,0.0,0.0,0.0,0.0,-2.5792,-2.6515,0.0,-2.5591,-2.5627,-2.5412,-2.4717,-2.5301,-2.5652,-2.5548,-2.5693,-2.5725,-2.5666,-2.572,-2.5615,-2.5308,-2.5308,-2.5308,-2.5308,-2.5308,-2.5308,-2.5308,-2.5308,-2.5462,-2.575,-2.5423,-2.5481,-2.5759,-2.5909,-2.584,-2.5623,-2.5623,-2.5367,-2.4986,-2.4849,-2.467,-2.4469,0.0,0.0,0.0,0.0,0.0,0.0,0.0,0.0,0.0,0.0,0.0,-1.6004,-1.6817,-1.6652,-1.6493,-1.6493,-1.6004,-1.5582,-1.5307,0.0,0.0,0.0,0.0,0.0,0.0,-1.5967,-1.6493,-1.7293,-1.7293,-1.7869,-1.8915,-1.8915,-1.9344,-2.0142,-2.0142,-1.9976,-1.9693,-1.9693,-1.9693,-1.9675,-1.9407,-1.9143,-1.8823,0.0,0.0,0.0,0.0,0.0,0.0,0.0,0.0,0.0,0.0,0.0,0.0,0.0,0.0,0.0,0.0,0.0,0.0,0.0,0.0,0.0,0.0,0.0,0.0,0.0,0.0,0.0,0.0,0.0,0.0,0.0,0.0,0.0,0.0,0.0,-2.7377,-2.6467,-2.737,-2.7559,-2.6278,-2.6428,-2.6231,-2.5365,-2.5846,-2.5904,-2.5327,-2.5308,-2.5308,-2.5308,-2.5308,-2.5308,-2.5308,-2.5308,-2.5308,-2.5308,-2.5308,-2.5308,-2.5308,-2.5308,-2.5308,-2.5308,-2.5308,-2.5308,-2.5308,-2.5308,-2.5308,-2.5308,-2.5308,-2.5219,-2.5082,-2.4923,-2.478,-2.4632,0.0,0.0,0.0,0.0,0.0,0.0,0.0,0.0,0.0,0.0,-1.5717,-1.6004,-1.6817,-1.6181,-1.5698,-1.5662,-1.5662,-1.5325,-1.4548,-1.5233,0.0,0.0,0.0,0.0,-1.5772,-1.6548,-1.733,-1.8163,-1.8163,-1.8988,-2.0548,-2.0548,-2.0996,-2.1794,-2.1794,-2.1327,-2.0548,-2.0548,-2.0548,-2.0474,-1.962,-1.9767,-2.0382,0.0,0.0,0.0,0.0,0.0,0.0,0.0,0.0,0.0,0.0,0.0,0.0,0.0,0.0,0.0,0.0,0.0,0.0,0.0,0.0,0.0,0.0,0.0,0.0,0.0,0.0,0.0,0.0,0.0,0.0,0.0,0.0,0.0,-2.7046,-2.7831,-2.7968,-2.6549,-2.794,-2.8038,-2.5572,-2.6077,-2.6212,-2.5365,-2.5308,-2.5308,-2.5308,-2.5308,-2.5308,-2.5308,-2.5308,-2.5308,-2.5308,-2.5308,-2.5308,-2.5346,-2.5346,-2.5346,-2.5385,-2.5385,-2.5385,-2.5385,-2.5385,-2.5385,-2.5385,-2.5385,-2.5385,-2.5385,-2.5327,-2.5303,-2.5269,-2.5077,-2.5004,-2.4974,0.0,0.0,0.0,0.0,0.0,0.0,0.0,0.0,0.0,0.0,-1.6059,-1.6004,-1.6817,-1.6181,-1.5472,-1.4879,-1.4824,-1.4732,-1.4512,0.0,0.0,0.0,0.0,0.0,-1.7417,-1.7649,-1.8456,-1.985,-1.985,-2.0382,-2.1445,-2.1445,-2.1574,-2.1794,-2.1794,-2.1666,-2.1445,-2.1445,-2.1445,-2.1317,-1.9885,-1.9426,-1.9601,0.0,0.0,0.0,0.0,0.0,0.0,0.0,0.0,0.0,0.0,0.0,0.0,0.0,0.0,0.0,0.0,0.0,0.0,0.0,0.0,0.0,0.0,0.0,0.0,0.0,0.0,0.0,0.0,0.0,0.0,0.0,0.0,-2.7266,-2.7963,-2.8309,-2.8392,-2.8132,-2.7498,-2.679,-2.6096,-2.5808,-2.5558,-2.5327,-2.5308,-2.5308,-2.5308,-2.5308,-2.5308,-2.5308,-2.5308,-2.5308,-2.5308,-2.5308,-2.5615,-2.6231,-2.6231,-2.6563,-2.7198,-2.7198,-2.7198,-2.7198,-2.7198,-2.7198,-2.7198,-2.7198,-2.7198,-2.7063,-2.5788,-2.5214,-2.5082,-2.5022,-2.493,-2.4835,0.0,0.0,0.0,0.0,0.0,0.0,0.0,0.0,0.0,0.0,-1.5906,-1.5631,-1.678,-1.5888,-1.5013,-1.4548,-1.4493,-1.4493,-1.4493,0.0,0.0,0.0,0.0,-1.7142,-1.8071,-1.8768,-1.9557,-2.0503,-2.0859,-2.1473,-2.2299,-2.2299,-2.2483,-2.2804,-2.2804,-2.262,-2.2299,-2.2299,-2.2106,-2.1702,-2.0747,-2.0142,-1.9767,-1.9426,-1.9583,-2.0005,-2.0005,-2.0217,-2.0503,-2.0503,0.0,0.0,0.0,0.0,0.0,0.0,0.0,0.0,0.0,0.0,0.0,0.0,0.0,0.0,0.0,0.0,0.0,0.0,0.0,0.0,0.0,0.0,0.0,0.0,-2.7079,-2.7407,-2.7888,-2.789,-2.7816,-2.7757,-2.688,-2.6193,-2.5909,-2.5531,-2.5308,-2.5308,-2.5308,-2.5308,-2.5308,-2.5308,-2.5308,-2.5308,-2.5654,-2.5846,-2.5846,-2.6212,-2.664,-2.714,-2.714,-2.7409,-2.7895,-2.7895,-2.7895,0.0,-2.7895,-2.7895,-2.7895,-2.7895,-2.7895,0.0,0.0,0.0,0.0,0.0,-2.616,-2.6078,0.0,0.0,0.0,0.0,0.0,0.0,0.0,0.0,0.0,0.0,0.0,-1.5246,-1.6853,-1.568,-1.4732,-1.464,-1.464,-1.464,0.0,0.0,0.0,-1.5955,-1.7344,-1.8181,-1.8364,-1.9777,-2.0594,-2.0786,-2.1565,-2.2354,-2.3134,-2.3134,-2.3529,-2.419,-2.419,-2.3804,-2.3134,-2.3134,-2.2721,-2.2051,-2.1978,-2.1418,-2.0566,-1.973,-1.9499,-1.9572,-1.9462,-1.9895,-2.0503,-2.0503,0.0,0.0,0.0,0.0,0.0,0.0,0.0,0.0,0.0,0.0,0.0,0.0,0.0,0.0,0.0,0.0,0.0,0.0,0.0,0.0,0.0,0.0,0.0,0.0,-2.7457,-2.769,-2.7145,-2.6833,-2.6574,-2.6339,-2.6206,-2.5918,-2.5311,-2.5298,-2.5308,-2.5308,-2.5385,-2.5442,-2.5442,0.0,0.0,0.0,0.0,-2.6755,-2.6755,-2.7505,-2.7953,-2.8049,-2.8049,-2.8088,-2.8179,-2.8179,-2.8179,-2.8179,-2.8179,-2.8179,-2.8179,-2.8179,-2.8179,-2.8159,-2.7972,-2.7895,-2.7895,-2.7895,-2.7895,-2.7868,0.0,0.0,0.0,0.0,0.0,0.0,0.0,0.0,0.0,-1.6668,-1.6053,-1.6078,-1.7686,-1.7,-1.6175,-1.5527,-1.5472,-1.5472,0.0,0.0,-1.6279,-1.7582,-1.7924,-1.8713,-2.0016,-2.0346,-2.1171,-2.2529,-2.2694,-2.318,-2.3969,-2.3969,-2.4043,-2.419,-2.419,-2.4116,-2.3969,-2.3969,-2.3878,-2.3676,-2.3033,-2.2281,-2.1445,-2.0584,-2.0703,-2.1225,-2.0519,-2.0364,-2.0503,-2.0503,-2.0189,-1.9756,-1.9591,0.0,0.0,0.0,0.0,0.0,0.0,0.0,0.0,0.0,0.0,0.0,0.0,0.0,0.0,0.0,0.0,0.0,0.0,0.0,0.0,-2.7155,-2.6722,-2.6371,-2.6249,-2.5638,-2.5475,-2.62,-2.5672,-2.5207,-2.5065,-2.5208,-2.5308,-2.5308,-2.5942,-2.6351,-2.6351,-2.7024,-2.739,-2.739,-2.7563,-2.764,-2.764,-2.7818,-2.8222,-2.8876,0.0,0.0,-2.9923,-2.9923,-2.9923,-2.9923,-2.9923,-2.9923,-2.9923,-2.9923,-2.9923,-2.9769,-2.8429,-2.7895,-2.7895,-2.7895,-2.7895,-2.7838,0.0,0.0,0.0,0.0,0.0,0.0,0.0,0.0,0.0,0.0,-1.5532,-1.5564,-1.6775,-1.6181,-1.5539,-1.5123,-1.5105,0.0,0.0,-1.6078,-1.6842,-1.8052,-1.8878,-1.9685,-2.0484,-2.1318,-2.2162,-2.3006,-2.3391,-2.3804,-2.419,-2.419,-2.419,-2.419,-2.419,-2.419,-2.419,-2.419,-2.419,-2.4153,-2.3768,-2.3364,-2.2877,-2.162,-2.1427,-2.1684,-2.0804,-2.0786,-2.1088,-2.0658,-2.0519,-2.0546,-2.0546,-2.1133,-2.1794,0.0,0.0,0.0,0.0,0.0,0.0,0.0,0.0,0.0,0.0,0.0,0.0,0.0,0.0,-2.7177,0.0,0.0,-2.7195,-2.669,-2.6325,-2.6107,-2.6148,-2.5901,-2.5844,-2.6244,-2.592,-2.5861,-2.6403,-2.6545,-2.6601,-2.6601,-2.7005,-2.7255,-2.7255,-2.7659,-2.7895,-2.7895,-2.8299,-2.8492,-2.8492,-2.8929,-2.9352,-2.9756,-2.9756,-2.9987,-3.0404,-3.0404,-3.0404,-3.0404,-3.0404,-3.0404,-3.0404,-3.0404,-3.0404,-3.0327,-2.9481,-2.9159,-2.9159,-2.9159,-2.9069,-2.89,0.0,0.0,0.0,0.0,0.0,0.0,0.0,0.0,0.0,0.0,0.0,-1.4934,-1.577,-1.5294,-1.4861,0.0,0.0,0.0,0.0,-1.6548,-1.733,-1.8298,-1.9722,-2.0584,-2.0749,-2.2235,-2.3079,-2.3226,-2.3878,-2.419,-2.419,-2.419,-2.419,-2.419,-2.419,-2.419,-2.419,-2.419,-2.419,-2.419,-2.419,-2.419,-2.4043,-2.2584,-2.1941,-2.1684,-2.0804,-2.0951,-2.1427,-2.0548,-2.0941,-2.1776,-2.1592,-2.1886,-2.2363,-2.2859,-2.3226,0.0,0.0,0.0,0.0,0.0,0.0,0.0,0.0,0.0,-2.6161,-2.6974,-2.7298,-2.7396,-2.7231,-2.724,-2.7041,-2.6397,-2.6279,-2.6358,-2.6574,-2.6743,-2.6847,-2.6847,-2.6714,-2.696,-2.7827,-2.7895,-2.7895,-2.7895,-2.8049,-2.8126,-2.8126,-2.8294,-2.839,-2.839,-2.9006,-2.9357,-2.9357,-3.0038,-3.0404,-3.0404,-3.0404,-3.0404,-3.0404,-3.0404,-3.05,-3.0654,-3.0827,-3.0885,-3.0885,-3.0885,-3.0885,-3.0885,-3.0885,-3.0885,-3.0846,-3.0519,-3.026,-3.0054,0.0,0.0,0.0,0.0,0.0,0.0,0.0,0.0,0.0,0.0,0.0,0.0,0.0,0.0,0.0,0.0,0.0,0.0,-1.667,-1.6853,-1.7575,-1.9095,-2.0016,-2.0859,-2.1647,-2.2538,-2.3354,-2.4061,-2.4153,-2.419,-2.419,-2.419,-2.419,-2.419,-2.419,-2.419,-2.419,-2.419,-2.419,-2.419,-2.419,-2.419,-2.4098,-2.3217,-2.2428,-2.1684,-2.0804,-2.0566,-2.0529,-1.9711,-2.049,-2.1666,-2.0896,-2.2171,-2.3804,-2.3171,0.0,-2.5007,-2.4373,-2.4787,-2.5576,-2.6282,-2.6465,-2.6649,0.0,0.0,-2.7624,-2.7047,-2.7648,-2.8047,-2.7326,-2.6778,-2.6637,-2.724,-2.691,-2.6825,-2.7599,-2.775,-2.8005,-2.87,-2.8162,-2.7764,-2.789,-2.7895,-2.7895,-2.7895,-2.8569,-2.8973,-2.8973,-2.9698,-3.0115,-3.0115,-3.0212,-3.025,-3.025,-3.0346,-3.0404,-3.0404,-3.0404,-3.0404,-3.0404,-3.0404,-3.0827,-3.1583,-3.2314,-3.2622,-3.2622,-3.2622,-3.2622,-3.2622,-3.2622,-3.2622,-3.2449,-3.0942,-3.0373,-3.0317,0.0,0.0,0.0,0.0,0.0,0.0,0.0,0.0,0.0,0.0,0.0,0.0,0.0,0.0,0.0,0.0,0.0,0.0,-1.6163,-1.708,-1.7906,-1.8574,-1.9814,-2.0676,-2.1051,-2.2327,-2.3153,-2.3511,-2.3969,-2.419,-2.419,-2.419,-2.419,-2.419,-2.419,-2.419,-2.419,-2.419,-2.419,-2.419,-2.419,-2.3914,-2.3465,-2.3134,-2.218,-2.0996,-2.0639,-2.0503,0.0,0.0,-2.0794,-2.1812,-2.1924,-2.2997,-2.4135,-2.3804,-2.4171,0.0,-2.5438,-2.5841,-2.6172,-2.6521,-2.6602,-2.6576,-2.6439,-2.6458,-2.6557,-2.6693,-2.7158,-2.7285,-2.6473,-2.6211,-2.624,0.0,-2.641,-2.6712,-2.8006,-2.8338,-2.8728,-2.9532,-2.9466,-2.9352,-2.9352,-2.9352,-2.9352,-2.9352,-2.9679,-2.9871,-2.9871,-3.0192,-3.0404,-3.0404,-3.0404,-3.0404,-3.0404,-3.0404,-3.0404,-3.0404,-3.0904,-3.1154,-3.1173,-3.1635,-3.2045,-3.2429,-3.2756,-3.2891,-3.2891,-3.2891,-3.2891,-3.2891,-3.2891,-3.2891,-3.2814,-3.2122,-3.177,-3.1656,0.0,0.0,0.0,0.0,0.0,0.0,0.0,0.0,0.0,0.0,0.0,0.0,0.0,0.0,0.0,0.0,0.0,0.0,0.0,-1.6903,-1.7748,-1.8408,-1.9539,-2.0272,-2.0511,-2.1924,-2.2666,-2.2666,-2.3254,-2.3538,-2.3538,-2.3538,-2.3657,-2.3878,-2.3878,-2.3988,-2.419,-2.3951,-2.3878,-2.3859,-2.3621,-2.318,-2.2648,-2.2401,-2.1557,-2.0503,-2.0503,-2.0503,0.0,0.0,-2.1235,-2.2226,-2.2822,-2.3547,-2.419,-2.419,-2.419,-2.4502,-2.5897,-2.6264,-2.6319,-2.6528,-2.6602,-2.6392,-2.5576,-2.56,-2.5852,-2.5979,-2.6368,-2.6408,-2.5597,-2.5576,-2.5816,-2.6257,-2.6332,-2.6921,-2.8609,-2.9023,-2.9379,-3.0039,-3.0273,-3.0404,-3.0404,-3.0404,-3.0404,-3.0404,-3.0404,-3.0404,-3.0404,-3.0404,-3.0404,-3.0404,-3.0404,-3.0519,-3.075,-3.075,-3.0865,-3.1096,-3.1737,-3.2025,-3.2064,-3.2872,-3.3256,-3.3276,-3.3506,-3.3622,-3.3622,-3.3622,-3.3622,-3.3622,-3.3622,-3.3622,-3.3622,-3.3622,-3.3222,-3.266,0.0,0.0,0.0,0.0,0.0,0.0,0.0,0.0,0.0,0.0,0.0,0.0,0.0,0.0,0.0,0.0,0.0,0.0,0.0,-1.6188,-1.6818,-1.9168,-1.9315,-1.9693,-2.0484,-2.1382,-2.1831,-2.1831,-2.1849,-2.1867,-2.1867,-2.1867,-2.2281,-2.3043,-2.3043,-2.3465,-2.4153,-2.3373,-2.3043,-2.2969,-2.2198,-2.1849,-2.1739,-2.0896,-2.0539,-2.0503,-2.0503,0.0,0.0,0.0,-2.1593,-2.2969,-2.2988,-2.3547,0.0,-2.419,-2.419,0.0,0.0,0.0,-2.5613,-2.641,-2.6602,-2.6392,-2.5576,-2.6152,-2.6422,-2.4886,-2.5349,-2.5778,-2.4978,-2.4834,-2.5344,-2.6921,-2.7159,-2.7823,-2.9684,-2.9961,-3.007,-3.0361,-3.0398,-3.0404,0.0,-3.0404,-3.0404,-3.0404,-3.0404,-3.0404,-3.0404,-3.0404,-3.0404,-3.0404,-3.0404,-3.0808,-3.166,-3.166,-3.2045,-3.2814,-3.2852,-3.2852,-3.2891,-3.3763,-3.4167,-3.4205,-3.5038,-3.5423,-3.5423,-3.5423,-3.5423,-3.5423,-3.5423,-3.5423,-3.5423,-3.5423,-3.4346,-3.2859,0.0,0.0,0.0,0.0,0.0,0.0,0.0,0.0,0.0,0.0,0.0,0.0,0.0,0.0,0.0,0.0,0.0,0.0,0.0,-1.6355,-1.7286,-1.7697,-1.872,-1.9426,-1.9693,-2.0519,-2.0933,-2.0933,-2.1519,-2.1794,-2.1794,-2.1794,-2.1941,-2.2189,-2.2189,-2.2345,-2.2584,-2.2326,-2.2189,-2.2226,-2.2483,-2.1932,-2.0978,-2.1253,-2.0666,-1.9693,0.0,0.0,0.0,0.0,0.0,0.0,-2.3804,0.0,0.0,-2.4355,0.0,0.0,0.0,0.0,-2.5466,-2.5742,-2.5797,-2.5595,-2.4787,-2.4873,-2.4958,-2.4414,-2.4579,-2.4726,-2.4447,-2.441,-2.4921,-2.6543,-2.6898,-2.7621,-2.9354,-2.9829,-3.0028,-3.011,-3.0299,0.0,0.0,0.0,0.0,-3.0404,-3.0404,-3.0404,-3.0404,-3.0404,-3.0404,-3.0404,-3.0962,-3.141,-3.1698,-3.2237,-3.2622,-3.291,-3.3487,-3.4064,-3.4635,-3.493,-3.5064,-3.5084,-3.5365,-3.55,-3.55,-3.55,-3.55,-3.55,-3.55,-3.55,-3.55,-3.55,-3.5019,-3.4354,0.0,0.0,0.0,0.0,0.0,0.0,0.0,0.0,0.0,0.0,0.0,0.0,0.0,0.0,0.0,0.0,0.0,0.0,0.0,0.0,-1.6592,-1.6782,-1.7591,-1.8159,-1.8445,-1.9227,-1.9649,-1.9649,-2.0776,-2.1345,-2.1345,-2.1647,-2.1794,-2.1812,-2.2106,-2.2069,-2.1794,-2.1794,-2.1629,-2.1363,-2.1584,-2.1033,-2.0126,-2.0692,-2.0233,0.0,0.0,0.0,0.0,0.0,0.0,0.0,0.0,0.0,0.0,0.0,0.0,0.0,0.0,-2.5191,-2.5044,-2.5319,-2.5172,-2.4842,-2.4318,-2.419,-2.419,-2.419,-2.419,-2.4218,-2.4294,-2.4312,-2.4857,-2.6552,-2.6916,-2.7688,-2.9653,-3.0165,-3.0322,-3.0322,-3.0475,-3.0487,0.0,0.0,0.0,-3.0398,-3.0404,-3.0404,-3.0404,-3.0692,-3.0865,-3.0865,-3.1698,-3.2275,-3.2583,-3.3103,-3.3526,-3.3833,-3.4391,-3.4968,-3.55,-3.55,-3.55,-3.55,-3.55,-3.55,-3.55,-3.55,-3.55,-3.55,-3.55,-3.55,-3.5493,-3.5383,-3.5258,-3.5088,0.0,0.0,0.0,0.0,0.0,0.0,0.0,0.0,0.0,0.0,0.0,0.0,0.0,0.0,0.0,0.0,0.0,0.0,0.0,0.0,0.0,-1.6453,-1.6016,-1.6101,-1.6876,-1.7679,-1.8089,-1.8089,-1.9667,-2.0437,-2.0456,-2.1272,-2.1666,-2.1702,-2.2464,-2.2391,-2.1666,-2.1666,-2.118,-2.0382,-1.9656,-1.9334,-1.9297,-1.9352,0.0,0.0,0.0,0.0,0.0,0.0,0.0,0.0,0.0,0.0,0.0,0.0,0.0,-2.4429,-2.5146,-2.4787,-2.4373,-2.5154,-2.4768,-2.419,-2.419,-2.419,-2.4199,-2.4209,-2.4209,-2.4275,0.0,0.0,-2.5111,-2.6836,-2.7188,-2.8085,-3.0498,-3.0828,-3.0856,0.0,0.0,0.0,0.0,0.0,0.0,-3.045,0.0,-3.0423,-3.0462,-3.125,-3.1718,-3.1756,-3.2545,-3.3353,-3.4186,-3.4244,-3.468,-3.55,-3.55,-3.55,-3.55,-3.55,-3.55,-3.55,-3.55,-3.55,-3.55,-3.55,-3.55,-3.55,-3.55,-3.55,-3.5479,-3.5215,-3.5105,-3.5034,0.0,0.0,0.0,0.0,0.0,0.0,0.0,0.0,0.0,0.0,0.0,0.0,0.0,0.0,0.0,0.0,0.0,0.0,0.0,0.0,0.0,0.0,0.0,0.0,0.0,0.0,0.0,0.0,0.0,-1.9601,-1.9601,-1.9829,-1.994,-1.9958,-2.016,-2.0123,-1.994,-1.994,-1.9811,-1.9638,0.0,-1.984,-1.937,0.0,0.0,0.0,0.0,0.0,0.0,0.0,0.0,0.0,0.0,-2.6101,-2.606,0.0,0.0,-2.5208,-2.4652,-2.4355,-2.4245,-2.4447,-2.4355,-2.419,-2.419,-2.419,-2.4247,-2.4393,-2.4409,-2.4486,0.0,0.0,0.0,-2.6009,-2.7082,0.0,-2.9595,-2.9908,0.0,-3.0837,0.0,-2.9998,-3.0003,-3.0006,0.0,0.0,-3.0769,-3.0673,-3.1327,-3.1583,-3.1968,-3.2583,-3.341,-3.3975,-3.4205,-3.4834,-3.5269,-3.55,-3.55,-3.55,-3.55,-3.55,-3.55,-3.55,-3.55,-3.55,-3.55,-3.55,-3.55,-3.55,-3.55,-3.55,-3.5493,-3.5424,-3.5157,-3.4784,0.0,0.0,0.0,0.0,0.0,0.0,0.0,0.0,0.0,0.0,0.0,0.0,0.0,0.0,0.0,0.0,0.0,0.0,0.0,0.0,0.0,0.0,0.0,0.0,0.0,0.0,0.0,0.0,0.0,0.0,0.0,-2.005,-2.0197,-1.984,-2.0233,-1.9995,-1.9315,0.0,0.0,0.0,0.0,0.0,0.0,0.0,0.0,0.0,0.0,0.0,0.0,0.0,0.0,-2.6007,-2.6465,-2.6688,-2.6594,-2.5672,0.0,-2.5374,-2.4448,-2.419,-2.419,-2.419,-2.419,-2.419,-2.419,-2.419,-2.4237,-2.4358,-2.4366,-2.4418,-2.4631,-2.4951,0.0,0.0,0.0,0.0,-2.9236,-2.9812,-3.0225,0.0,-3.0289,0.0,-3.043,-3.0514,-3.1028,0.0,-3.1442,-3.1346,-3.2179,-3.2583,-3.3006,-3.3449,-3.4314,-3.4776,-3.4776,-3.525,-3.55,-3.55,-3.55,-3.55,-3.55,-3.55,-3.55,-3.55,0.0,-3.55,-3.55,-3.55,-3.55,-3.55,-3.55,-3.55,-3.5493,-3.5369,-3.513,-3.4832,0.0,0.0,0.0,0.0,0.0,0.0,0.0,0.0,0.0,0.0,0.0,0.0,0.0,0.0,0.0,0.0,0.0,0.0,0.0,0.0,0.0,0.0,0.0,0.0,0.0,0.0,0.0,0.0,0.0,0.0,0.0,0.0,0.0,0.0,0.0,0.0,0.0,0.0,0.0,0.0,0.0,0.0,0.0,0.0,0.0,0.0,0.0,0.0,0.0,0.0,-2.6657,-2.6778,-2.6877,-2.6914,-2.6741,-2.5833,-2.5558,-2.5356,-2.4447,-2.419,-2.419,-2.419,-2.419,-2.419,-2.419,-2.419,-2.4199,-2.4237,-2.4247,-2.4303,-2.4503,-2.4613,-2.4906,-2.5679,0.0,-2.7733,-2.901,-2.989,-3.0342,-3.0256,-3.0335,-3.0557,-3.0995,-3.1173,-3.1759,-3.2974,-3.2429,-3.2333,-3.3045,-3.3801,-3.4244,-3.4379,-3.5122,-3.55,-3.55,-3.55,-3.55,-3.55,-3.55,-3.55,-3.55,-3.55,-3.55,-3.55,-3.55,0.0,-3.55,-3.55,-3.55,-3.55,-3.55,-3.55,-3.546,-3.5231,-3.513,-3.5016,0.0,0.0,0.0,0.0,0.0,0.0,0.0,0.0,0.0,0.0,-1.3396,-1.3396,0.0,0.0,0.0,0.0,0.0,0.0,0.0,0.0,0.0,0.0,0.0,0.0,0.0,0.0,0.0,0.0,0.0,0.0,0.0,0.0,0.0,0.0,0.0,0.0,0.0,0.0,0.0,0.0,0.0,0.0,0.0,0.0,0.0,0.0,0.0,0.0,0.0,0.0,-2.7034,-2.7714,-2.8363,-2.8583,-2.829,-2.6833,-2.6392,-2.608,-2.4593,-2.419,-2.419,-2.419,-2.419,-2.419,-2.419,-2.419,0.0,0.0,-2.4444,-2.4512,-2.4708,-2.5153,-2.5333,-2.4833,-2.6413,-2.7788,-2.804,-2.8784,-2.9588,0.0,-2.9799,-2.9808,-3.1121,-3.1124,0.0,0.0,0.0,-3.384,-3.3975,-3.4129,-3.4526,-3.525,-3.5423,-3.55,-3.55,-3.55,-3.55,-3.55,-3.55,-3.55,-3.55,-3.55,-3.55,-3.55,-3.55,0.0,-3.55,-3.55,-3.55,-3.55,-3.55,-3.55,-3.5493,-3.5446,-3.5289,-3.5043,0.0,0.0,0.0,0.0,0.0,0.0,0.0,-1.4428,-1.3811,-1.3447,-1.3396,-1.3396,-1.3396,-1.3396,-1.3396,0.0,0.0,0.0,0.0,0.0,0.0,0.0,0.0,0.0,0.0,0.0,0.0,0.0,0.0,0.0,0.0,0.0,0.0,0.0,0.0,0.0,0.0,0.0,0.0,0.0,0.0,0.0,0.0,0.0,0.0,0.0,0.0,0.0,0.0,0.0,-2.6788,-2.7934,-2.8748,-2.9005,-2.8675,-2.706,-2.6602,-2.6245,-2.463,-2.419,-2.419,-2.419,-2.4511,-2.4713,-2.43,0.0,0.0,0.0,-2.4339,-2.4375,-2.4469,-2.4726,0.0,-2.4413,-2.5601,-2.6696,-2.7126,-2.7879,0.0,-2.9669,-2.9433,-2.9818,0.0,-3.1734,0.0,0.0,0.0,-3.4872,-3.4872,-3.4872,-3.5064,-3.5481,-3.55,-3.55,-3.55,-3.55,-3.55,-3.55,-3.55,-3.55,-3.55,-3.55,-3.55,-3.55,-3.55,0.0,-3.55,-3.55,-3.55,-3.55,-3.55,-3.55,-3.5486,-3.5335,-3.5207,-3.5034,0.0,0.0,0.0,0.0,0.0,0.0,0.0,-1.4251,-1.3396,-1.3396,-1.3396,-1.3396,-1.3396,-1.3396,-1.3396,0.0,0.0,0.0,0.0,0.0,0.0,0.0,0.0,0.0,0.0,0.0,0.0,0.0,0.0,0.0,0.0,0.0,0.0,0.0,0.0,0.0,0.0,0.0,0.0,0.0,0.0,0.0,0.0,0.0,0.0,0.0,0.0,0.0,0.0,0.0,-2.6237,-2.7431,-2.8235,-2.8601,-2.8455,-2.7024,-2.6484,-2.6062,-2.4795,-2.4318,-2.419,-2.419,-2.4805,-2.5191,-2.4373,-2.4824,0.0,-2.4373,-2.419,-2.419,-2.419,-2.419,-2.419,0.0,-2.4879,-2.5686,-2.6502,-2.7291,-2.8121,0.0,-2.9362,0.0,-3.1736,-3.2373,0.0,0.0,0.0,0.0,-3.55,-3.55,-3.55,-3.55,-3.55,-3.55,-3.55,-3.55,-3.55,-3.55,-3.55,-3.55,-3.55,-3.55,-3.55,-3.55,-3.55,0.0,0.0,-3.55,-3.55,-3.55,-3.55,-3.546,-3.5383,-3.5182,-3.5051,-3.4944,0.0,0.0,0.0,0.0,0.0,0.0,0.0,-1.3929,-1.3396,-1.3396,-1.3396,-1.3396,-1.3396,-1.3396,-1.3396,0.0,0.0,0.0,0.0,0.0,0.0,0.0,0.0,0.0,0.0,0.0,0.0,0.0,0.0,0.0,0.0,0.0,0.0,0.0,0.0,0.0,0.0,0.0,0.0,0.0,0.0,0.0,0.0,0.0,0.0,0.0,0.0,0.0,0.0,0.0,0.0,-2.576,-2.6576,-2.7328,-2.7732,-2.6869,0.0,0.0,-2.5319,-2.4768,-2.419,-2.419,-2.4805,-2.5191,-2.4373,0.0,-2.5172,-2.4373,-2.419,-2.419,-2.419,-2.419,-2.419,-2.419,0.0,-2.5686,-2.6502,-2.7291,-2.818,-2.9248,0.0,0.0,-3.2024,0.0,0.0,0.0,0.0,0.0,-3.5493,-3.55,-3.55,-3.55,-3.55,-3.55,-3.55,-3.55,-3.55,-3.55,-3.55,-3.55,-3.55,-3.55,-3.55,-3.55,-3.55,0.0,0.0,-3.55,-3.55,-3.55,-3.55,-3.5354,-3.513,-3.5105,-3.4944,-3.4684,0.0,0.0,0.0,0.0,0.0,0.0,-1.5206,-1.4166,-1.3396,-1.3396,-1.3396,-1.3396,-1.3396,-1.3396,-1.3396,-1.3396,0.0,0.0,0.0,0.0,0.0,0.0,0.0,0.0,0.0,0.0,0.0,0.0,0.0,0.0,0.0,0.0,0.0,0.0,0.0,0.0,0.0,0.0,0.0,0.0,0.0,0.0,0.0,0.0,0.0,0.0,0.0,0.0,0.0,0.0,0.0,0.0,-2.5199,-2.5713,0.0,0.0,-2.6025,-2.5393,-2.5393,-2.4805,-2.419,-2.419,-2.4805,-2.5191,-2.4373,0.0,-2.5172,-2.4373,-2.419,-2.419,-2.419,-2.419,-2.419,0.0,0.0,0.0,-2.6429,-2.6888,-2.761,-2.899,-2.9784,0.0,0.0,0.0,0.0,0.0,0.0,0.0,-3.5239,-3.5398,-3.55,-3.55,-3.55,-3.55,-3.55,-3.55,-3.55,-3.55,-3.55,-3.55,-3.55,-3.55,-3.55,-3.55,-3.55,0.0,0.0,-3.55,-3.55,-3.5486,-3.5312,-3.5198,-3.507,-3.4686,-3.45,-3.4357,0.0,0.0,0.0,0.0,0.0,-1.5595,-1.5595,-1.4353,-1.3396,-1.3396,-1.3396,-1.3396,-1.3396,-1.3396,-1.3396,-1.3396,-1.3396,0.0,0.0,0.0,0.0,0.0,0.0,0.0,0.0,0.0,0.0,-1.8887,0.0,0.0,0.0,0.0,0.0,0.0,0.0,0.0,0.0,0.0,0.0,0.0,0.0,0.0,0.0,0.0,0.0,0.0,0.0,0.0,0.0,0.0,0.0,0.0,0.0,0.0,0.0,0.0,-2.5852,-2.5393,-2.5393,-2.4989,-2.4511,-2.4263,-2.4805,-2.5191,0.0,0.0,-2.5172,-2.4373,-2.419,-2.419,-2.419,-2.419,-2.419,0.0,0.0,-2.4759,-2.6363,-2.6602,-2.7189,0.0,0.0,0.0,0.0,0.0,0.0,0.0,0.0,0.0,-3.4823,-3.5179,-3.5424,-3.55,-3.55,-3.55,-3.55,-3.55,-3.55,-3.55,-3.55,-3.55,-3.55,-3.55,-3.55,-3.55,-3.55,0.0,0.0,-3.55,-3.5446,-3.5361,-3.5163,-3.4999,-3.4784,-3.4349,-3.4159,-3.4056,0.0,0.0,0.0,0.0,0.0,0.0,-1.5595,-1.4353,-1.3396,-1.3396,-1.3396,-1.3396,-1.3396,-1.3396,-1.3396,-1.3396,-1.3396,0.0,0.0,0.0,0.0,0.0,0.0,0.0,0.0,0.0,-1.8595,-1.8595,-1.8861,-1.8992,0.0,0.0,0.0,0.0,0.0,0.0,0.0,0.0,0.0,0.0,0.0,0.0,0.0,0.0,0.0,0.0,0.0,0.0,0.0,0.0,0.0,0.0,0.0,0.0,0.0,0.0,-2.5411,-2.5393,-2.5393,-2.5393,-2.5191,-2.4392,-2.4805,-2.5191,0.0,-2.4824,-2.5172,-2.4373,-2.419,-2.419,-2.419,-2.419,-2.419,-2.419,0.0,0.0,-2.6363,-2.6602,0.0,0.0,0.0,0.0,0.0,0.0,0.0,0.0,0.0,0.0,-3.42,-3.4784,-3.5223,-3.5493,-3.55,-3.55,-3.55,-3.55,-3.55,-3.55,-3.55,-3.55,-3.55,-3.55,-3.55,0.0,0.0,0.0,0.0,-3.55,-3.5335,-3.5105,-3.5105,-3.4745,-3.42,-3.42,-3.4031,-3.3788,0.0,0.0,0.0,0.0,0.0,0.0,0.0,-1.4353,-1.3396,-1.3396,-1.3396,-1.3396,-1.3396,-1.3396,-1.3396,-1.3396,-1.3396,0.0,0.0,0.0,0.0,0.0,0.0,0.0,0.0,0.0,-1.833,-1.833,-1.8612,-1.8816,-1.901,-1.8869,0.0,0.0,0.0,0.0,0.0,0.0,0.0,0.0,0.0,0.0,0.0,0.0,0.0,0.0,0.0,0.0,0.0,0.0,0.0,0.0,0.0,0.0,0.0,0.0,0.0,0.0,-2.5246,-2.5007,-2.453,-2.4263,-2.4392,-2.4511,-2.4263,-2.4392,-2.4511,-2.4245,-2.419,-2.419,-2.419,-2.419,-2.419,-2.419,-2.419,0.0,0.0,0.0,0.0,-2.8877,0.0,0.0,0.0,0.0,0.0,0.0,0.0,0.0,-3.4188,-3.4383,-3.4626,-3.4944,-3.5304,-3.5398,-3.5223,-3.5417,-3.55,-3.55,-3.55,-3.55,-3.55,-3.55,-3.55,0.0,0.0,0.0,0.0,-3.5223,-3.507,-3.4803,-3.4574,-3.4371,-3.4183,-3.3981,-3.3863,-3.3807,0.0,0.0,0.0,0.0,0.0,0.0,0.0,-1.4759,-1.3828,-1.3828,-1.3574,-1.3396,-1.3396,-1.3396,-1.3506,-1.3794,-1.3828,0.0,0.0,0.0,0.0,0.0,0.0,0.0,0.0,-1.796,-1.8057,-1.8057,-1.832,-1.8528,-1.8706,-1.8623,-1.8697,-1.8861,-1.8861,0.0,0.0,0.0,0.0,0.0,0.0,0.0,-2.1886,0.0,0.0,0.0,0.0,0.0,0.0,0.0,0.0,0.0,0.0,0.0,0.0,0.0,0.0,0.0,0.0,-2.4805,-2.4585,-2.4281,-2.419,0.0,0.0,-2.419,-2.419,-2.419,-2.419,-2.419,-2.419,-2.419,-2.419,-2.419,-2.419,0.0,0.0,0.0,0.0,-3.0564,0.0,0.0,0.0,0.0,0.0,0.0,0.0,0.0,-3.4043,-3.4147,-3.4253,-3.4371,-3.4907,-3.5174,-3.5105,-3.5273,-3.5354,-3.5354,-3.5354,-3.5354,-3.5354,-3.5354,-3.5354,0.0,0.0,0.0,0.0,-3.4954,-3.4784,-3.4497,-3.4288,-3.4147,-3.4031,-3.385,-3.3807,-3.3844,0.0,0.0,0.0,0.0,0.0,0.0,0.0,-1.5409,-1.4487,-1.4436,-1.3828,-1.3396,-1.3396,-1.3447,-1.376,-1.4436,0.0,0.0,0.0,0.0,0.0,0.0,0.0,0.0,-1.78,-1.78,-1.78,-1.78,-1.8057,-1.8177,-1.8208,-1.844,-1.8556,-1.8595,-1.8595,-1.8761,-1.9026,-1.9214,-1.9318,-1.9462,-2.0272,-2.1106,0.0,0.0,0.0,0.0,0.0,0.0,0.0,0.0,0.0,0.0,0.0,0.0,0.0,0.0,0.0,0.0,0.0,0.0,0.0,0.0,0.0,0.0,0.0,-2.419,0.0,-2.419,-2.419,-2.419,-2.419,-2.419,-2.419,-2.419,-2.4245,-2.5107,0.0,-2.7945,0.0,0.0,0.0,0.0,0.0,0.0,0.0,0.0,0.0,0.0,-3.3807,-3.4043,-3.4068,-3.382,-3.433,-3.4764,-3.5034,-3.507,-3.5079,-3.5079,-3.5079,-3.5079,-3.5079,-3.5079,-3.5079,0.0,0.0,0.0,0.0,-3.4663,-3.4475,-3.4183,-3.4183,-3.4018,-3.3807,-3.3807,-3.3844,-3.399,0.0,0.0,0.0,0.0,0.0,0.0,0.0,0.0,0.0,0.0,-1.3515,-1.3396,-1.3396,-1.3904,-1.4301,0.0,0.0,0.0,0.0,0.0,0.0,0.0,0.0,0.0,-1.78,-1.78,-1.78,-1.78,-1.785,-1.8003,-1.8198,-1.804,-1.8208,-1.8595,-1.8595,-1.8825,-1.9212,-1.9127,-1.9504,-2.0291,-2.1143,-2.1987,0.0,0.0,0.0,0.0,-2.419,-2.419,0.0,0.0,0.0,0.0,0.0,0.0,0.0,0.0,-2.419,0.0,0.0,0.0,0.0,0.0,0.0,0.0,0.0,0.0,0.0,0.0,0.0,0.0,0.0,-2.419,-2.419,-2.419,-2.4713,-2.5742,-2.7559,0.0,0.0,0.0,0.0,0.0,0.0,0.0,0.0,0.0,0.0,-3.4454,-3.3825,-3.3868,-3.3868,-3.3788,-3.3928,-3.4141,-3.4405,-3.4665,-3.4784,-3.4784,-3.4784,-3.4784,-3.4784,-3.4784,-3.4784,0.0,0.0,0.0,-3.4323,-3.4323,-3.4153,-3.3889,-3.3889,-3.3868,-3.3807,-3.3807,-3.4192,-3.4747,0.0,0.0,0.0,0.0,0.0,0.0,0.0,0.0,0.0,0.0,0.0,-1.3532,0.0,0.0,0.0,0.0,0.0,0.0,0.0,0.0,0.0,0.0,0.0,-1.78,-1.78,-1.78,-1.7867,-1.7982,-1.7982,-1.8114,-1.8381,-1.8229,-1.832,-1.8622,-1.8734,-1.9172,-1.985,-1.9729,-2.022,-2.118,-2.2006,0.0,0.0,0.0,0.0,0.0,-2.419,-2.419,0.0,-2.419,-2.419,-2.419,0.0,0.0,0.0,0.0,-2.419,-2.419,-2.419,-2.419,-2.419,-2.419,-2.419,0.0,0.0,0.0,0.0,0.0,0.0,0.0,0.0,0.0,0.0,0.0,-2.5742,0.0,0.0,0.0,0.0,0.0,0.0,0.0,0.0,0.0,0.0,0.0,0.0,-3.4821,-3.4362,-3.4009,-3.3972,-3.4325,-3.399,-3.3941,-3.4188,-3.4379,-3.4456,-3.4456,-3.4456,-3.4456,-3.4456,-3.4456,-3.4456,0.0,0.0,0.0,-3.4006,-3.4006,-3.3923,-3.3807,-3.3807,-3.3807,-3.3807,-3.3807,-3.4082,-3.4564,0.0,0.0,0.0,0.0,0.0,0.0,0.0,0.0,0.0,0.0,0.0,0.0,0.0,0.0,0.0,0.0,0.0,0.0,0.0,0.0,0.0,0.0,0.0,-1.7822,-1.7867,-1.7867,-1.7992,-1.8259,-1.8259,-1.8381,-1.8595,-1.8595,-1.8694,-1.8865,-1.9255,-1.9906,-2.0694,-2.0694,-2.1198,-2.2042,-2.2676,0.0,0.0,0.0,0.0,0.0,0.0,0.0,0.0,-2.419,-2.419,-2.419,-2.419,0.0,0.0,0.0,0.0,0.0,-2.419,-2.4281,-2.4355,-2.4226,-2.419,-2.419,0.0,0.0,0.0,0.0,0.0,0.0,0.0,-2.4842,0.0,0.0,0.0,0.0,-3.0338,-3.194,0.0,0.0,0.0,0.0,0.0,0.0,0.0,0.0,0.0,-3.5334,-3.5206,-3.4431,-3.4289,-3.4986,-3.4229,-3.3915,-3.4135,-3.4147,-3.4147,-3.4147,-3.4147,-3.4147,-3.4147,-3.4147,-3.4147,-3.4147,0.0,0.0,-3.3807,-3.3807,-3.3807,-3.3807,-3.3807,-3.388,-3.3972,-3.3844,-3.3954,-3.4394,0.0,0.0,0.0,0.0,0.0,0.0,0.0,0.0,0.0,0.0,0.0,0.0,0.0,0.0,0.0,0.0,0.0,0.0,0.0,0.0,0.0,-1.78,-1.78,-1.7922,-1.8125,-1.8135,-1.827,-1.8537,-1.8537,-1.8556,-1.8595,-1.8595,-1.9082,-2.0011,-2.0951,-2.1456,-2.1592,-2.1592,-2.2061,-2.2804,-2.2631,0.0,0.0,0.0,0.0,0.0,0.0,0.0,0.0,-2.419,-2.419,-2.419,-2.419,0.0,0.0,0.0,0.0,0.0,-2.419,-2.4695,-2.5044,-2.4373,-2.419,-2.419,-2.419,-2.419,0.0,0.0,0.0,0.0,0.0,-2.4768,-2.4832,0.0,0.0,-3.0393,0.0,0.0,0.0,0.0,0.0,0.0,0.0,0.0,0.0,0.0,0.0,-3.6817,-3.6138,-3.5279,-3.4876,-3.5004,-3.4229,-3.3815,-3.385,-3.385,-3.385,-3.385,-3.385,-3.385,-3.385,-3.385,-3.385,-3.385,0.0,-3.3842,-3.3807,-3.3807,-3.3807,-3.3807,-3.3807,-3.4229,-3.4729,-3.4045,-3.4688,-3.6046,0.0,0.0,0.0,0.0,0.0,0.0,0.0,0.0,0.0,0.0,0.0,0.0,0.0,0.0,0.0,0.0,0.0,0.0,0.0,0.0,0.0,-1.78,-1.7938,-1.8061,-1.8198,-1.8341,-1.8547,-1.8816,-1.9254,-1.9525,-1.9641,-2.011,-2.059,-2.1087,-2.1586,-2.2051,-2.2446,-2.2446,-2.2905,-2.363,0.0,0.0,0.0,0.0,0.0,0.0,0.0,0.0,0.0,0.0,-2.419,-2.419,-2.419,0.0,0.0,0.0,0.0,0.0,-2.419,-2.4475,-2.4768,-2.4824,-2.5181,-2.5493,-2.5493,-2.5493,0.0,0.0,0.0,0.0,0.0,0.0,-2.6961,-2.9427,0.0,0.0,0.0,0.0,0.0,0.0,0.0,0.0,0.0,0.0,0.0,0.0,0.0,0.0,-3.6978,-3.6156,-3.5899,-3.634,-3.511,-3.4669,-3.5147,-3.4688,-3.4215,-3.3807,-3.3807,-3.3807,-3.3807,-3.3807,-3.3807,-3.3807,0.0,-3.4045,-3.4454,-3.4454,-3.4743,-3.5092,-3.4619,-3.4949,-3.5591,-3.4747,-3.5238,-3.634,0.0,0.0,0.0,0.0,0.0,0.0,0.0,0.0,0.0,0.0,0.0,0.0,0.0,0.0,0.0,0.0,0.0,0.0,0.0,0.0,-1.78,-1.78,-1.8114,-1.829,-1.829,-1.8556,-1.8914,-1.934,-1.9974,-2.0451,-2.0823,-2.1675,-2.2088,-2.2088,-2.2271,-2.2703,-2.3281,-2.3281,-2.3639,-2.419,0.0,0.0,0.0,0.0,0.0,0.0,0.0,0.0,0.0,0.0,0.0,0.0,0.0,0.0,0.0,-2.419,-2.419,-2.419,-2.419,-2.4337,-2.464,-2.5246,-2.5713,-2.6135,-2.651,-2.6447,0.0,0.0,0.0,0.0,0.0,-2.7695,0.0,-3.1629,0.0,0.0,0.0,0.0,0.0,0.0,0.0,0.0,0.0,0.0,0.0,0.0,0.0,0.0,-3.7786,-3.7033,-3.6868,-3.7474,-3.5866,-3.5316,-3.5991,-3.5334,-3.4692,-3.4082,-3.4082,-3.399,-3.3807,-3.4009,-3.4082,-3.41,-3.4302,-3.4743,-3.5298,-3.5298,-3.5697,-3.6229,-3.5555,-3.5701,-3.6229,-3.5756,-3.6009,-3.6593,0.0,0.0,0.0,0.0,0.0,0.0,0.0,0.0,0.0,0.0,0.0,0.0,0.0,0.0,0.0,0.0,0.0,0.0,0.0,0.0,-1.78,-1.78,-1.83,-1.8566,-1.8566,-1.8825,-1.9448,-2.0395,-2.045,-2.0906,-2.1721,-2.2538,-2.2914,-2.2951,-2.3694,-2.4061,-2.4116,-2.4116,-2.4153,-2.417,-2.3847,0.0,0.0,0.0,0.0,0.0,0.0,0.0,0.0,0.0,0.0,0.0,0.0,0.0,0.0,0.0,-2.419,-2.419,-2.419,-2.475,-2.5319,-2.5393,-2.4879,-2.4759,-2.6264,-2.6025,0.0,-2.6374,0.0,0.0,0.0,-2.898,-3.0099,-3.0338,0.0,0.0,0.0,0.0,0.0,0.0,0.0,0.0,0.0,0.0,0.0,0.0,0.0,0.0,-3.8615,-3.786,-3.7437,-3.7492,-3.5866,-3.5041,-3.5096,-3.5041,-3.4968,-3.4912,-3.4912,-3.4509,-3.3825,-3.4564,-3.4912,-3.4968,-3.5771,-3.6156,-3.6211,-3.6211,-3.6229,-3.6285,-3.6229,-3.6229,-3.6376,-3.707,-3.7364,-3.7419,0.0,0.0,0.0,0.0,0.0,0.0,0.0,0.0,0.0,0.0,0.0,0.0,0.0,0.0,0.0,0.0,0.0,0.0,0.0,-1.78,-1.78,-1.78,-1.8594,-1.9132,-1.9332,-1.9731,-2.0117,-2.0503,-2.1538,-2.2474,-2.33,-2.3602,-2.3749,-2.3768,-2.4061,-2.419,-2.419,-2.419,-2.419,-2.418,-2.4064,-2.4084,0.0,0.0,0.0,0.0,0.0,0.0,0.0,0.0,-2.419,0.0,0.0,0.0,0.0,0.0,0.0,-2.419,-2.419,-2.4787,-2.5393,-2.5393,-2.5172,0.0,0.0,-2.7108,-2.699,-2.7273,-2.7989,0.0,0.0,0.0,-3.2265,0.0,0.0,0.0,0.0,0.0,0.0,0.0,0.0,0.0,0.0,0.0,0.0,0.0,0.0,0.0,-3.8707,-3.8414,-3.8248,-3.8248,-3.7147,-3.6541,-3.6541,-3.6541,-3.6303,-3.5807,-3.5807,-3.5661,-3.5349,-3.5679,-3.5807,-3.5826,-3.6156,-3.6593,-3.7052,-3.7052,-3.7331,-3.779,-3.779,-3.7477,-3.7088,-3.7382,-3.7492,-3.7492,0.0,0.0,0.0,0.0,0.0,0.0,0.0,0.0,0.0,0.0,0.0,0.0,0.0,0.0,0.0,0.0,0.0,0.0,-1.78,-1.78,-1.7901,-1.8149,-1.8991,-1.9668,-2.0149,-2.0889,-2.13,-2.13,-2.2694,-2.3657,-2.419,-2.419,-2.419,-2.419,-2.419,-2.419,-2.419,-2.419,-2.419,-2.419,-2.419,-2.419,0.0,0.0,0.0,0.0,0.0,0.0,0.0,0.0,0.0,0.0,0.0,0.0,0.0,0.0,0.0,0.0,-2.4585,-2.497,-2.5448,-2.5723,0.0,0.0,-2.775,-2.797,-2.8018,-2.8789,-2.9365,0.0,0.0,0.0,0.0,0.0,0.0,0.0,0.0,0.0,0.0,0.0,0.0,0.0,0.0,0.0,0.0,0.0,0.0,0.0,0.0,-3.8707,-3.8707,-3.8707,-3.7933,-3.7492,-3.7492,-3.7492,-3.7217,-3.667,-3.6927,-3.678,-3.6303,-3.656,-3.667,-3.6703,-3.6945,-3.7367,-3.7878,-3.7878,-3.8193,-3.8707,-3.8707,-3.8358,-3.7878,-3.7878,-3.7878,-3.7878,0.0,0.0,0.0,0.0,0.0,0.0,0.0,0.0,0.0,0.0,0.0,0.0,0.0,0.0,0.0,0.0,0.0,0.0,-1.78,-1.78,-1.8132,-1.8872,-1.9496,-2.0167,-2.0891,-2.2296,-2.3006,-2.3006,-2.3804,-2.419,-2.419,-2.419,-2.419,-2.419,-2.419,-2.419,-2.419,-2.419,-2.419,-2.419,-2.419,-2.419,-2.419,0.0,0.0,0.0,0.0,0.0,0.0,0.0,0.0,0.0,0.0,0.0,0.0,0.0,-2.4768,-2.5393,-2.5393,-2.5393,-2.5595,0.0,0.0,0.0,-2.8455,-2.8393,-2.8496,-3.0919,-3.1415,-3.1641,-3.2454,0.0,0.0,0.0,0.0,0.0,0.0,0.0,0.0,0.0,0.0,0.0,0.0,0.0,0.0,0.0,0.0,0.0,0.0,-3.8707,-3.8707,-3.8707,-3.7933,-3.7511,-3.7492,-3.7511,-3.7511,-3.7511,-3.8322,-3.7863,-3.634,-3.7144,-3.7511,-3.7566,-3.8358,-3.8707,-3.8707,-3.8707,-3.8707,-3.8707,-3.8707,-3.8707,-3.8707,-3.8707,-3.8707,-3.8707,0.0,0.0,0.0,0.0,0.0,0.0,0.0,0.0,0.0,0.0,0.0,0.0,0.0,0.0,0.0,0.0,0.0,0.0,-1.78,-1.8504,-1.9026,-1.9239,-2.0642,-2.1629,-2.2088,-2.323,-2.3841,-2.3841,-2.408,-2.419,-2.419,-2.419,-2.419,-2.419,-2.419,-2.419,-2.419,-2.419,-2.419,-2.419,-2.419,-2.419,-2.419,0.0,0.0,0.0,0.0,0.0,0.0,0.0,0.0,0.0,0.0,0.0,0.0,-2.419,-2.4373,-2.4566,-2.4566,-2.5383,0.0,-2.5852,0.0,0.0,0.0,-2.9225,0.0,0.0,-3.2247,-3.232,-3.2564,0.0,0.0,0.0,0.0,0.0,0.0,0.0,0.0,0.0,0.0,0.0,0.0,0.0,0.0,0.0,0.0,0.0,0.0,-3.8707,-3.8707,-3.8707,-3.8469,-3.8065,-3.7511,-3.8046,-3.8046,-3.7511,-3.8322,-3.845,-3.801,-3.8248,-3.834,-3.8358,-3.8597,-3.8707,-3.8707,-3.8707,-3.8707,-3.8707,-3.8707,-3.8707,-3.8707,-3.8707,-3.8707,-3.8707,0.0,0.0,0.0,0.0,0.0,0.0,0.0,0.0,0.0,0.0,-1.78,0.0,0.0,0.0,0.0,0.0,0.0,0.0,0.0,-1.9449,-2.017,-2.0458,-2.1647,-2.2592,-2.3217,-2.3866,-2.419,-2.419,-2.419,-2.419,-2.419,-2.419,-2.419,-2.419,-2.419,-2.419,-2.419,-2.419,-2.419,-2.419,-2.419,-2.419,-2.419,0.0,0.0,0.0,0.0,0.0,0.0,0.0,0.0,0.0,0.0,0.0,0.0,-2.4585,-2.4677,-2.4824,-2.5456,-2.6098,0.0,-2.6796,-2.7923,-2.9372,-3.0821,0.0,0.0,0.0,0.0,-3.317,-3.3482,0.0,0.0,0.0,0.0,0.0,0.0,0.0,0.0,0.0,0.0,0.0,0.0,0.0,0.0,0.0,0.0,0.0,0.0,-3.8707,-3.8707,-3.8707,-3.8707,-3.8469,-3.7988,-3.8469,-3.8469,-3.7988,-3.8469,-3.8707,-3.8707,-3.8707,-3.8707,-3.8707,-3.8707,-3.8707,-3.8707,-3.8707,-3.8707,-3.8707,-3.8707,-3.8707,-3.8707,-3.8707,-3.8707,-3.8707,0.0,0.0,0.0,0.0,0.0,0.0,0.0,0.0,0.0,0.0,-1.78,0.0,0.0,0.0,0.0,0.0,0.0,0.0,0.0,0.0,-2.1441,-2.2127,-2.253,-2.3199,-2.419,-2.419,-2.419,-2.419,-2.419,-2.419,-2.419,-2.419,-2.419,-2.419,-2.419,-2.419,-2.419,-2.419,-2.419,-2.419,-2.419,-2.419,-2.419,-2.419,0.0,0.0,0.0,0.0,0.0,0.0,0.0,0.0,0.0,0.0,-2.4337,-2.5081,-2.5338,-2.5723,-2.7192,0.0,0.0,-2.8528,-2.906,0.0,-3.2179,-3.3293,-3.3807,-3.3807,0.0,-3.4045,0.0,0.0,0.0,0.0,0.0,0.0,0.0,0.0,0.0,0.0,0.0,0.0,0.0,0.0,0.0,0.0,0.0,0.0,0.0,-3.8707,-3.8707,-3.8707,-3.8707,-3.8707,-3.8707,-3.8707,-3.8707,-3.8707,-3.8707,-3.8707,-3.8707,-3.8707,-3.8707,-3.8707,-3.8707,-3.8707,-3.8707,-3.8707,-3.8707,-3.8707,-3.8707,-3.8707,-3.8707,-3.8707,-3.8707,-3.8707,0.0,0.0,0.0,0.0,0.0,0.0,0.0,0.0,0.0,0.0,0.0,0.0,0.0,0.0,0.0,0.0,0.0,0.0,0.0,0.0,-2.2337,-2.2489,-2.3373,-2.3958,-2.419,-2.419,-2.419,-2.419,-2.419,-2.419,-2.419,-2.419,-2.419,-2.419,-2.419,-2.419,-2.419,-2.419,-2.419,-2.419,-2.419,-2.419,-2.419,-2.419,-2.419,0.0,0.0,0.0,0.0,0.0,0.0,0.0,-2.419,-2.419,-2.4226,-2.442,-2.4915,-2.5466,0.0,-2.6715,0.0,0.0,-2.9475,-3.1347,-3.3146,-3.3678,-3.3807,-3.3807,-3.3807,0.0,0.0,0.0,0.0,0.0,0.0,0.0,0.0,0.0,0.0,0.0,0.0,0.0,0.0,0.0,0.0,0.0,0.0,0.0,-3.8707,-3.8707,-3.8707,-3.8707,-3.8707,-3.8707,-3.8707,-3.8707,-3.8707,0.0,-3.8707,-3.8707,-3.8707,-3.8707,-3.8707,-3.8707,-3.8707,-3.8707,-3.8707,-3.8707,-3.8707,-3.8707,-3.8707,-3.8707,-3.8707,-3.8707,-3.8707,-3.8707,0.0,0.0,0.0,0.0,0.0,0.0,0.0,0.0,0.0,0.0,0.0,0.0,0.0,0.0,0.0,0.0,0.0,0.0,0.0,0.0,-2.3366,-2.3366,-2.3894,-2.419,-2.419,-2.419,-2.419,-2.419,-2.419,-2.419,-2.419,-2.419,-2.419,-2.419,-2.419,-2.419,-2.419,-2.419,-2.419,-2.419,-2.419,-2.419,-2.419,-2.419,-2.419,-2.419,-2.419,0.0,0.0,0.0,0.0,0.0,0.0,0.0,-2.4281,-2.4658,-2.4805,0.0,0.0,0.0,0.0,-2.9127,0.0,-3.1819,-3.3421,-3.3807,-3.3807,-3.3807,0.0,0.0,0.0,0.0,0.0,0.0,0.0,0.0,0.0,0.0,0.0,0.0,0.0,0.0,0.0,0.0,0.0,0.0,0.0,-3.8707,-3.8707,-3.8707,-3.8707,-3.8707,-3.8707,-3.8707,-3.8707,-3.8707,-3.8707,-3.8707,-3.8707,-3.8707,-3.8707,-3.8707,-3.8707,-3.8707,-3.8707,-3.8707,-3.8707,-3.8707,-3.8707,-3.8707,-3.8707,-3.8707,-3.8707,-3.8707,-3.8707,-3.8707,0.0,0.0,0.0,0.0,0.0,0.0,0.0,0.0,0.0,0.0,0.0,0.0,0.0,0.0,0.0,0.0,0.0,0.0,0.0,0.0,0.0,-2.419,-2.419,-2.419,-2.419,-2.419,-2.419,-2.419,-2.419,-2.419,-2.419,-2.419,-2.419,-2.419,-2.419,-2.419,-2.419,-2.419,-2.419,-2.419,-2.419,-2.419,-2.419,-2.419,-2.419,-2.419,-2.419,-2.419,-2.419,-2.419,0.0,0.0,0.0,0.0,-2.4318,-2.5007,-2.4824,0.0,0.0,0.0,-2.7548,-3.0632,-3.1397,0.0,-3.3421,-3.3807,-3.3807,-3.3807,0.0,0.0,0.0,0.0,0.0,0.0,0.0,0.0,0.0,0.0,0.0,0.0,0.0,0.0,0.0,0.0,0.0,0.0,0.0,-3.8707,-3.8707,-3.8707,-3.8707,-3.8707,-3.8707,-3.8707,-3.8707,-3.8707,-3.8707,-3.8707,-3.8707,-3.8707,-3.8707,-3.8707,-3.8707,-3.8707,-3.8707,-3.8707,-3.8707,-3.8707,-3.8707,-3.8707,-3.8707,-3.8707,-3.8707,-3.8707,-3.8707,-3.8707,0.0,0.0,0.0,0.0,0.0,0.0,0.0,0.0,0.0,0.0,-1.9739,0.0,0.0,0.0,0.0,0.0,0.0,0.0,0.0,0.0,0.0,-2.419,-2.419,-2.419,-2.419,-2.419,-2.419,-2.419,-2.419,-2.419,-2.419,-2.419,-2.419,-2.419,-2.419,-2.419,-2.419,-2.419,-2.419,-2.419,-2.419,-2.419,-2.419,-2.419,-2.419,-2.419,-2.419,-2.419,-2.419,-2.419,-2.419,0.0,0.0,0.0,0.0,0.0,0.0,0.0,0.0,0.0,-2.8257,0.0,-3.1397,-3.1819,0.0,0.0,-3.3807,0.0,0.0,0.0,0.0,0.0,0.0,0.0,0.0,0.0,0.0,0.0,0.0,0.0,0.0,0.0,0.0,0.0,0.0,0.0,-3.8707,-3.8707,-3.8707,-3.8707,-3.8707,-3.8707,-3.8707,-3.8707,-3.8707,-3.8707,-3.8707,-3.8707,-3.8707,-3.8707,-3.8707,-3.8707,-3.8707,-3.8707,-3.8707,-3.8707,-3.8707,-3.8707,-3.8707,-3.8707,-3.8707,-3.8707,-3.8707,-3.8707,-3.8707,-3.8707,0.0,0.0,0.0,0.0,0.0,0.0,0.0,0.0,0.0,0.0,0.0,-2.1065,0.0,0.0,0.0,0.0,0.0,0.0,0.0,0.0,0.0,-2.419,-2.419,-2.419,-2.419,-2.419,-2.419,-2.419,-2.419,-2.419,-2.419,-2.419,-2.419,-2.419,-2.419,-2.419,-2.419,-2.419,-2.419,-2.419,-2.419,-2.4475,-2.4824,-2.4373,-2.4493,-2.4805,-2.4355,-2.419,-2.419,-2.419,-2.419,-2.419,-2.419,0.0,0.0,0.0,0.0,0.0,-2.5823,-2.6924,-2.8275,0.0,-3.1072,-3.1696,-3.2871,0.0,0.0,0.0,0.0,0.0,0.0,0.0,0.0,0.0,0.0,0.0,0.0,0.0,0.0,0.0,0.0,0.0,0.0,0.0,0.0,0.0,-3.8707,-3.8707,-3.8707,-3.8707,-3.8707,-3.8707,-3.8707,-3.8707,-3.8707,-3.8707,-3.8707,-3.8707,-3.8707,-3.8707,-3.8707,-3.8707,-3.8707,-3.8707,-3.8707,-3.8707,-3.8707,-3.8707,-3.8707,-3.8707,-3.8707,-3.8707,-3.8707,-3.8707,-3.8707,-3.8707,0.0,0.0,0.0,0.0,0.0,0.0,0.0,0.0,0.0,0.0,0.0,0.0,0.0,0.0,0.0,0.0,0.0,0.0,0.0,0.0,0.0,-2.419,-2.419,-2.419,-2.419,-2.419,-2.419,-2.419,-2.419,-2.419,-2.419,-2.419,-2.419,-2.419,-2.419,-2.419,-2.419,-2.419,-2.419,-2.4208,-2.441,-2.486,-2.5356,-2.4961,-2.5181,-2.5631,-2.5034,-2.4685,-2.4511,-2.4511,-2.4373,-2.419,-2.419,-2.419,0.0,0.0,0.0,0.0,0.0,0.0,-2.7526,-2.9415,-3.029,-3.0991,0.0,0.0,0.0,0.0,0.0,0.0,0.0,0.0,0.0,0.0,0.0,0.0,0.0,0.0,0.0,0.0,0.0,0.0,0.0,0.0,0.0,0.0,-3.8707,-3.8707,-3.8707,-3.8707,-3.8707,-3.8707,-3.8707,-3.8707,-3.8707,-3.8707,-3.8707,-3.8707,-3.8707,-3.8707,-3.8707,-3.8707,-3.8707,-3.8707,-3.8707,-3.8707,-3.8707,-3.8707,-3.8707,-3.8707,-3.8707,-3.8707,-3.8707,-3.8707,-3.8707,-3.8707,0.0,0.0,0.0,0.0,0.0,0.0,0.0,0.0,0.0,0.0,0.0,0.0,0.0,-2.3931,-2.4143,-2.419,-2.3907,-2.3724,-2.3724,-2.4016,-2.419,-2.419,-2.419,0.0,-2.419,-2.419,-2.419,-2.419,-2.419,-2.419,-2.419,-2.419,-2.419,-2.419,-2.419,-2.419,-2.419,-2.419,-2.419,-2.4263,-2.5026,-2.5356,-2.5485,-2.6209,0.0,0.0,0.0,-2.597,-2.5338,-2.5338,-2.4824,-2.419,-2.419,-2.419,-2.419,0.0,0.0,0.0,0.0,-2.5251,0.0,-2.8386,-2.8852,0.0,0.0,0.0,0.0,0.0,0.0,0.0,0.0,0.0,0.0,0.0,0.0,0.0,0.0,0.0,0.0,0.0,0.0,0.0,0.0,0.0,0.0,0.0,-3.8707,-3.8707,-3.8707,-3.8707,-3.8707,-3.8707,-3.8707,-3.8707,-3.8707,-3.8707,-3.8707,-3.8707,-3.8707,-3.8707,-3.8707,-3.8707,-3.8707,-3.8707,-3.8707,-3.8707,-3.8707,-3.8707,-3.8707,-3.8707,-3.8707,-3.8707,-3.8707,-3.8707,-3.8707,-3.8707,0.0,0.0,0.0,0.0,0.0,0.0,0.0,0.0,0.0,0.0,0.0,0.0,0.0,-2.4141,-2.419,-2.419,-2.4094,-2.4016,-2.4016,-2.4123,-2.419,-2.419,-2.419,-2.419,-2.419,-2.419,-2.419,-2.419,-2.419,-2.419,-2.419,-2.419,-2.419,-2.419,-2.419,-2.419,-2.419,-2.419,-2.4511,-2.5044,-2.5841,-2.6796,-2.7695,0.0,0.0,0.0,0.0,0.0,0.0,-2.6935,-2.6054,-2.497,-2.497,-2.4622,-2.419,-2.419,0.0,0.0,0.0,0.0,0.0,-2.7075,-2.796,-2.8668,0.0,0.0,0.0,0.0,0.0,0.0,0.0,0.0,0.0,0.0,0.0,0.0,0.0,0.0,0.0,0.0,0.0,0.0,0.0,0.0,0.0,0.0,0.0,-3.8707,-3.8707,-3.8707,-3.8707,-3.8707,-3.8707,-3.8707,-3.8707,-3.8707,-3.8707,-3.8707,-3.8707,-3.8707,-3.8707,-3.8707,-3.8707,-3.8707,-3.8707,-3.8707,-3.8707,-3.8707,-3.8707,-3.8707,-3.8707,-3.8707,-3.8707,-3.8707,-3.8707,-3.8707,0.0,0.0,0.0,0.0,0.0,0.0,0.0,0.0,0.0,0.0,0.0,0.0,0.0,0.0,-2.419,-2.419,-2.419,-2.419,-2.419,-2.419,-2.419,-2.419,-2.419,-2.419,-2.419,-2.419,-2.419,-2.419,-2.419,-2.419,-2.419,-2.419,-2.4337,-2.4603,-2.4603,-2.4603,-2.4603,-2.4603,-2.5081,-2.5907,-2.6979,0.0,-2.8601,0.0,0.0,0.0,0.0,0.0,0.0,0.0,0.0,-2.6568,-2.6292,-2.5466,0.0,0.0,0.0,0.0,-2.4842,0.0,0.0,0.0,0.0,-2.7264,0.0,0.0,0.0,0.0,0.0,0.0,0.0,0.0,0.0,0.0,0.0,0.0,0.0,0.0,0.0,0.0,0.0,0.0,0.0,0.0,0.0,0.0,0.0,0.0,-3.8707,-3.8707,-3.8707,-3.8707,-3.8707,-3.8707,-3.8707,-3.8707,-3.8707,-3.8707,-3.8707,-3.8707,-3.8707,-3.8707,-3.8707,-3.8707,-3.8707,-3.8707,-3.8707,-3.8707,-3.8707,-3.8707,-3.8707,-3.8707,-3.8707,-3.8707,-3.8707,-3.8707,0.0,0.0,0.0,0.0,0.0,0.0,0.0,0.0,0.0,-2.2712,0.0,0.0,0.0,0.0,0.0,-2.419,-2.419,-2.419,-2.419,-2.419,-2.419,-2.419,-2.419,-2.419,-2.419,-2.419,-2.419,-2.419,-2.419,-2.419,-2.419,-2.4226,-2.4658,-2.5393,-2.5411,-2.5448,-2.5466,-2.5448,-2.5907,-2.6767,0.0,-2.8583,-2.8092,0.0,0.0,0.0,-2.9996,-2.9739,0.0,-2.9996,0.0,0.0,0.0,0.0,0.0,0.0,0.0,0.0,0.0,0.0,0.0,0.0,0.0,0.0,0.0,0.0,0.0,0.0,0.0,0.0,0.0,0.0,0.0,0.0,0.0,0.0,0.0,0.0,0.0,0.0,0.0,0.0,0.0,0.0,0.0,0.0,-3.8346,-3.8655,-3.8692,-3.8692,-3.8707,-3.8707,-3.8707,-3.8707,-3.8707,-3.8707,-3.8707,-3.8707,-3.8707,-3.8707,-3.8707,-3.8707,-3.8707,-3.8707,-3.8707,-3.8707,-3.8707,-3.8707,-3.8707,-3.8707,-3.8707,-3.8707,-3.8707,-3.8707,-3.8707,-3.8707,0.0,0.0,0.0,0.0,0.0,0.0,0.0,0.0,-2.3439,0.0,0.0,0.0,-2.4054,-2.4133,-2.419,-2.419,-2.419,-2.419,-2.419,-2.419,-2.419,-2.419,-2.419,-2.419,-2.419,-2.419,-2.419,-2.419,-2.419,0.0,0.0,0.0,0.0,-2.5429,-2.6007,-2.6594,-2.71,-2.6521,0.0,-2.7603,-2.9219,-3.0081,0.0,0.0,0.0,0.0,0.0,-3.1421,-3.0852,0.0,-3.0246,-2.7989,0.0,0.0,0.0,0.0,0.0,0.0,-2.4355,0.0,0.0,0.0,0.0,0.0,0.0,0.0,0.0,0.0,0.0,0.0,0.0,0.0,0.0,0.0,0.0,0.0,0.0,0.0,0.0,0.0,0.0,0.0,0.0,0.0,0.0,0.0,-3.7012,-3.7568,-3.8097,-3.8481,-3.8707,-3.8707,-3.8707,-3.8707,-3.8707,-3.8707,-3.8707,-3.8707,-3.8707,-3.8707,-3.8707,-3.8707,-3.8707,-3.8707,-3.8707,-3.8707,-3.8707,-3.8707,-3.8707,-3.8707,-3.8707,-3.8707,-3.8707,-3.8707,-3.8707,-3.8707,0.0,0.0,0.0,0.0,0.0,0.0,-2.2984,-2.3288,-2.3555,0.0,0.0,0.0,-2.418,-2.419,-2.419,-2.419,-2.419,-2.419,-2.419,-2.419,-2.419,-2.419,-2.419,-2.419,-2.419,-2.419,-2.4355,0.0,0.0,0.0,0.0,0.0,0.0,0.0,0.0,0.0,-2.8282,0.0,0.0,0.0,-3.0044,0.0,0.0,-3.2161,-3.2687,0.0,0.0,0.0,-3.2027,-3.2834,-3.1403,0.0,0.0,0.0,0.0,0.0,0.0,0.0,0.0,0.0,0.0,0.0,0.0,0.0,-2.4423,-2.5195,-2.6031,0.0,0.0,0.0,0.0,0.0,0.0,0.0,0.0,0.0,0.0,0.0,0.0,0.0,0.0,0.0,0.0,-3.3602,-3.4164,-3.5162,-3.5897,-3.6709,-3.7671,-3.8363,-3.8707,-3.8707,-3.8707,-3.8707,-3.8707,-3.8707,-3.8707,-3.8707,-3.8707,-3.8707,-3.8707,-3.8707,-3.8707,-3.8707,-3.8707,-3.8707,-3.8707,-3.8707,-3.8707,-3.8707,-3.8707,-3.8707,-3.8707,-3.8707,-3.8707,-3.8707,0.0,0.0,0.0,-2.3129,-2.3177,-2.3105,-2.286,-2.3093,-2.3311,0.0,-2.3566,-2.3876,-2.417,-2.419,-2.4245,-2.4318,-2.4318,-2.4373,-2.4465,-2.4465,-2.4465,-2.4465,-2.4465,-2.4465,-2.4465,-2.4465,-2.4824,0.0,0.0,0.0,0.0,0.0,0.0,0.0,0.0,0.0,0.0,0.0,0.0,-2.9262,-3.0687,-3.0944,0.0,0.0,-3.2394,-3.2039,-3.2761,-3.2949,-3.2949,-3.3495,-3.2779,0.0,0.0,0.0,0.0,0.0,-2.6075,0.0,0.0,0.0,0.0,0.0,0.0,0.0,-2.4774,-2.4747,-2.4948,-2.6911,0.0,0.0,0.0,0.0,0.0,0.0,0.0,0.0,0.0,0.0,0.0,0.0,0.0,0.0,-3.2107,-3.2614,-3.3194,-3.3934,-3.4923,-3.6084,-3.7441,-3.8175,-3.8615,-3.8707,-3.8707,-3.8707,-3.8707,-3.8707,-3.8707,-3.8707,-3.8707,-3.8707,-3.8707,-3.8707,-3.8707,-3.8707,-3.8707,-3.8707,-3.8707,-3.8707,-3.8707,-3.8707,-3.8707,-3.8707,-3.8707,-3.8707,-3.8707,-3.8707,0.0,0.0,0.0,-2.2764,-2.3021,-2.3259,-2.3471,-2.3795,-2.4006,-2.4006,-2.4064,-2.4141,-2.419,-2.419,-2.4456,-2.5117,-2.5172,-2.5448,-2.6098,-2.6135,-2.6135,-2.6135,-2.6135,-2.6135,-2.6135,-2.6135,-2.6209,-2.6374,0.0,0.0,0.0,0.0,0.0,0.0,0.0,0.0,0.0,0.0,0.0,-2.9989,-3.032,0.0,-3.2234,-3.3201,-3.4302,-3.5349,-3.5514,-3.5133,-3.4362,-3.3225,-3.3054,-3.2963,0.0,0.0,0.0,-2.8172,0.0,0.0,0.0,0.0,0.0,0.0,0.0,0.0,-2.2898,-2.3274,-2.3731,0.0,0.0,0.0,0.0,0.0,0.0,0.0,0.0,0.0,0.0,0.0,0.0,0.0,0.0,0.0,-3.1393,-3.1511,-3.1876,-3.2607,-3.4087,-3.5707,-3.7408,-3.7658,-3.8028,-3.8689,-3.8707,-3.8707,-3.8707,-3.8707,-3.8707,-3.8707,-3.8707,-3.8707,-3.8707,-3.8707,-3.8707,-3.8707,-3.8707,-3.8707,-3.8707,-3.8707,-3.8707,-3.8707,-3.8707,-3.8707,-3.8707,-3.8707,-3.8707,-3.8707,0.0,0.0,0.0,-2.3189,-2.3346,-2.3448,-2.3448,-2.3742,-2.3937,-2.3937,-2.4262,-2.4577,-2.4785,-2.4975,-2.5345,-2.5941,-2.5988,0.0,-2.6565,-2.6602,-2.6602,-2.6602,-2.6602,-2.6602,-2.6602,-2.6602,-2.6796,-2.72,0.0,0.0,0.0,0.0,0.0,0.0,0.0,0.0,0.0,0.0,-2.9831,-3.0283,-3.106,0.0,-3.333,-3.4578,-3.5569,-3.6303,-3.6303,-3.6028,-3.5532,-3.4724,-3.4156,0.0,0.0,-3.1587,-3.0813,0.0,-2.8737,-2.8224,0.0,0.0,0.0,-2.5243,0.0,0.0,0.0,-2.3648,-2.3494,-2.3881,0.0,0.0,0.0,0.0,0.0,0.0,0.0,0.0,0.0,0.0,0.0,0.0,0.0,0.0,-3.119,-3.119,-3.1523,-3.2341,-3.3547,-3.5015,-3.6806,-3.729,-3.7878,-3.867,-3.8707,-3.8707,-3.8707,-3.8707,-3.8707,-3.8707,-3.8707,-3.8707,-3.8707,-3.8707,-3.8707,-3.8707,-3.8707,-3.8707,-3.8707,-3.8707,-3.8707,-3.8707,-3.8707,-3.8707,-3.8658,-3.8399,-3.83,-3.8267,0.0,0.0,0.0,0.0,-2.366,-2.3599,-2.3346,0.0,-2.3757,-2.392,-2.4705,-2.5369,-2.569,-2.6161,-2.6603,-2.7002,-2.7043,0.0,-2.7163,-2.7181,-2.7215,-2.7281,-2.7134,-2.7134,-2.7291,-2.7134,-2.7383,-2.8026,0.0,0.0,0.0,0.0,0.0,0.0,0.0,0.0,0.0,0.0,0.0,-3.1017,0.0,-3.3366,-3.3954,-3.5477,-3.6248,-3.6541,-3.6707,-3.6762,-3.6707,-3.6395,-3.5404,-3.4192,-3.3715,-3.2675,0.0,0.0,0.0,0.0,0.0,0.0,0.0,0.0,0.0,-2.4316,0.0,0.0,0.0,0.0,0.0,0.0,0.0,0.0,0.0,0.0,0.0,0.0,0.0,0.0,0.0,0.0,0.0,0.0,0.0,-3.0946,-3.1484,-3.2416,-3.3025,-3.4161,-3.5948,-3.6817,-3.7639,-3.8432,-3.8615,-3.8707,-3.8707,-3.8707,-3.8707,-3.8707,-3.8707,-3.8707,-3.8707,-3.8707,-3.8707,-3.8707,-3.8707,-3.8707,-3.8707,-3.8707,-3.8707,-3.8692,-3.8596,-3.8546,-3.8481,-3.7946,-3.7755,-3.7702,-2.2598,-2.2708,0.0,0.0,-2.3493,0.0,0.0,0.0,-2.3956,-2.4678,-2.6026,-2.6916,-2.6904,-2.7569,-2.821,-2.8599,-2.8638,-2.8813,-2.9237,-2.9263,-2.9406,-2.9776,-2.9115,-2.906,-2.9787,-2.9097,-2.8767,-2.8858,-2.8858,0.0,0.0,0.0,0.0,0.0,-2.9787,0.0,0.0,0.0,-3.2082,0.0,-3.4362,-3.4344,0.0,-3.4802,-3.6083,-3.7456,-3.8175,-3.8432,-3.8212,0.0,-3.6156,-3.5624,0.0,-3.3565,-3.3959,-3.1047,0.0,0.0,0.0,0.0,0.0,0.0,-2.5308,0.0,0.0,0.0,-2.341,-2.3511,0.0,0.0,0.0,0.0,0.0,0.0,0.0,0.0,0.0,0.0,0.0,0.0,0.0,0.0,0.0,-3.012,-3.1185,-3.2414,-3.2319,-3.3049,-3.5031,-3.5973,-3.6813,-3.7621,-3.8322,-3.8707,-3.8707,-3.8707,-3.8707,-3.8707,-3.8707,-3.8707,-3.8707,-3.8707,-3.8707,-3.8707,-3.8707,-3.8707,-3.8707,-3.8707,-3.8707,-3.8643,-3.8183,-3.798,-3.7929,-3.7451,-3.7267,-3.7267,-2.2972,-2.2915,0.0,0.0,0.0,0.0,0.0,0.0,-2.5167,-2.5492,-2.6513,-2.7186,-2.7162,-2.7882,-2.8609,-2.9251,-2.9308,-2.9396,-2.958,-2.9593,0.0,-2.9507,-2.9189,-2.9152,-2.95,-2.917,-2.9005,-2.9005,-2.9005,0.0,0.0,0.0,0.0,0.0,-3.0742,0.0,-3.2302,0.0,-3.3183,0.0,0.0,0.0,0.0,-3.6472,-3.7588,-3.823,-3.8579,-3.8707,-3.8597,0.0,-3.7074,0.0,0.0,0.0,0.0,0.0,0.0,0.0,0.0,0.0,0.0,0.0,0.0,0.0,-2.565,0.0,-2.4051,0.0,0.0,0.0,0.0,0.0,0.0,0.0,0.0,0.0,0.0,0.0,0.0,0.0,0.0,0.0,0.0,0.0,0.0,0.0,-3.2632,-3.3379,-3.4921,-3.5826,-3.6684,-3.7474,-3.8285,-3.8707,-3.8707,-3.8707,-3.8707,-3.8707,-3.8707,-3.8707,-3.8707,-3.8707,-3.8707,-3.8707,-3.8707,-3.8707,-3.8707,-3.8707,-3.8707,-3.8643,-3.8099,-3.7893,-3.7842,-3.7378,-3.7001,-3.6684,-2.368,0.0,0.0,0.0,-2.4047,0.0,0.0,0.0,-2.5979,-2.6199,-2.7294,-2.803,-2.8004,-2.9098,-2.9966,-3.0315,-3.0517,-3.0599,-3.0508,-3.043,-3.033,-3.0246,-2.9856,-2.9801,-3.0129,-2.9819,-2.9647,-2.9647,-2.9647,0.0,0.0,0.0,0.0,0.0,0.0,-3.2504,-3.3807,0.0,-3.4394,-3.4871,-3.5459,-3.594,-3.6509,-3.8102,-3.8836,-3.9038,-3.9038,-3.9038,-3.8964,-3.8524,-3.7588,0.0,-3.707,0.0,0.0,0.0,0.0,0.0,-3.0975,0.0,0.0,0.0,0.0,0.0,0.0,0.0,0.0,0.0,0.0,0.0,0.0,0.0,0.0,0.0,0.0,0.0,0.0,0.0,0.0,0.0,0.0,0.0,0.0,0.0,0.0,-3.1811,-3.2489,-3.3353,-3.4465,-3.542,-3.6259,-3.6958,-3.7873,-3.8487,-3.8707,-3.8707,-3.8707,-3.8707,-3.8707,-3.8707,-3.8707,-3.8707,-3.8707,-3.8707,-3.8707,-3.8707,-3.8707,-3.8707,-3.8707,-3.8658,-3.8267,-3.7946,-3.7649,-3.7154,-3.6643,-3.6118,-2.4454,-2.4719,0.0,-2.495,-2.5232,-2.5345,-2.5027,-2.5347,-2.5887,-2.667,-2.8766,-3.0138,-3.0015,-3.2061,-3.3106,-3.2264,-3.2859,-3.3145,-3.2822,-3.2494,-3.2611,-3.3335,0.0,-3.1845,-3.294,-3.1886,-3.1323,-3.1323,-3.1323,0.0,0.0,0.0,0.0,0.0,0.0,-3.3023,-3.3844,-3.4637,-3.5899,-3.7382,-3.7419,-3.8355,-3.9662,0.0,-3.9184,-3.9845,-3.9845,0.0,0.0,-3.8062,-3.7492,0.0,0.0,0.0,0.0,0.0,0.0,0.0,0.0,0.0,0.0,-2.8287,0.0,0.0,0.0,0.0,-2.5559,0.0,0.0,0.0,0.0,0.0,0.0,0.0,0.0,0.0,0.0,0.0,0.0,0.0,0.0,0.0,0.0,0.0,-2.9006,-3.0262,-3.1407,-3.2408,-3.3214,-3.44,-3.5232,-3.5645,-3.6876,-3.7915,-3.8689,-3.8707,-3.8707,-3.8707,-3.8707,-3.8707,-3.8707,-3.8707,-3.8707,-3.8707,-3.8707,-3.8707,-3.8707,-3.8707,-3.8707,-3.8707,-3.8692,-3.8066,-3.7171,-3.6623,-3.6075,-3.5605,0.0,0.0,0.0,-2.4827,-2.5157,-2.579,-2.6424,-2.7042,-2.7731,-2.8504,-2.9927,-3.0995,-3.1202,-3.2126,-3.2739,-3.2702,-3.2916,-3.3009,-3.2905,-3.2581,0.0,-3.2703,-3.1619,-3.1409,0.0,-3.145,-3.1123,-3.1397,-3.1397,0.0,0.0,0.0,0.0,0.0,0.0,-3.4156,0.0,0.0,0.0,0.0,0.0,-3.9405,-3.9918,0.0,-4.0469,-4.0689,-4.0689,-4.0689,0.0,-4.0084,-3.9533,-3.9053,-3.8762,-3.8153,-3.7382,-3.6817,-3.6362,0.0,0.0,0.0,-3.3254,-3.0809,0.0,0.0,0.0,0.0,0.0,0.0,0.0,0.0,0.0,0.0,0.0,0.0,0.0,0.0,0.0,0.0,0.0,0.0,0.0,0.0,0.0,0.0,0.0,-2.9783,-3.1386,-3.2446,-3.2711,-3.3639,-3.4589,-3.5578,-3.652,-3.758,-3.8689,-3.8707,-3.8707,-3.8707,-3.8707,-3.8707,-3.8707,-3.8707,-3.8707,-3.8707,-3.8707,-3.8496,-3.82,-3.8546,-3.8481,-3.8167,-3.8167,-3.7773,-3.719,-3.6999,-3.6374,-3.5667,-2.6691,-2.6691,-2.6403,-2.5455,-2.5676,-2.6333,-2.7327,-2.7875,-2.8612,-2.973,-3.0784,-3.1743,-3.2494,-3.3254,-3.3861,-3.424,-3.4525,-3.4641,-3.4533,-3.4077,0.0,-3.3752,-3.2743,-3.2476,0.0,0.0,0.0,0.0,0.0,-3.2177,0.0,0.0,0.0,0.0,0.0,-3.4724,-3.6321,-3.6611,-3.7661,0.0,0.0,-4.0744,0.0,0.0,-4.159,-4.1132,0.0,-4.1534,-4.148,-4.1187,-4.0763,-4.0322,-4.0322,-3.9477,-3.8455,-3.8455,-3.7827,-3.6873,-3.5776,-3.5526,0.0,-3.2371,-3.1859,0.0,-2.9795,0.0,0.0,0.0,0.0,0.0,0.0,0.0,0.0,0.0,0.0,0.0,0.0,-2.2296,0.0,0.0,0.0,0.0,0.0,0.0,-2.7779,-2.9467,-3.0762,-3.1702,0.0,0.0,-3.3908,-3.5297,-3.6019,-3.711,-3.8673,-3.8707,-3.8593,-3.8433,-3.8433,-3.8334,-3.8168,-3.8168,-3.8168,-3.8168,-3.8168,-3.7964,-3.7667,-3.8033,-3.7964,-3.7649,-3.7649,-3.736,-3.6921,-3.6921,-3.6547,-3.6146,-2.681,-2.681,-2.681,-2.681,-2.681,-2.7046,-2.7756,-2.7925,-2.8643,-3.0489,-3.151,-3.2634,-3.4037,-3.5487,-3.6504,-3.6841,-3.7499,-3.7802,-3.7538,-3.6796,0.0,0.0,-3.5402,-3.493,-3.5247,0.0,0.0,0.0,0.0,0.0,0.0,0.0,0.0,0.0,-3.3844,0.0,-3.6413,-3.7217,-3.8521,-4.0157,-4.1735,-4.2341,-4.2396,-4.3185,-4.2525,-4.126,-4.2066,-4.2359,-4.2249,-4.148,-4.1224,-4.1205,-4.1168,-4.0774,-4.0293,-4.0257,-3.9496,-3.8365,-3.6981,-3.6195,-3.5243,-3.3062,0.0,0.0,0.0,0.0,-3.0006,0.0,0.0,0.0,0.0,0.0,0.0,0.0,0.0,0.0,0.0,0.0,0.0,0.0,0.0,0.0,0.0,-2.4525,-2.5968,-2.921,-2.9589,0.0,0.0,0.0,-3.3172,-3.4853,-3.5332,-3.6567,-3.864,-3.8658,-3.8382,-3.7877,-3.7877,-3.7632,-3.7209,-3.7209,-3.7209,-3.7209,-3.7209,-3.7173,-3.7154,-3.7173,-3.7173,-3.7154,-3.7154,-3.686,-3.6423,-3.6423,-3.6581,-3.6914,-2.8417,-2.8417,-2.8417,-2.8417,-2.8417,-2.8468,0.0,0.0,-3.0891,-3.2485,-3.3828,-3.5222,-3.6729,-3.7262,-3.7522,-3.7601,-3.7787,0.0,0.0,0.0,0.0,-3.7495,-3.6469,-3.5934,-3.6018,-3.5077,-3.444,-3.4117,0.0,0.0,-3.3652,0.0,0.0,0.0,0.0,0.0,-3.7235,-3.8046,-3.9662,-4.1772,-4.2782,-4.2818,-4.2396,0.0,-4.2873,-4.2103,-4.2892,-4.3185,-4.3149,-4.2947,-4.2873,-4.2782,-4.2176,-4.189,-4.1642,-4.1039,-4.0366,-3.9719,-3.9328,-3.855,-3.7442,-3.5759,-3.5066,-3.437,0.0,0.0,0.0,0.0,0.0,0.0,0.0,0.0,0.0,0.0,0.0,0.0,0.0,0.0,0.0,-2.2364,0.0,0.0,0.0,-2.4847,-2.6504,-2.7368,-2.9231,0.0,0.0,0.0,0.0,-3.4818,-3.501,-3.6053,-3.808,-3.8099,-3.786,-3.7378,-3.7378,-3.7323,-3.7209,-3.7209,-3.7209,-3.7209,-3.7209,-3.6962,-3.6641,-3.7038,-3.698,-3.662,-3.662,-3.6632,-3.6695,-3.6695,-3.6724,-3.6981,-2.8993,-2.9264,-2.9482,-2.9482,0.0,0.0,-3.0076,-3.0685,0.0,-3.3643,-3.4873,0.0,-3.7736,-3.8193,-3.8514,-3.8819,-3.8853,0.0,-3.8685,0.0,0.0,-3.8196,-3.7438,-3.6994,-3.6994,-3.6269,0.0,-3.4879,0.0,0.0,-3.3698,0.0,0.0,0.0,0.0,-3.5922,-3.7603,-3.9111,-4.0744,-4.2378,-4.3167,-4.3222,0.0,-4.3331,-4.3222,-4.2873,-4.3332,-4.3515,-4.3515,-4.3515,-4.3515,-4.3423,-4.2965,-4.2662,-4.2395,-4.1939,-4.1377,-4.0774,-4.0179,-3.9575,-3.8787,-3.7401,-3.6831,-3.6208,-3.4687,-3.4049,-3.3558,0.0,0.0,-3.1532,0.0,0.0,0.0,0.0,0.0,0.0,0.0,0.0,0.0,0.0,-2.4,0.0,0.0,0.0,-2.6826,-2.7165,-2.8544,0.0,0.0,0.0,0.0,-3.4022,-3.4624,-3.5776,-3.7578,-3.779,-3.756,-3.6862,-3.6862,-3.6724,-3.6501,-3.6501,-3.6623,-3.6843,-3.6603,-3.646,-3.6412,-3.646,-3.6333,-3.6105,-3.6448,-3.6865,-3.7313,-3.7642,-3.7777,-3.7895,-2.9416,-2.9939,-3.0429,0.0,0.0,0.0,0.0,-3.1867,0.0,-3.4675,0.0,-3.658,-3.8041,-3.8751,-3.9394,-4.0045,-4.0096,-3.999,-3.9772,-3.9382,-3.9044,-3.8819,-3.841,-3.8142,-3.8058,-3.7734,-3.6981,0.0,0.0,0.0,0.0,0.0,0.0,0.0,0.0,0.0,0.0,-4.0322,-4.1735,-4.2525,-4.3222,-4.3515,-4.3515,-4.3515,-4.3515,-4.3515,-4.3515,-4.3515,-4.3515,-4.3515,-4.3515,-4.3497,-4.341,-4.3105,-4.2788,-4.2731,-4.2264,-4.1566,-4.0464,-4.0001,-3.9566,-3.8431,-3.8089,-3.7686,-3.6225,-3.5904,-3.5498,-3.4134,-3.3343,-3.2987,0.0,0.0,0.0,0.0,0.0,0.0,0.0,0.0,0.0,0.0,0.0,0.0,0.0,0.0,0.0,0.0,0.0,0.0,0.0,0.0,0.0,-3.3182,-3.4269,-3.558,-3.7174,0.0,-3.7268,-3.6395,-3.6312,-3.6054,-3.56,-3.5701,-3.6007,-3.6443,-3.606,-3.6161,-3.6559,-3.6094,-3.5904,-3.5971,-3.6671,-3.7381,-3.8125,-3.8751,-3.9056,-3.914,-3.1599,-3.1836,-3.2124,0.0,0.0,-3.4421,-3.4771,-3.5385,-3.6186,-3.7178,-3.7956,-3.8734,-3.9622,-3.9842,-3.996,-4.0096,-4.0096,0.0,0.0,0.0,0.0,-3.9838,-3.9756,-3.9436,-3.8819,-3.8488,-3.781,0.0,0.0,0.0,0.0,0.0,0.0,0.0,0.0,0.0,-4.0543,-4.1644,0.0,-4.3313,-4.3441,-4.3515,-4.3515,-4.3515,-4.3515,-4.3515,-4.3515,-4.3515,-4.3515,-4.3515,-4.3515,-4.3427,-4.2976,-4.3069,-4.3268,-4.2826,-4.2264,-4.186,-4.2121,-4.1138,-3.9961,-3.956,-3.9142,-3.8582,-3.7702,-3.7516,-3.7263,-3.6366,-3.6101,-3.5492,-3.3728,0.0,0.0,0.0,0.0,0.0,0.0,0.0,0.0,0.0,0.0,-2.6522,0.0,0.0,0.0,0.0,0.0,0.0,0.0,0.0,0.0,0.0,-3.4194,0.0,0.0,0.0,-3.6563,-3.6395,-3.5963,-3.5694,-3.5616,-3.6282,-3.6638,-3.6763,-3.7276,-3.7547,-3.764,-3.7547,-3.7516,-3.7516,-3.7652,-3.8159,-3.8819,-3.8937,-3.9402,-3.991,-3.2797,0.0,-3.3102,0.0,0.0,0.0,0.0,-3.8108,-3.8802,-3.8007,-3.8531,-3.9123,-3.9503,-4.0206,-4.0663,-4.0663,-4.1027,-4.1247,-4.1247,-4.0865,-4.0663,-4.0663,-4.0316,-3.9943,-3.9588,-3.9426,-3.8728,-3.7504,0.0,0.0,0.0,0.0,0.0,0.0,0.0,-3.909,0.0,0.0,0.0,-4.3551,-4.3956,-4.436,-4.4727,-4.4727,-4.4727,-4.4727,-4.4727,-4.4727,-4.4617,-4.3773,-4.3515,-4.3444,-4.3196,-4.3105,-4.3032,-4.2788,-4.2264,-4.1874,-4.2162,-4.1617,-4.0874,-4.047,-4.0169,-3.9706,-3.8689,-3.8464,-3.8261,-3.7516,-3.7083,-3.6101,-3.3829,-3.251,0.0,0.0,0.0,0.0,0.0,0.0,0.0,0.0,0.0,0.0,0.0,0.0,0.0,0.0,0.0,0.0,0.0,0.0,0.0,0.0,0.0,0.0,0.0,0.0,0.0,-3.5985,-3.6146,-3.6214,-3.6248,-3.7009,-3.7517,-3.7757,-3.7861,-3.8037,-3.8248,-3.799,-3.8125,-3.8464,-3.8464,-3.892,-3.9571,-3.9571,-3.9808,-4.0096,-3.3812,-3.3858,0.0,0.0,-3.6491,-3.7709,-3.8278,-4.0104,-4.0747,-3.8853,-3.9242,-3.9698,-3.9698,-4.0747,-4.1441,-4.1441,-4.1965,-4.2286,-4.2286,-4.1762,-4.1441,-4.1441,-4.0891,-4.0502,-4.035,-4.0333,-3.9671,0.0,0.0,0.0,0.0,0.0,0.0,0.0,0.0,0.0,0.0,0.0,-4.228,-4.367,-4.4289,-4.4945,-4.5511,-4.5643,-4.5624,-4.5511,-4.5661,-4.5699,-4.5516,-4.4236,-4.3777,-4.37,-4.3429,-4.3032,-4.2674,-4.2557,-4.208,-4.1643,-4.1768,-4.1621,-4.1335,-4.0995,-4.081,-4.047,-3.945,-3.9225,-3.9005,-3.8294,-3.7415,-3.6203,-3.4235,-3.3389,0.0,0.0,0.0,0.0,0.0,0.0,0.0,0.0,0.0,0.0,0.0,0.0,0.0,0.0,0.0,-2.8145,-2.8959,-2.9145,-3.0178,0.0,0.0,-3.4521,-3.5528,0.0,-3.6161,-3.6021,-3.6536,-3.688,-3.7066,-3.7804,-3.8353,-3.8682,-3.8476,-3.8574,-3.8883,-3.852,-3.87,-3.9225,-3.9225,-3.9605,-4.0096,-4.0096,-4.0096,-4.0096,0.0,0.0,0.0,0.0,0.0,-3.9808,-3.9893,-4.1187,-4.188,-4.1018,-4.1525,-4.1982,-4.1982,-4.21,-4.2185,-4.2185,-4.2252,-4.2286,-4.2286,-4.2236,-4.2185,-4.2185,-4.2117,-4.1779,-4.1119,-4.1102,-4.0576,0.0,0.0,-3.7526,0.0,0.0,0.0,0.0,0.0,0.0,0.0,-4.1616,-4.2558,-4.3966,-4.4037,-4.4108,-4.4245,-4.4859,-4.4713,-4.4267,-4.4859,-4.5082,-4.5064,-4.4919,-4.4743,-4.4381,-4.3156,-4.275,-4.2596,-4.2041,-4.1468,-4.111,-4.1643,-4.1053,-4.036,-4.078,-4.0528,-4.0137,-4.0011,-3.9994,-3.9791,-3.9039,-3.7794,-3.6524,-3.5566,-3.5329,-3.4822,0.0,0.0,0.0,0.0,0.0,0.0,0.0,0.0,0.0,0.0,-2.8824,0.0,0.0,-2.818,-2.8145,-2.8959,-2.9634,-3.07,-3.2242,0.0,-3.4076,-3.5316,-3.5557,-3.6239,-3.7331,-3.6979,-3.7168,-3.7821,-3.8565,-3.8911,-3.9001,-3.963,-3.9918,-3.9968,-3.9918,-3.9943,-3.9994,-3.9994,-4.0045,-4.0096,-4.0096,-4.0096,-4.0096,0.0,0.0,0.0,0.0,0.0,0.0,0.0,-4.2303,-4.2861,-4.2574,-4.2388,-4.2286,-4.2286,-4.2692,-4.2963,-4.2963,-4.3386,-4.3684,-4.3684,-4.3234,-4.2963,-4.2963,-4.254,-4.2151,-4.1863,-4.1863,-4.1469,0.0,0.0,0.0,0.0,0.0,0.0,0.0,0.0,-4.138,-4.2388,-4.2543,-4.3419,-4.4756,-4.5156,-4.5612,-4.6111,-4.6733,-4.6592,-4.6068,-4.6344,-4.6176,-4.5757,-4.5276,-4.5244,-4.5242,-4.4218,-4.3684,-4.3208,-4.2121,-4.138,-4.0949,-4.1183,-4.092,-4.0631,-4.085,-4.0733,-4.0497,-4.0154,-4.0096,-4.0028,-3.9723,-3.8843,-3.7889,-3.7127,-3.6208,-3.5588,0.0,0.0,0.0,0.0,0.0,0.0,0.0,0.0,0.0,0.0,0.0,0.0,0.0,0.0,-2.8839,-2.9617,-3.0362,-3.1444,-3.2899,0.0,-3.4512,-3.548,-3.6039,-3.6565,-3.7103,-3.7787,-3.8261,-3.8582,-3.9309,-3.9673,-3.969,-3.9977,-4.0096,-4.0096,-4.0096,-4.0096,-4.0096,-4.0096,-4.0096,-4.0096,-4.0096,-4.0096,-4.0096,-4.0282,0.0,-4.0646,0.0,-4.1711,-4.2033,-4.254,-4.3267,-4.3758,-4.3758,-4.3301,-4.299,-4.299,-4.3436,-4.3758,-4.3758,-4.4265,-4.4615,-4.4615,-4.4062,-4.3758,-4.3758,-4.325,0.0,-4.2625,-4.2625,-4.2252,-4.1525,-4.0257,0.0,0.0,0.0,0.0,0.0,-4.1607,-4.2365,-4.3003,-4.3402,-4.4216,-4.5316,-4.5818,-4.6337,-4.691,-4.7512,-4.7259,-4.6612,-4.6977,-4.6705,-4.6048,-4.5486,-4.5628,-4.5904,-4.5057,-4.4424,-4.3706,-4.2505,-4.1753,-4.1191,-4.0795,-4.0655,-4.0655,-4.0655,-4.0655,-4.0577,-4.0196,-4.0096,-4.0096,-4.0096,-3.952,-3.8836,-3.8328,-3.7178,-3.64,-3.6745,0.0,0.0,0.0,0.0,0.0,0.0,-3.2747,-3.2107,-3.1582,-3.1055,0.0,0.0,0.0,-3.0429,-3.0734,-3.1444,-3.2324,0.0,0.0,0.0,-3.5583,-3.64,-3.7032,-3.7472,-3.8497,-3.9106,-3.9326,-3.9859,-4.0096,-4.0096,-4.0096,-4.0096,-4.0096,-4.0096,-4.0096,-4.0096,-4.0096,-4.0096,-4.0096,-4.0096,-4.0096,-4.0096,-4.1035,-4.1187,-4.1424,-4.2151,-4.2895,-4.3375,-4.3375,-4.4062,-4.4598,-4.4598,-4.4581,-4.4581,-4.4581,-4.4581,-4.4598,-4.4598,-4.4598,-4.4615,-4.4615,-4.4598,-4.4598,0.0,0.0,-4.4198,-4.3392,-4.3375,-4.3031,-4.2286,0.0,0.0,-4.0062,0.0,-4.0227,-4.1222,-4.1761,-4.2509,-4.344,-4.4096,-4.4809,-4.5494,-4.552,-4.552,-4.5597,-4.6192,-4.5673,-4.4786,-4.5989,-4.6014,-4.5511,-4.5494,-4.5898,-4.6223,-4.5303,-4.4571,-4.3952,-4.32,-4.2622,-4.1888,-4.0483,-4.0096,-4.0096,-4.0096,-4.0096,-4.0096,-4.0096,-4.0096,-4.0096,-4.0096,-3.952,-3.8988,-3.8988,-3.8379,-3.7635,-3.6931,0.0,0.0,0.0,0.0,0.0,-3.3491,-3.2747,-3.2293,-3.2293,-3.2276,0.0,0.0,0.0,0.0,0.0,0.0,0.0,-3.3406,-3.4117,0.0,-3.5583,-3.64,-3.754,-3.8954,-3.8988,-3.9377,-4.0096,-4.0096,-4.0096,-4.0096,-4.0096,-4.0096,-4.0096,-4.0096,-4.0096,-4.0096,-4.0096,-4.0096,-4.0096,-4.0096,-4.0096,-4.0096,-4.3352,-4.3504,-4.3572,-4.3836,-4.4045,-4.4215,-4.4215,-4.4445,-4.4615,-4.4615,-4.4615,-4.4615,-4.4615,-4.4615,-4.4615,0.0,-4.4615,-4.4615,0.0,-4.4615,-4.4615,-4.4615,-4.4615,-4.4496,-4.4215,-4.4215,-4.4096,-4.3887,0.0,0.0,0.0,-4.1291,-4.1911,-4.2726,-4.344,-4.3949,-4.4225,-4.4456,-4.4657,-4.4934,-4.5346,-4.5511,-4.5571,-4.6167,-4.5908,-4.5267,-4.5648,-4.5399,-4.4879,-4.4879,-4.5025,-4.5198,-4.5306,-4.542,-4.5229,-4.3617,-4.2957,-4.2479,-4.1196,-4.0485,-4.0096,-4.0096,-4.0096,-4.0096,-4.0096,-4.0096,-4.0096,-4.0096,-3.991,-3.9757,-3.9757,-3.914,-3.8565,-3.8328,-3.7472,0.0,0.0,0.0,0.0,-3.4923,-3.4692,-3.4353,-3.3846,-3.3795,0.0,0.0,0.0,0.0,0.0,0.0,0.0,0.0,-3.5407,0.0,-3.6417,-3.7669,-3.8531,-3.9005,-3.952,-3.9876,-4.0096,-4.0096,-4.0096,-4.0096,-4.0096,-4.0096,-4.0096,-4.0096,-4.0096,-4.0096,-4.0096,-4.0096,-4.0096,-4.0096,-4.0096,-4.0096,-4.4513,-4.4615,-4.4615,-4.4615,-4.4615,-4.4615,-4.4615,-4.4615,-4.4615,-4.4615,-4.4615,-4.4615,-4.4615,-4.4615,0.0,-4.4615,-4.4615,-4.4615,-4.4615,-4.4615,-4.4615,-4.4615,-4.4615,-4.4615,-4.4615,-4.4615,0.0,-4.4615,-4.365,-4.2912,-4.2489,-4.2946,-4.3403,-4.3876,-4.4395,-4.4615,-4.4598,-4.4841,-4.4934,-4.4971,-4.5346,-4.5511,-4.5545,-4.5915,-4.5681,-4.5178,-4.5407,-4.5115,-4.4615,-4.4615,-4.4615,-4.4682,-4.5052,-4.5518,-4.5627,-4.4087,-4.3585,-4.3249,-4.1955,-4.1068,-4.0493,-4.0493,-4.0316,-4.0096,-4.0096,-4.0096,-4.0096,-4.0096,-4.0096,-4.0096,-4.0096,-3.9723,-3.9309,-3.9039,-3.8234,-3.754,-3.7246,0.0,0.0,0.0,0.0,0.0,0.0,-3.4489,-3.4539,0.0,0.0,0.0,0.0,0.0,0.0,-3.5357,-3.6552,0.0,-3.7625,-3.8531,-3.914,-3.9436,-3.9893,-4.0096,-4.0096,-4.0096,-4.0096,-4.0096,-4.0096,-4.0096,-4.0096,-4.0096,-4.0096,-4.0096,-4.0096,-4.0096,-4.0096,-4.0096,-4.0096,-4.0096,-4.4615,-4.4615,-4.4615,0.0,-4.4615,0.0,-4.4615,-4.4615,-4.4615,-4.4615,-4.4615,-4.4615,-4.4615,-4.4615,-4.4615,-4.4615,0.0,0.0,0.0,-4.4615,-4.4615,-4.4615,-4.4615,-4.4615,-4.4615,-4.4615,-4.4615,-4.4615,-4.4615,-4.4615,-4.4615,-4.4615,-4.4615,-4.4615,-4.4615,-4.4615,-4.4626,-4.5205,-4.5433,-4.5433,-4.5433,-4.5433,-4.5433,-4.5433,-4.5089,-4.4682,-4.5232,-4.5062,-4.4615,-4.4615,-4.4615,-4.4615,-4.4615,-4.4998,-4.5295,-4.4637,-4.4402,-4.4111,-4.2736,-4.183,-4.1288,-4.1288,-4.0713,-4.0163,-4.0113,-4.0096,-4.0096,-4.0096,-4.0096,-4.0096,-4.0096,-4.0096,-3.9893,-3.9174,-3.9022,-3.8751,-3.8075,0.0,0.0,0.0,0.0,0.0,-3.4726,-3.4726,-3.5323,0.0,0.0,0.0,0.0,0.0,-3.6113,-3.6863,-3.7584,-3.8311,-3.8988,-3.9039,-3.9436,-4.0096,-4.0096,-4.0096,-4.0096,-4.0096,-4.0096,-4.0096,-4.0096,-4.0096,-4.0096,-4.0096,-4.0096,-4.0096,-4.0096,-4.0096,-4.0096,-4.0096,-4.0096,-4.0096,0.0,0.0,-4.4615,-4.4615,-4.4615,-4.4615,-4.4615,-4.4615,-4.4615,-4.4615,-4.4615,-4.4615,-4.4615,-4.4615,-4.4615,-4.4615,-4.4615,-4.4615,-4.4615,-4.4615,-4.4615,-4.4615,-4.4615,-4.4615,-4.4615,-4.4615,-4.4615,-4.4615,-4.4615,-4.4615,-4.4615,-4.4615,-4.4615,-4.4615,-4.4615,-4.4615,-4.4598,-4.4748,-4.4814,-4.4814,-4.4814,-4.4814,-4.4814,-4.4814,-4.472,-4.4626,-4.4759,-4.472,-4.4615,-4.4615,-4.4615,-4.4615,-4.4615,-4.4692,-4.478,-4.4593,-4.4482,-4.4232,-4.3355,-4.2608,-4.2033,-4.2033,-4.1491,-4.0781,-4.0231,-4.0096,-4.0096,-4.0096,-4.0096,-4.0096,-4.0096,-4.0096,-4.0045,-3.9876,-3.9385,-3.8937,-3.8751,-3.8108,0.0,0.0,-3.7212,-3.711,-3.711,-3.711,-3.7009,0.0,0.0,0.0,0.0,-3.7246,-3.7449,-3.7635,-3.8362,-3.8819,-3.8988,-3.9571,-3.9943,-4.0096,-4.0096,-4.0096,-4.0096,-4.0096,-4.0096,-4.0096,-4.0096,-4.0096,-4.0096,-4.0096,-4.0096,-4.0096,-4.0096,-4.0096,-4.0096,-4.0096,-4.0096,-4.0096,-4.4615,-4.4615,-4.4615,-4.4615,-4.4615,-4.4615,-4.4615,-4.4615,-4.4615,-4.4615,-4.4615,-4.4615,-4.4615,-4.4615,-4.4615,-4.4615,-4.4615,-4.4615,-4.4615,-4.4615,-4.4615,-4.4615,-4.4615,-4.4615,-4.4615,-4.4615,-4.4615,-4.4615,-4.4615,-4.4615,-4.4615,-4.4615,-4.4615,-4.4615,-4.4615,-4.4615,-4.4615,-4.4615,-4.4615,-4.4615,-4.4615,-4.4615,-4.4615,-4.4615,-4.4615,-4.4615,-4.4615,-4.4615,-4.4615,-4.4615,-4.4615,-4.4615,-4.4615,-4.4615,-4.4615,-4.4615,-4.4552,-4.4392,-4.4054,-4.3386,-4.2726,-4.2371,-4.1745,-4.1102,-4.0679,-4.035,-4.0096,-4.0096,-4.0096,-4.0096,-4.0096,-4.0096,-4.0096,-4.0096,-3.9774,-3.9503,-3.9503,-3.887,-3.8396,-3.8396,-3.8108,-3.7905,-3.7905,-3.7905,-3.7872,-3.7828,-3.7811,0.0,-3.8302,-3.8684,-3.8751,-3.8413,-3.9106,-3.9503,-3.9503,-4.0223,-4.0595,-4.0595,-4.0933,-4.0942,-4.0595,-4.0595,-4.0434,-4.0096,-4.0096,-4.0096,-4.0096,-4.0096,-4.0096,-4.0096,-4.0096,-4.0096,-4.0096,-4.0096,-4.0096,-4.0096,-4.4615,-4.4615,-4.4615,-4.4615,-4.4615,-4.4615,-4.4615,-4.4615,-4.4615,-4.4615,-4.4615,-4.4615,-4.4615,-4.4615,-4.4615,-4.4615,-4.4615,-4.4615,-4.4615,-4.4615,-4.4615,-4.4615,-4.4615,-4.4615,-4.4615,-4.4615,-4.4615,-4.4615,-4.4615,-4.4615,-4.4615,-4.4615,-4.4615,-4.4615,-4.4615,-4.4615,-4.4615,-4.4615,-4.4615,-4.4615,-4.4615,-4.4615,-4.4615,-4.4615,-4.4615,-4.4615,-4.4615,-4.4615,-4.4615,-4.4615,-4.4615,-4.4615,-4.4615,-4.4615,-4.4615,-4.4615,-4.4615,-4.4615,-4.4615,-4.4096,-4.3403,-4.2642,-4.1999,-4.1508,-4.139,-4.0798,-4.0282,-4.0282,-4.018,-4.0096,-4.0096,-4.0096,-4.0096,-4.0096,-4.0096,-4.0096,-4.0096,0.0,-3.9157,-3.9157,-3.8616,-3.8227,-3.8227,-3.8227,-3.8481,-3.9106,-3.9157,-3.9453,-4.0079,-4.0214,-3.9994,-3.9343,-3.996,-4.0316,-4.0434,-4.1052,-4.1373,-4.1373,-4.1999,-4.1965,-4.1373,-4.1373,-4.095,-4.0282,-4.0282,-4.0214,-4.0096,-4.0096,-4.0096,-4.0096,-4.0096,-4.0096,-4.0096,-4.0096,-4.0096,-4.0096,-4.4615,-4.4615,-4.4615,-4.4615,-4.4615,-4.4615,-4.4615,-4.4615,-4.4615,-4.4615,-4.4615,-4.4615,-4.4615,-4.4615,-4.4615,-4.4615,-4.4615,-4.4615,-4.4615,-4.4615,-4.4615,-4.4615,-4.4615,-4.4615,-4.4615,-4.4615,-4.4615,-4.4615,-4.4615,-4.4615,-4.4615,-4.4615,-4.4615,-4.4615,-4.4615,-4.4615,-4.4615,-4.4615,-4.4615,-4.4615,-4.4615,-4.4615,-4.4615,-4.4615,-4.4615,-4.4615,-4.4615,-4.4615,-4.4615,-4.4615,-4.4615,-4.4615,-4.4615,-4.4615,-4.4615,-4.4615,-4.4615,-4.4615,-4.4615,-4.4513,-4.4215,-4.3436,-4.3122,-4.2912,-4.2269,-4.1559,-4.1035,-4.1035,-4.0527,-4.0096,-4.0096,-4.0096,-4.0096,-4.0096,-4.0096,-4.0096,-4.0096,0.0,-3.9943,-3.9943,-3.9842,-3.9757,-3.9757,-3.9757,-3.9808,-3.9926,-3.9943,-3.9977,-4.0096,-4.0679,-4.0984,-4.0865,-4.0967,-4.1322,-4.1931,-4.2066,-4.2117,-4.2117,-4.2236,-4.2236,-4.2117,-4.2117,-4.1728,-4.1035,-4.1035,-4.0679,-4.0096,-4.0096,-4.0096,-4.0096,-4.0096,-4.0096,-4.0096,-4.0096,-4.0096,-4.0096,-4.4615,-4.4615,-4.4615,-4.4615,-4.4615,-4.4615,-4.4615,-4.4615,-4.4615,-4.4615,-4.4615,-4.4615,-4.4615,-4.4615,-4.4615,-4.4615,-4.4615,-4.4615,-4.4615,-4.4615,-4.4615,-4.4615,-4.4615,-4.4615,-4.4615,-4.4615,-4.4615,-4.4615,-4.4615,-4.4615,-4.4615,-4.4615,-4.4615,-4.4615,-4.4615,-4.4615,-4.4615,-4.4615,-4.4615,-4.4615,-4.4615,-4.4615,-4.4615,-4.4615,-4.4615,-4.4615,-4.4615,-4.4615,-4.4615,-4.4615,-4.4615,-4.4615,-4.4615,-4.4615,-4.4615,-4.4615,-4.4615,-4.4615,-4.4615,-4.4615,-4.4513,-4.413,-4.3724,-4.3291,-4.298,-4.232,-4.1677,-4.1288,-4.0933,-4.0561,-4.018,-4.0096,-4.0096,-4.0096,-4.0096,0.0,0.0,-4.0096,-4.0096,-4.0096,-4.0096,-4.0265,-4.0646,-4.0679,-4.0849,-4.1264,-4.1297,-4.1297,-4.1297,-4.161,-4.1779,-4.1779,-4.1779,-4.1948,-4.2286,-4.2692,-4.2895,-4.2912,-4.3318,-4.3301,-4.2895,-4.2895,-4.2489,-4.1762,-4.1373,-4.1018,-4.0646,-4.0265,-4.0096,-4.0096,-4.0096,-4.0096,-4.0096,-4.0096,-4.0096,-4.0096,-4.4615,-4.4615,-4.4615,-4.4615,-4.4615,-4.4615,-4.4615,-4.4615,-4.4615,-4.4615,-4.4615,-4.4615,-4.4615,-4.4615,-4.4615,-4.4615,-4.4615,-4.4615,-4.4615,-4.4615,-4.4615,-4.4615,-4.4615,-4.4615,-4.4615,-4.4615,-4.4615,-4.4615,-4.4615,-4.4615,-4.4615,-4.4615,-4.4615,-4.4615,-4.4615,-4.4615,-4.4615,-4.4615,-4.4615,-4.4615,-4.4615,-4.4615,-4.4615,-4.4615,-4.4615,-4.4615,-4.4615,-4.4615,-4.4615,-4.4615,-4.4615,-4.4615,-4.4615,-4.4615,-4.4615,-4.4615,-4.4615,-4.4615,-4.4615,-4.4615,-4.4615,-4.4615,-4.413,-4.369,-4.369,-4.3098,-4.2405,-4.1847,-4.1593,-4.1221,-4.0476,-4.0367,-4.0316,-4.013,0.0,0.0,0.0,-4.0248,-4.0367,-4.0367,-4.0519,-4.084,-4.1407,-4.1457,-4.1694,-4.2252,-4.2286,-4.2286,-4.2286,-4.2455,-4.2642,-4.2811,-4.2642,-4.2642,-4.2811,-4.3403,-4.369,-4.369,-4.4282,-4.4265,-4.369,-4.369,-4.3267,-4.2523,-4.1965,-4.1525,-4.117,-4.0578,-4.0265,-4.0096,-4.0096,-4.0096,-4.0096,-4.0096,-4.0096,-4.0096,-4.4615,-4.4615,-4.4615,-4.4615,-4.4615,-4.4615,-4.4615,-4.4615,-4.4615,-4.4615,-4.4615,-4.4615,-4.4615,-4.4615,-4.4615,-4.4615,-4.4615,-4.4615,-4.4615,-4.4615,-4.4615,-4.4615,-4.4615,-4.4615,-4.4615,-4.4615,-4.4615,-4.4615,-4.4615,-4.4615,-4.4615,-4.4615,-4.4615,-4.4615,-4.4615,-4.4615,-4.4615,-4.4615,-4.4615,-4.4615,-4.4615,-4.4615,-4.4615,-4.4615,-4.4615,-4.4615,-4.4615,-4.4615,-4.4615,-4.4615,-4.4615,-4.4615,-4.4615,-4.4615,-4.4615,-4.4615,-4.4615,-4.4615,-4.4615,-4.4615,-4.4615,-4.4615,-4.4564,-4.4513,-4.4513,-4.3893,-4.3291,-4.324,-4.2692,-4.1982,-4.1255,-4.1119,-4.0899,-4.0214,0.0,0.0,-4.0096,-4.0679,-4.1119,-4.1119,-4.1711,-4.2151,-4.2202,-4.2219,-4.2236,-4.2286,-4.2286,-4.2286,-4.2286,-4.2963,-4.3673,-4.4412,-4.3707,-4.369,-4.4429,-4.4496,-4.4513,-4.4513,-4.4581,-4.4581,-4.4513,-4.4513,-4.4079,-4.3308,-4.3257,-4.2446,-4.1204,-4.1136,-4.0713,-4.0096,-4.0096,-4.0096,-4.0096,-4.0096,-4.0096,-4.0096,-4.4615,-4.4615,-4.4615,-4.4615,-4.4615,-4.4615,-4.4615,-4.4615,-4.4615,-4.4615,-4.4615,-4.4615,-4.4615,-4.4615,-4.4615,-4.4615,-4.4615,-4.4615,-4.4615,-4.4615,-4.4615,-4.4615,-4.4615,-4.4615,-4.4615,-4.4615,-4.4615,-4.4615,-4.4615,-4.4615,-4.4615,-4.4615,-4.4615,-4.4615,-4.4615,-4.4615,-4.4615,-4.4615,-4.4615,-4.4615,-4.4615,-4.4615,-4.4615,-4.4615,-4.4615,-4.4615,-4.4615,-4.4615,-4.4615,-4.4615,-4.4615,-4.4615,-4.4615,-4.4615,-4.4615,-4.4615,-4.4615,-4.4615,-4.4615,-4.4615,-4.4615,-4.4615,-4.4615,-4.4615,-4.4615,-4.435,-4.3995,-4.3494,-4.32,-4.276,-4.2016,-4.188,-4.1779,-4.1491,0.0,-4.1441,-4.1441,-4.1694,-4.188,-4.188,-4.2117,-4.2472,-4.2946,-4.298,-4.32,-4.3701,-4.3735,-4.3735,-4.3735,-4.3978,-4.4265,-4.4598,-4.4282,-4.4282,-4.4615,-4.4615,-4.4615,-4.4615,-4.4615,-4.4615,-4.4615,-4.4615,-4.4418,-4.4113,-4.3639,-4.3071,-4.254,-4.2066,-4.1711,-4.1433,-4.095,-4.0781,-4.073,-4.0282,-4.0096,-4.0096,-4.4615,-4.4615,-4.4615,-4.4615,-4.4615,-4.4615,-4.4615,-4.4615,-4.4615,-4.4615,-4.4615,-4.4615,-4.4615,-4.4615,-4.4615,-4.4615,-4.4615,-4.4615,-4.4615,-4.4615,-4.4615,-4.4615,-4.4615,-4.4615,-4.4615,-4.4615,-4.4615,-4.4615,-4.4615,-4.4615,-4.4615,-4.4615,-4.4615,-4.4615,-4.4615,-4.4615,-4.4615,-4.4615,-4.4615,-4.4615,-4.4615,-4.4615,-4.4615,-4.4615,-4.4615,-4.4615,-4.4615,-4.4615,-4.4615,-4.4615,-4.4615,-4.4615,-4.4615,-4.4615,-4.4615,-4.4615,-4.4615,-4.4615,-4.4615,-4.4615,-4.4615,-4.4615,-4.4615,-4.4615,-4.4615,-4.4615,-4.4445,-4.3893,-4.3792,-4.3555,-4.2794,-4.2642,-4.2574,-4.2337,-4.2286,-4.2286,-4.2286,-4.2489,-4.2642,-4.2642,-4.2861,-4.3217,-4.3741,-4.3792,-4.4012,-4.4564,-4.4615,-4.4615,-4.4615,-4.4615,-4.4615,-4.4615,-4.4615,-4.4615,-4.4615,-4.4615,-4.4615,-4.4615,-4.4615,-4.4615,-4.4615,-4.4615,-4.4615,-4.4581,-4.4012,-4.3639,-4.3358,-4.2861,-4.2506,-4.2236,-4.1745,-4.1542,-4.1474,-4.0993,-4.0654,-4.0468,-4.4615,-4.4615,-4.4615,-4.4615,-4.4615,-4.4615,-4.4615,-4.4615,-4.4615,-4.4615,-4.4615,-4.4615,-4.4615,-4.4615,-4.4615,-4.4615,-4.4615,-4.4615,-4.4615,-4.4615,-4.4615,-4.4615,-4.4615,-4.4615,-4.4615,-4.4615,-4.4615,-4.4615,-4.4615,-4.4615,-4.4615,-4.4615,-4.4615,-4.4615,-4.4615,-4.4615,-4.4615,-4.4615,-4.4615,-4.4615,-4.4615,-4.4615,-4.4615,-4.4615,-4.4615,-4.4615,-4.4615,-4.4615,-4.4615,-4.4615,-4.4615,-4.4615,-4.4615,-4.4615,-4.4615,-4.4615,-4.4615,-4.4615,-4.4615,-4.4615,-4.4615,-4.4615,-4.4615,-4.4615,-4.4615,-4.4615,-4.4615,-4.4615,-4.4615,-4.435,-4.3572,-4.3392,-4.3183,-4.2439,-4.2303,-4.2303,-4.2303,-4.2963,-4.3392,-4.3392,-4.4113,-4.4615,-4.4615,-4.4615,-4.4615,-4.4615,-4.4615,-4.4615,-4.4615,-4.4615,-4.4615,-4.4615,-4.4615,-4.4615,-4.4615,-4.4615,-4.4615,-4.4615,-4.4615,-4.4615,-4.4615,-4.4615,-4.4615,-4.4615,-4.4615,-4.4147,-4.3392,-4.3392,-4.298,-4.2303,-4.2303,-4.2303,-4.2303,-4.2286,-4.183,-4.1204,-4.4615,-4.4615,-4.4615,-4.4615,-4.4615,-4.4615,-4.4615,-4.4615,-4.4615,-4.4615,-4.4615,-4.4615,-4.4615,-4.4615,-4.4615,-4.4615,-4.4615,-4.4615,-4.4615,-4.4615,-4.4615,-4.4615,-4.4615,-4.4615,-4.4615,-4.4615,-4.4615,-4.4615,-4.4615,-4.4615,-4.4615,-4.4615,-4.4615,-4.4615,-4.4615,-4.4615,-4.4615,-4.4615,-4.4615,-4.4615,-4.4615,-4.4615,-4.4615,-4.4615,-4.4615,-4.4615,-4.4615,-4.4615,-4.4615,-4.4615,-4.4615,-4.4615,-4.4615,-4.4615,-4.4615,-4.4615,-4.4615,-4.4615,-4.4615,-4.4615,-4.4615,-4.4615,-4.4615,-4.4615,-4.4615,-4.4615,-4.4615,-4.4615,-4.4615,-4.453,-4.4282,-4.4231,-4.4164,-4.3955,-4.3921,-4.3921,-4.3921,-4.4079,-4.4231,-4.4231,-4.4462,-4.4615,-4.4615,-4.4615,-4.4615,-4.4615,-4.4615,-4.4615,-4.4615,-4.4615,-4.4615,-4.4615,-4.4615,-4.4615,-4.4615,-4.4615,-4.4615,-4.4615,-4.4615,-4.4615,-4.4615,-4.4615,-4.4615,-4.4615,-4.4615,-4.4479,-4.4231,-4.4231,-4.4096,-4.387,-4.3301,-4.3081,-4.3014,-4.2489,-4.183,-4.1204,-4.4615,-4.4615,-4.4615,-4.4615,-4.4615,-4.4615,-4.4615,-4.4615,-4.4615,-4.4615,-4.4615,-4.4615,-4.4615,-4.4615,-4.4615,-4.4615,-4.4615,-4.4615,-4.4615,-4.4615,-4.4615,-4.4615,-4.4615,-4.4615,-4.4615,-4.4615,-4.4615,-4.4615,-4.4615,-4.4615,-4.4615,-4.4615,-4.4615,-4.4615,-4.4615,-4.4615,-4.4615,-4.4615,-4.4615,-4.4615,-4.4615,-4.4615,-4.4615,-4.4615,-4.4615,-4.4615,-4.4615,-4.4615,-4.4615,-4.4615,-4.4615,-4.4615,-4.4615,-4.4615,-4.4615,-4.4615,-4.4615,-4.4615,-4.4615,-4.4615,-4.4615,-4.4615,-4.4615,-4.4615,-4.4615,-4.4615,-4.4615,-4.4615,-4.4615,-4.4615,-4.4615,-4.4615,-4.4615,-4.4615,-4.4615,-4.4615,-4.4615,-4.4615,-4.4615,-4.4615,-4.4615,-4.4615,-4.4615,-4.4615,-4.4615,-4.4615,-4.4615,-4.4615,-4.4615,-4.4615,-4.4615,-4.4615,-4.4615,-4.4615,-4.4615,-4.4615,-4.4615,-4.4615,-4.4615,-4.4615,-4.4615,-4.4615,-4.4615,-4.4615,-4.4615,-4.4615,-4.4615,-4.4615,-4.4615,-4.4564,-4.4062,-4.3876,-4.3826,-4.3369,-4.2523,-4.1644,-4.4615,-4.4615,-4.4615,-4.4615,-4.4615,-4.4615,-4.4615,-4.4615,-4.4615,-4.4615,-4.4615,-4.4615,-4.4615,-4.4615,-4.4615,-4.4615,-4.4615,-4.4615,-4.4615,-4.4615,-4.4615,-4.4615,-4.4615,-4.4615,-4.4615,-4.4615,-4.4615,-4.4615,-4.4615,-4.4615,-4.4615,-4.4615,-4.4615,-4.4615,-4.4615,-4.4615,-4.4615,-4.4615,-4.4615,-4.4615,-4.4615,-4.4615,-4.4615,-4.4615,-4.4615,-4.4615,-4.4615,-4.4615,-4.4615,-4.4615,-4.4615,-4.4615,-4.4615,-4.4615,-4.4615,-4.4615,-4.4615,-4.4615,-4.4615,-4.4615,-4.4615,-4.4615,-4.4615,-4.4615,-4.4615,-4.4615,-4.4615,-4.4615,-4.4615,-4.4615,-4.4615,-4.4615,-4.4615,-4.4615,-4.4615,-4.4615,-4.4615,-4.4615,-4.4615,-4.4615,-4.4615,-4.4615,-4.4615,-4.4615,-4.4615,-4.4615,-4.4615,-4.4615,-4.4615,-4.4615,-4.4615,-4.4615,-4.4615,-4.4615,-4.4615,-4.4615,-4.4615,-4.4615,-4.4615,-4.4615,-4.4615,-4.4615,-4.4615,-4.4615,-4.4615,-4.4615,-4.4615,-4.4615,-4.4615,-4.4615,-4.4615,-4.4615,-4.4615,-4.4615,-4.3633,-4.2269,-4.4615,-4.4615,-4.4615,-4.4615,-4.4615,-4.4615,-4.4615,-4.4615,-4.4615,-4.4615,-4.4615,-4.4615,-4.4615,-4.4615,-4.4615,-4.4615,-4.4615,-4.4615,-4.4615,-4.4615,-4.4615,-4.4615,-4.4615,-4.4615,-4.4615,-4.4615,-4.4615,-4.4615,-4.4615,-4.4615,-4.4615,-4.4615,-4.4615,-4.4615,-4.4615,-4.4615,-4.4615,-4.4615,-4.4615,-4.4615,-4.4615,-4.4615,-4.4615,-4.4615,-4.4615,-4.4615,-4.4615,-4.4615,-4.4615,-4.4615,-4.4615,-4.4615,-4.4615,-4.4615,-4.4615,-4.4615,-4.4615,-4.4615,-4.4615,-4.4615,-4.4615,-4.4615,-4.4615,-4.4615,-4.4615,-4.4615,-4.4615,-4.4615,-4.4615,-4.4615,-4.4615,-4.4615,-4.4615,-4.4615,-4.4615,-4.4615,-4.4615,-4.4615,-4.4615,-4.4615,-4.4615,-4.4615,-4.4615,-4.4615,-4.4615,-4.4615,-4.4615,-4.4615,-4.4615,-4.4615,-4.4615,-4.4615,-4.4615,-4.4615,-4.4615,-4.4615,-4.4615,-4.4615,-4.4615,-4.4615,-4.4615,-4.4615,-4.4615,-4.4615,-4.4615,-4.4615,-4.4615,-4.4615,-4.4615,-4.4615,-4.4615,-4.4615,-4.4615,-4.4615,-4.3633,-4.2117,-4.4615,-4.4615,-4.4615,-4.4615,-4.4615,-4.4615,-4.4615,-4.4615,-4.4615,-4.4615,-4.4615,-4.4615,-4.4615,-4.4615,-4.4615,-4.4615,-4.4615,-4.4615,-4.4615,-4.4615,-4.4615,-4.4615,-4.4615,-4.4615,-4.4615,-4.4615,-4.4615,-4.4615,-4.4615,-4.4615,-4.4615,-4.4615,-4.4615,-4.4615,-4.4615,-4.4615,-4.4615,-4.4615,-4.4615,-4.4615,-4.4615,-4.4615,-4.4615,-4.4615,-4.4615,-4.4615,-4.4615,-4.4615,-4.4615,-4.4615,-4.4615,-4.4615,-4.4615,-4.4615,-4.4615,-4.4615,-4.4615,-4.4615,-4.4615,-4.4615,-4.4615,-4.4615,-4.4615,-4.4615,-4.4615,-4.4615,-4.4615,-4.4615,-4.4615,-4.4615,-4.4615,-4.4615,-4.4615,-4.4615,-4.4615,-4.4615,-4.4615,-4.4615,-4.4615,-4.4615,-4.4615,-4.4615,-4.4615,-4.4615,-4.4615,-4.4615,-4.4615,-4.4615,-4.4615,-4.4615,-4.4615,-4.4615,-4.4615,-4.4615,-4.4615,-4.4615,-4.4615,-4.4615,-4.4615,-4.4615,-4.4615,-4.4615,-4.4615,-4.4615,-4.4615,-4.4615,-4.4615,-4.4615,-4.4615,-4.4615,-4.4615,-4.4615,-4.4615,-4.4615,-4.3633,-4.2083,-4.4615,-4.4615,-4.4615,-4.4615,-4.4615,-4.4615,-4.4615,-4.4615,-4.4615,-4.4615,-4.4615,-4.4615,-4.4615,-4.4615,-4.4615,-4.4615,-4.4615,-4.4615,-4.4615,-4.4615,-4.4615,-4.4615,-4.4615,-4.4615,-4.4615,-4.4615,-4.4615,-4.4615,-4.4615,-4.4615,-4.4615,-4.4615,-4.4615,-4.4615,-4.4615,-4.4615,-4.4615,-4.4615,-4.4615,-4.4615,-4.4615,-4.4615,-4.4615,-4.4615,-4.4615,-4.4615,-4.4615,-4.4615,-4.4615,-4.4615,-4.4615,-4.4615,-4.4615,-4.4615,-4.4615,-4.4615,-4.4615,-4.4615,-4.4615,-4.4615,-4.4615,-4.4615,-4.4615,-4.4615,-4.4615,-4.4615,-4.4615,-4.4615,-4.4615,-4.4615,-4.4615,-4.4615,-4.4615,-4.4615,-4.4615,-4.4615,-4.4615,-4.4615,-4.4615,-4.4615,-4.4615,-4.4615,-4.4615,-4.4615,-4.4615,-4.4615,-4.4615,-4.4615,-4.4615,-4.4615,-4.4615,-4.4615,-4.4615,-4.4615,-4.4615,-4.4615,-4.4615,-4.4615,-4.4615,-4.4615,-4.4615,-4.4615,-4.4615,-4.4615,-4.4615,-4.4615,-4.4615,-4.4615,-4.4615,-4.4615,-4.4615,-4.4615,-4.4581,-4.431,-4.3413,-4.2083,-4.4615,-4.4615,-4.4615,-4.4615,-4.4615,-4.4615,-4.4615,-4.4615,-4.4615,-4.4615,-4.4615,-4.4615,-4.4615,-4.4615,-4.4615,-4.4615,-4.4615,-4.4615,-4.4615,-4.4615,-4.4615,-4.4615,-4.4615,-4.4615,-4.4615,-4.4615,-4.4615,-4.4615,-4.4615,-4.4615,-4.4615,-4.4615,-4.4615,-4.4615,-4.4615,-4.4615,-4.4615,-4.4615,-4.4615,-4.4615,-4.4615,-4.4615,-4.4615,-4.4615,-4.4615,-4.4615,-4.4615,-4.4615,-4.4615,-4.4615,-4.4615,-4.4615,-4.4615,-4.4615,-4.4615,-4.4615,-4.4615,-4.4615,-4.4615,-4.4615,-4.4615,-4.4615,-4.4615,-4.4615,-4.4615,-4.4615,-4.4615,-4.4615,-4.4615,-4.4615,-4.4615,-4.4615,-4.4615,-4.4615,-4.4615,-4.4615,-4.4615,-4.4615,-4.4615,-4.4615,-4.4615,-4.4615,-4.4615,-4.4615,-4.4615,-4.4615,-4.4615,-4.4615,-4.4615,-4.4615,-4.4615,-4.4615,-4.4615,-4.4615,-4.4615,-4.4615,-4.4615,-4.4615,-4.4615,-4.4615,-4.4615,-4.4615,-4.4615,-4.4615,-4.4615,-4.4615,-4.4615,-4.4615,-4.4615,-4.4615,-4.4615,-4.4615,-4.4445,-4.3108,-4.2472,-4.2083,-4.4615,-4.4615,-4.4615,-4.4615,-4.4615,-4.4615,-4.4615,-4.4615,-4.4615,-4.4615,-4.4615,-4.4615,-4.4615,-4.4615,-4.4615,-4.4615,-4.4615,-4.4615,-4.4615,-4.4615,-4.4615,-4.4615,-4.4615,-4.4615,-4.4615,-4.4615,-4.4615,-4.4615,-4.4615,-4.4615,-4.4615,-4.4615,-4.4615,-4.4615,-4.4615,-4.4615,-4.4615,-4.4615,-4.4615,-4.4615,-4.4615,-4.4615,-4.4615,-4.4615,-4.4615,-4.4615,-4.4615,-4.4615,-4.4615,-4.4615,-4.4615,-4.4615,-4.4615,-4.4615,-4.4615,-4.4615,-4.4615,-4.4615,-4.4615,-4.4615,-4.4615,-4.4615,-4.4615,-4.4615,-4.4615,-4.4615,-4.4615,-4.4615,-4.4615,-4.4615,-4.4615,-4.4615,-4.4615,-4.4615,-4.4615,-4.4615,-4.4615,-4.4615,-4.4615,-4.4615,-4.4615,-4.4615,-4.4615,-4.4615,-4.4615,-4.4615,-4.4615,-4.4615,-4.4615,-4.4615,-4.4615,-4.4615,-4.4615,-4.4615,-4.4615,-4.4615,-4.4615,-4.4615,-4.4615,-4.4615,-4.4615,-4.4615,-4.4615,-4.4615,-4.4615,-4.4615,-4.4615,-4.4615,-4.4615,-4.4615,-4.4615,-4.4344,-4.3809,-4.2692,-4.2033,-4.1473]},{"header":{"parameterUnit":"m.s-1","parameterCategory":1,"la1":30.6,"la2":28.766,"lo1":-90.7593,"lo2":-88.6598,"dy":0.0162,"dx":0.0183,"nx":116,"ny":114,"refTime":"2023-03-05T06:00:00:Z","depth":0,"parameterNumber":3,"parameterNumberName":"V-component_of_WINDS"},"data":[0.0,0.0,0.0,0.0,0.0,0.0,0.0,0.0,0.0,0.0,0.0,0.0,0.0,0.0,0.0,0.0,0.0,0.0,0.0,0.0,0.0,0.0,0.0,0.0,0.0,0.0,0.0,0.0,0.0,0.0,0.0,0.0,0.0,0.0,0.0,0.0,0.0,0.0,0.0,0.0,0.0,0.0,0.0,0.0,0.0,0.0,0.0,0.0,0.0,0.0,0.0,0.0,0.0,0.0,0.0,0.0,0.0,0.0,0.0,0.0,0.0,0.0,0.0,0.0,0.0,0.0,0.0,0.0,0.0,0.0,0.0,0.0,0.0,0.0,0.0,0.0,0.0,0.0,0.0,0.0,0.0,0.0,0.0,0.0,0.0,0.0,0.0,0.0,0.0,0.0,0.0,0.0,0.0,0.0,0.0,0.0,0.0,0.0,0.0,0.0,0.0,0.0,0.0,0.0,0.0,0.0,0.0,0.0,0.0,0.0,0.0,0.0,0.0,0.0,0.0,0.0,0.0,0.0,0.0,0.0,0.0,0.0,0.0,0.0,0.0,0.0,0.0,0.0,0.0,0.0,0.0,0.0,0.0,0.0,0.0,0.0,0.0,0.0,0.0,0.0,0.0,0.0,0.0,0.0,0.0,0.0,0.0,0.0,0.0,0.0,0.0,0.0,0.0,0.0,0.0,0.0,0.0,0.0,0.0,0.0,0.0,0.0,0.0,0.0,0.0,0.0,0.0,0.0,0.0,0.0,0.0,0.0,0.0,0.0,0.0,0.0,0.0,0.0,0.0,0.0,0.0,0.0,0.0,0.0,0.0,0.0,0.0,0.0,0.0,0.0,0.0,0.0,0.0,0.0,0.0,0.0,0.0,0.0,0.0,0.0,0.0,0.0,0.0,0.0,0.0,0.0,0.0,0.0,0.0,0.0,0.0,0.0,0.0,0.0,0.0,0.0,0.0,0.0,0.0,0.0,0.0,0.0,0.0,0.0,0.0,0.0,0.0,0.0,0.0,0.0,0.0,0.0,0.0,0.0,0.0,0.0,0.0,0.0,0.0,0.0,0.0,0.0,0.0,0.0,0.0,0.0,0.0,0.0,0.0,0.0,0.0,0.0,0.0,0.0,0.0,0.0,0.0,0.0,0.0,0.0,0.0,0.0,0.0,0.0,0.0,0.0,0.0,0.0,0.0,0.0,0.0,0.0,0.0,0.0,0.0,0.0,0.0,0.0,0.0,0.0,0.0,0.0,0.0,0.0,0.0,0.0,0.0,0.0,0.0,0.0,0.0,0.0,0.0,0.0,0.0,0.0,0.0,0.0,0.0,0.0,0.0,0.0,0.0,0.0,0.0,0.0,0.0,0.0,0.0,0.0,0.0,0.0,0.0,0.0,0.0,0.0,0.0,0.0,0.0,0.0,0.0,0.0,0.0,0.0,0.0,0.0,0.0,0.0,0.0,0.0,0.0,0.0,0.0,0.0,0.0,0.0,0.0,0.0,0.0,0.0,0.0,0.0,0.0,0.0,0.0,0.0,0.0,0.0,0.0,0.0,0.0,0.0,0.0,0.0,0.0,0.0,0.0,0.0,0.0,0.0,0.0,0.0,0.0,0.0,0.0,0.0,0.0,0.0,0.0,0.0,0.0,0.0,0.0,0.0,0.0,0.0,0.0,0.0,0.0,0.0,0.0,0.0,0.0,0.0,0.0,0.0,0.0,0.0,0.0,0.0,0.0,0.0,0.0,0.0,0.0,0.0,0.0,0.0,0.0,0.0,0.0,0.0,0.0,0.0,0.0,0.0,0.0,0.0,0.0,0.0,0.0,0.0,0.0,0.0,0.0,0.0,0.0,0.0,0.0,0.0,0.0,0.0,0.0,0.0,0.0,0.0,0.0,0.0,0.0,0.0,0.0,0.0,0.0,0.0,0.0,0.0,0.0,0.0,0.0,0.0,0.0,0.0,0.0,0.0,0.0,0.0,0.0,0.0,0.0,0.0,0.0,0.0,0.0,0.0,0.0,0.0,0.0,0.0,0.0,0.0,0.0,0.0,0.0,0.0,0.0,0.0,0.0,0.0,0.0,0.0,0.0,0.0,0.0,0.0,0.0,0.0,0.0,0.0,0.0,0.0,0.0,0.0,0.0,0.0,0.0,0.0,0.0,0.0,0.0,0.0,0.0,0.0,0.0,0.0,0.0,0.0,0.0,0.0,0.0,0.0,0.0,0.0,0.0,0.0,0.0,0.0,0.0,0.0,0.0,0.0,0.0,0.0,0.0,0.0,0.0,0.0,0.0,0.0,0.0,0.0,0.0,0.0,0.0,0.0,0.0,0.0,0.0,0.0,0.0,0.0,0.0,0.0,0.0,0.0,0.0,0.0,0.0,0.0,0.0,0.0,0.0,0.0,0.0,0.0,0.0,0.0,0.0,0.0,0.0,0.0,0.0,0.0,0.0,0.0,0.0,0.0,0.0,0.0,0.0,0.0,0.0,0.0,0.0,0.0,0.0,0.0,0.0,0.0,0.0,0.0,0.0,0.0,0.0,0.0,0.0,0.0,0.0,0.0,0.0,0.0,0.0,0.0,0.0,0.0,0.0,0.0,0.0,0.0,0.0,0.0,0.0,0.0,0.0,0.0,0.0,0.0,0.0,0.0,0.0,0.0,0.0,0.0,0.0,0.0,0.0,0.0,0.0,0.0,0.0,0.0,0.0,0.0,0.0,0.0,0.0,0.0,0.0,0.0,0.0,0.0,0.0,0.0,0.0,0.0,0.0,0.0,0.0,0.0,0.0,0.0,0.0,0.0,0.0,0.0,0.0,0.0,0.0,0.0,0.0,0.0,0.0,0.0,0.0,0.0,0.0,0.0,0.0,0.0,0.0,0.0,0.0,0.0,0.0,0.0,0.0,0.0,0.0,0.0,0.0,0.0,0.0,0.0,0.0,0.0,0.0,0.0,0.0,0.0,0.0,0.0,0.0,0.0,0.0,0.0,0.0,0.0,0.0,0.0,0.0,0.0,0.0,0.0,0.0,0.0,0.0,0.0,0.0,0.0,0.0,0.0,0.0,0.0,0.0,0.0,0.0,0.0,0.0,0.0,0.0,0.0,0.0,0.0,0.0,0.0,0.0,0.0,0.0,0.0,0.0,0.0,0.0,0.0,0.0,0.0,0.0,0.0,0.0,0.0,0.0,0.0,0.0,0.0,0.0,0.0,0.0,0.0,0.0,0.0,0.0,0.0,0.0,0.0,0.0,0.0,0.0,0.0,0.0,0.0,0.0,0.0,0.0,0.0,0.0,0.0,0.0,0.0,0.0,0.0,0.0,0.0,0.0,0.0,0.0,0.0,0.0,0.0,0.0,0.0,0.0,0.0,0.0,0.0,0.0,0.0,0.0,0.0,0.0,0.0,0.0,0.0,0.0,0.0,0.0,0.0,0.0,0.0,0.0,0.0,0.0,0.0,0.0,0.0,0.0,0.0,0.0,0.0,0.0,0.0,0.0,0.0,0.0,0.0,0.0,0.0,0.0,0.0,0.0,0.0,0.0,0.0,0.0,0.0,0.0,0.0,0.0,0.0,0.0,0.0,0.0,0.0,0.0,0.0,0.0,0.0,0.0,0.0,0.0,0.0,0.0,0.0,0.0,0.0,0.0,0.0,0.0,0.0,0.0,0.0,0.0,0.0,0.0,0.0,0.0,0.0,0.0,0.0,0.0,0.0,0.0,0.0,0.0,0.0,0.0,0.0,0.0,0.0,0.0,0.0,0.0,0.0,0.0,0.0,0.0,0.0,0.0,0.0,0.0,0.0,0.0,0.0,0.0,0.0,0.0,0.0,0.0,0.0,0.0,0.0,0.0,0.0,0.0,0.0,0.0,0.0,0.0,0.0,0.0,0.0,0.0,0.0,0.0,0.0,0.0,0.0,0.0,0.0,0.0,0.0,0.0,0.0,0.0,0.0,0.0,0.0,0.0,0.0,0.0,0.0,0.0,0.0,0.0,0.0,0.0,0.0,0.0,0.0,0.0,0.0,0.0,0.0,0.0,0.0,0.0,0.0,0.0,0.0,0.0,0.0,0.0,0.0,0.0,0.0,0.0,0.0,0.0,0.0,0.0,0.0,0.0,0.0,0.0,0.0,0.0,0.0,0.0,0.0,0.0,0.0,0.0,0.0,0.0,0.0,0.0,0.0,0.0,0.0,0.0,0.0,0.0,0.0,0.0,0.0,0.0,0.0,0.0,0.0,0.0,0.0,0.0,0.0,0.0,0.0,0.0,0.0,0.0,0.0,0.0,0.0,0.0,0.0,0.0,0.0,0.0,0.0,0.0,0.0,0.0,0.0,0.0,0.0,0.0,0.0,0.0,0.0,0.0,0.0,0.0,0.0,0.0,0.0,0.0,0.0,0.0,0.0,0.0,0.0,0.0,0.0,0.0,0.0,0.0,0.0,0.0,0.0,0.0,0.0,0.0,0.0,0.0,0.0,0.0,0.0,0.0,0.0,0.0,0.0,0.0,0.0,0.0,0.0,0.0,0.0,0.0,0.0,0.0,0.0,0.0,0.0,0.0,0.0,0.0,0.0,0.0,0.0,0.0,0.0,0.0,0.0,0.0,0.0,0.0,0.0,0.0,0.0,0.0,0.0,0.0,0.0,0.0,0.0,0.0,0.0,0.0,0.0,0.0,0.0,0.0,0.0,0.0,0.0,0.0,0.0,0.0,0.0,0.0,0.0,0.0,0.0,0.0,0.0,0.0,0.0,0.0,0.0,0.0,0.0,0.0,0.0,0.0,0.0,0.0,0.0,0.0,0.0,0.0,0.0,0.0,0.0,0.0,0.0,0.0,0.0,0.0,0.0,0.0,0.0,0.0,0.0,0.0,0.0,0.0,0.0,0.0,0.0,0.0,0.0,0.0,0.0,0.0,0.0,0.0,0.0,0.0,0.0,0.0,0.0,0.0,0.0,0.0,0.0,0.0,0.0,0.0,0.0,0.0,0.0,0.0,0.0,0.0,0.0,0.0,0.0,0.0,0.0,0.0,0.0,0.0,0.0,0.0,0.0,0.0,0.0,0.0,0.0,0.0,0.0,0.0,0.0,0.0,0.0,0.0,0.0,0.0,0.0,0.0,0.0,0.0,0.0,0.0,0.0,0.0,0.0,0.0,0.0,0.0,0.0,0.0,0.0,0.0,0.0,0.0,0.0,0.0,0.0,0.0,0.0,0.0,0.0,0.0,0.0,0.0,0.0,0.0,0.0,0.0,0.0,0.0,0.0,0.0,0.0,0.0,0.0,0.0,0.0,0.0,0.0,0.0,0.0,0.0,0.0,0.0,0.0,0.0,0.0,0.0,0.0,0.0,0.0,0.0,0.0,0.0,0.0,0.0,0.0,0.0,0.0,0.0,0.0,0.0,0.0,0.0,0.0,0.0,0.0,0.0,0.0,0.0,0.0,0.0,0.0,0.0,0.0,0.0,0.0,0.0,0.0,0.0,0.0,0.0,0.0,0.0,0.0,0.0,0.0,0.0,0.0,0.0,0.0,0.0,0.0,0.0,0.0,0.0,0.0,0.0,0.0,0.0,0.0,0.0,0.0,0.0,0.0,0.0,0.0,0.0,0.0,0.0,0.0,0.0,0.0,0.0,0.0,0.0,0.0,0.0,0.0,0.0,0.0,0.0,0.0,0.0,0.0,0.0,0.0,0.0,0.0,0.0,0.0,0.0,0.0,0.0,0.0,0.0,0.0,0.0,0.0,0.0,0.0,0.0,0.0,0.0,0.0,0.0,0.0,0.0,0.0,0.0,0.0,0.0,0.0,0.0,0.0,0.0,0.0,0.0,0.0,0.0,0.0,0.0,0.0,0.0,0.0,0.0,0.0,0.0,0.0,0.0,0.0,0.0,0.0,0.0,0.0,0.0,0.0,0.0,0.0,0.0,0.0,0.0,0.0,0.0,0.0,0.0,0.0,0.0,0.0,0.0,0.0,0.0,0.0,0.0,0.0,0.0,0.0,0.0,0.0,0.0,0.0,0.0,0.0,0.0,0.0,0.0,0.0,0.0,0.0,0.0,0.0,0.0,0.0,0.0,0.0,0.0,0.0,0.0,0.0,0.0,0.0,0.0,0.0,0.8172,0.0,0.0,0.0,0.0,0.0,0.0,0.0,0.0,0.0,0.0,0.0,0.0,0.0,0.0,0.0,0.0,0.0,0.0,0.0,0.0,0.0,0.0,0.0,0.0,0.0,0.0,0.0,0.0,0.0,0.0,0.0,0.0,0.0,0.0,0.0,0.0,0.0,0.0,0.0,0.0,0.0,0.0,0.0,0.0,0.0,0.0,0.0,0.0,0.0,0.0,0.0,0.0,0.0,0.0,0.0,0.0,0.0,0.0,0.0,0.0,0.0,0.0,0.0,0.0,0.0,0.0,0.0,0.0,0.0,0.0,0.0,0.0,0.0,0.0,0.0,0.0,0.0,0.0,0.0,0.0,0.0,0.0,0.0,0.0,0.0,0.0,0.0,0.0,0.0,0.0,0.0,0.0,0.0,0.0,0.0,0.0,0.0,0.0,0.0,0.0,0.0,0.0,0.0,0.0,0.0,0.0,0.0,0.0,0.0,0.0,0.0,0.0,0.0,0.0,0.0,0.0,0.8405,0.0,0.0,0.0,0.0,0.0,0.0,0.0,0.0,0.0,0.0,0.0,0.0,0.0,0.0,0.0,0.0,0.0,0.0,0.0,0.0,0.0,0.0,0.0,0.0,0.0,0.0,0.0,0.0,0.0,0.0,0.0,0.0,0.0,0.0,0.0,0.0,0.0,0.0,0.0,0.0,0.0,0.0,0.0,0.0,0.0,0.0,0.0,0.0,0.0,0.0,0.0,0.0,0.0,0.0,0.0,0.0,0.0,0.0,0.0,0.0,0.0,0.0,0.0,0.0,0.0,0.0,0.0,0.0,0.0,0.0,0.0,0.0,0.0,0.0,0.0,0.0,0.0,0.0,0.0,0.0,0.0,0.0,0.0,0.0,0.0,0.0,0.0,0.0,0.0,0.0,0.0,0.0,0.0,0.0,0.0,0.0,0.0,0.0,0.0,0.0,0.0,0.0,0.0,0.0,0.0,0.0,0.0,0.0,0.8479,0.853,0.8575,0.8575,0.8694,0.8915,0.869,0.8846,0.9257,0.8718,0.0,0.0,0.0,0.0,0.0,0.0,0.0,0.0,0.0,0.0,0.0,0.0,0.0,0.0,0.0,0.0,0.0,0.0,0.0,0.0,0.0,0.0,0.0,0.0,0.0,0.0,0.0,0.0,0.0,0.0,0.0,0.0,0.0,0.0,0.0,0.0,0.0,0.0,0.5772,0.5772,0.5752,0.5708,0.0,0.0,0.0,0.0,0.0,0.0,0.0,0.0,0.0,0.0,0.0,0.0,0.0,0.0,0.0,0.0,0.0,0.0,0.0,0.0,0.0,0.0,0.0,0.0,0.0,0.0,0.0,0.0,0.0,0.0,0.0,0.0,0.0,0.0,0.0,0.0,0.0,0.0,0.0,0.0,0.0,0.0,0.0,0.0,0.7846,0.7846,0.0,0.0,0.0,0.0,0.0,0.0,0.0,0.0,0.0,0.0,0.0,0.0,0.0,0.5382,0.5426,0.609,0.6571,0.6885,0.7173,0.7431,0.7682,0.7682,0.7747,0.7883,0.772,0.0,0.961,0.9121,0.0,0.0,0.0,0.0,0.0,0.0,0.0,0.0,0.0,0.0,0.0,0.0,0.0,0.0,0.0,0.0,0.0,0.0,0.0,0.0,0.0,0.0,0.0,0.0,0.0,0.0,0.0,0.0,0.0,0.0,0.0,0.0,0.0,0.0,0.0,0.0,0.5845,0.6012,0.6206,0.6206,0.6293,0.6434,0.6587,0.6405,0.5976,0.5976,0.0,0.0,0.0,0.0,0.0,0.0,0.0,0.0,0.0,0.0,0.0,0.0,0.0,0.0,0.0,0.0,0.0,0.0,0.0,0.0,0.0,0.0,0.0,0.0,0.0,0.0,0.0,0.0,0.0,0.0,0.0,0.0,0.0,0.0,0.0,0.0,0.0,0.0,0.0,0.7736,0.7756,0.7325,0.7122,0.6864,0.0,0.0,0.0,0.0,0.0,0.0,0.0,0.0,0.0,0.6062,0.5987,0.6084,0.6367,0.6731,0.6995,0.7097,0.7257,0.7384,0.7512,0.7512,0.7529,0.7587,0.7519,0.7868,0.8428,0.8071,0.7351,0.6426,0.0,0.0,0.0,0.0,0.6312,0.6777,0.0,0.0,0.0,0.0,0.0,0.0,0.0,0.0,0.0,0.0,0.0,0.0,0.0,0.0,0.0,0.6043,0.0,0.0,0.0,0.0,0.0,0.0,0.0,0.0,0.0,0.0,0.0,0.0,0.5792,0.6052,0.6499,0.6499,0.6613,0.68,0.68,0.6607,0.6303,0.6303,0.6303,0.0,0.0,0.0,0.0,0.0,0.0,0.0,0.0,0.0,0.0,0.0,0.0,0.0,0.0,0.0,0.0,0.0,0.0,0.0,0.0,0.0,0.0,0.0,0.0,0.0,0.0,0.0,0.0,0.0,0.0,0.0,0.0,0.0,0.0,0.0,0.0,0.0,0.0,0.7824,0.7672,0.7086,0.6956,0.6649,0.0,0.0,0.0,0.0,0.0,0.0,0.5473,0.549,0.5623,0.5839,0.6013,0.6323,0.6721,0.6721,0.6721,0.6721,0.6721,0.6721,0.6721,0.6721,0.6754,0.6772,0.6744,0.6754,0.6797,0.7073,0.6735,0.596,0.5725,0.5286,0.4897,0.615,0.6723,0.7074,0.0,0.0,0.0,0.0,0.0,0.0,0.0,0.0,0.0,0.0,0.0,0.0,0.0,0.0,0.5701,0.5714,0.5701,0.5598,0.0,0.0,0.0,0.0,0.0,0.0,0.0,0.0,0.0,0.5694,0.6017,0.6189,0.6216,0.6216,0.6223,0.6236,0.6236,0.6377,0.6586,0.6586,0.6586,0.6559,0.0,0.0,0.0,0.0,0.0,0.0,0.0,0.0,0.0,0.0,0.0,0.0,0.0,0.0,0.0,0.0,0.0,0.0,0.0,0.0,0.0,0.0,0.0,0.0,0.0,0.0,0.0,0.0,0.0,0.0,0.0,0.0,0.0,0.0,0.0,0.0,0.0,0.0,0.0,0.7685,0.6605,0.0,0.0,0.0,0.0,0.6094,0.5012,0.5088,0.6905,0.5563,0.5149,0.5968,0.5222,0.4759,0.465,0.465,0.465,0.465,0.465,0.465,0.465,0.465,0.4731,0.4836,0.4713,0.4734,0.4973,0.6763,0.689,0.5988,0.598,0.575,0.5542,0.6312,0.7047,0.775,0.0,0.0,0.0,0.0,0.0,0.0,0.0,0.0,0.0,0.0,0.0,0.0,0.0,0.6017,0.6017,0.6017,0.5825,0.5654,0.5564,0.0,0.0,0.0,0.0,0.0,0.0,0.0,0.5805,0.6017,0.6142,0.629,0.6452,0.6452,0.6553,0.6713,0.6713,0.6767,0.6867,0.6867,0.6867,0.684,0.6754,0.6667,0.0,0.0,0.0,0.0,0.0,0.0,0.0,0.0,0.0,0.0,0.0,0.0,0.0,0.0,0.0,0.0,0.0,0.0,0.0,0.0,0.0,0.0,0.0,0.0,0.0,0.0,0.0,0.0,0.0,0.0,0.0,0.0,0.0,0.0,0.0,0.0,0.0,0.6431,0.6182,0.0,0.5294,0.4808,0.4681,0.5085,0.4746,0.4783,0.5401,0.4878,0.471,0.5018,0.4738,0.4545,0.4491,0.4491,0.4491,0.4491,0.4491,0.4491,0.4491,0.4491,0.4518,0.4569,0.4511,0.4522,0.4629,0.5301,0.5345,0.5039,0.5039,0.5219,0.5597,0.634,0.7074,0.7803,0.0,0.0,0.0,0.0,0.0,0.0,0.0,0.0,0.0,0.0,0.0,0.5825,0.6162,0.6102,0.6023,0.6023,0.5825,0.5671,0.5571,0.0,0.0,0.0,0.0,0.0,0.0,0.5812,0.6023,0.6337,0.6337,0.6526,0.6908,0.6908,0.7041,0.7306,0.7306,0.7246,0.7168,0.7168,0.7168,0.7161,0.704,0.6967,0.6874,0.0,0.0,0.0,0.0,0.0,0.0,0.0,0.0,0.0,0.0,0.0,0.0,0.0,0.0,0.0,0.0,0.0,0.0,0.0,0.0,0.0,0.0,0.0,0.0,0.0,0.0,0.0,0.0,0.0,0.0,0.0,0.0,0.0,0.0,0.0,0.6858,0.5777,0.5755,0.5513,0.4722,0.466,0.4655,0.4501,0.4586,0.4597,0.4494,0.4491,0.4491,0.4491,0.4491,0.4491,0.4491,0.4491,0.4491,0.4491,0.4491,0.4491,0.4491,0.4491,0.4491,0.4491,0.4491,0.4491,0.4491,0.4491,0.4491,0.4491,0.4491,0.4759,0.5246,0.5955,0.6524,0.7063,0.0,0.0,0.0,0.0,0.0,0.0,0.0,0.0,0.0,0.0,0.5701,0.5825,0.6162,0.5909,0.5694,0.5681,0.5681,0.5578,0.5313,0.5544,0.0,0.0,0.0,0.0,0.5721,0.6043,0.635,0.6633,0.6633,0.6935,0.7504,0.7504,0.7642,0.7905,0.7905,0.7762,0.7504,0.7504,0.7504,0.7477,0.7141,0.7194,0.7444,0.0,0.0,0.0,0.0,0.0,0.0,0.0,0.0,0.0,0.0,0.0,0.0,0.0,0.0,0.0,0.0,0.0,0.0,0.0,0.0,0.0,0.0,0.0,0.0,0.0,0.0,0.0,0.0,0.0,0.0,0.0,0.0,0.0,0.8398,0.7882,0.707,0.5947,0.5399,0.4975,0.4567,0.4627,0.4651,0.4501,0.4491,0.4491,0.4491,0.4491,0.4491,0.4491,0.4491,0.4491,0.4491,0.4491,0.4491,0.4498,0.4498,0.4498,0.4505,0.4505,0.4505,0.4505,0.4505,0.4505,0.4505,0.4505,0.4505,0.4505,0.4494,0.4519,0.4598,0.5273,0.5515,0.5651,0.0,0.0,0.0,0.0,0.0,0.0,0.0,0.0,0.0,0.0,0.5845,0.5825,0.6162,0.5909,0.5631,0.5434,0.5414,0.538,0.53,0.0,0.0,0.0,0.0,0.0,0.6339,0.6445,0.674,0.7249,0.7249,0.7444,0.7779,0.7779,0.7826,0.7905,0.7905,0.7859,0.7779,0.7779,0.7779,0.7732,0.7213,0.7046,0.7134,0.0,0.0,0.0,0.0,0.0,0.0,0.0,0.0,0.0,0.0,0.0,0.0,0.0,0.0,0.0,0.0,0.0,0.0,0.0,0.0,0.0,0.0,0.0,0.0,0.0,0.0,0.0,0.0,0.0,0.0,0.0,0.0,0.9057,0.7919,0.7619,0.7145,0.6205,0.5813,0.5572,0.5458,0.49,0.4535,0.4494,0.4491,0.4491,0.4491,0.4491,0.4491,0.4491,0.4491,0.4491,0.4491,0.4491,0.4545,0.4655,0.4655,0.4684,0.4796,0.4796,0.4796,0.4796,0.4796,0.4796,0.4796,0.4796,0.4796,0.4772,0.4576,0.4787,0.5246,0.5433,0.5842,0.6394,0.0,0.0,0.0,0.0,0.0,0.0,0.0,0.0,0.0,0.0,0.5809,0.5708,0.6149,0.5802,0.5464,0.5313,0.5293,0.5293,0.5293,0.0,0.0,0.0,0.0,0.6239,0.66,0.6854,0.7142,0.7513,0.7618,0.7816,0.8116,0.8116,0.8183,0.8272,0.8272,0.8205,0.8116,0.8116,0.8019,0.7872,0.7526,0.7306,0.7194,0.7046,0.7128,0.7281,0.7281,0.7383,0.7513,0.7513,0.0,0.0,0.0,0.0,0.0,0.0,0.0,0.0,0.0,0.0,0.0,0.0,0.0,0.0,0.0,0.0,0.0,0.0,0.0,0.0,0.0,0.0,0.0,0.0,0.9061,0.8938,0.7603,0.7669,0.7421,0.6185,0.5898,0.5657,0.5301,0.479,0.4491,0.4491,0.4491,0.4491,0.4491,0.4491,0.4491,0.4491,0.4552,0.4586,0.4586,0.4651,0.4697,0.4785,0.4785,0.4833,0.4887,0.4887,0.4887,0.0,0.4887,0.4887,0.4887,0.4887,0.4887,0.0,0.0,0.0,0.0,0.0,0.5531,0.5991,0.0,0.0,0.0,0.0,0.0,0.0,0.0,0.0,0.0,0.0,0.0,0.5568,0.6176,0.5746,0.538,0.5347,0.5347,0.5347,0.0,0.0,0.0,0.5788,0.6313,0.664,0.6707,0.7223,0.7547,0.7591,0.7849,0.8136,0.8449,0.8449,0.8564,0.8804,0.8804,0.8664,0.8449,0.8449,0.827,0.7999,0.7972,0.7796,0.7511,0.7181,0.7073,0.71,0.706,0.7241,0.7513,0.7513,0.0,0.0,0.0,0.0,0.0,0.0,0.0,0.0,0.0,0.0,0.0,0.0,0.0,0.0,0.0,0.0,0.0,0.0,0.0,0.0,0.0,0.0,0.0,0.0,0.8657,0.8433,0.7432,0.7821,0.7589,0.599,0.578,0.545,0.4691,0.4546,0.4491,0.4491,0.4505,0.4515,0.4515,0.0,0.0,0.0,0.0,0.4718,0.4718,0.485,0.4897,0.4914,0.4914,0.4921,0.4969,0.4969,0.4969,0.4969,0.4969,0.4969,0.4969,0.4969,0.4969,0.4965,0.4901,0.4887,0.4887,0.4887,0.4887,0.5039,0.0,0.0,0.0,0.0,0.0,0.0,0.0,0.0,0.0,0.617,0.5863,0.5852,0.6459,0.623,0.5927,0.5651,0.5631,0.5631,0.0,0.0,0.5925,0.64,0.6546,0.6834,0.731,0.743,0.7732,0.8228,0.8288,0.8437,0.8724,0.8724,0.8751,0.8804,0.8804,0.8778,0.8724,0.8724,0.8691,0.8617,0.8383,0.811,0.7779,0.7517,0.7535,0.7699,0.7468,0.7437,0.7513,0.7513,0.7348,0.7166,0.7106,0.0,0.0,0.0,0.0,0.0,0.0,0.0,0.0,0.0,0.0,0.0,0.0,0.0,0.0,0.0,0.0,0.0,0.0,0.0,0.0,0.769,0.7568,0.7375,0.7156,0.702,0.6648,0.5898,0.5662,0.5502,0.5328,0.4814,0.4491,0.4491,0.4604,0.4646,0.4646,0.4765,0.483,0.483,0.486,0.4874,0.4874,0.4874,0.4945,0.5059,0.0,0.0,0.531,0.531,0.531,0.531,0.531,0.531,0.531,0.531,0.531,0.5283,0.5013,0.4887,0.4887,0.4887,0.4887,0.5097,0.0,0.0,0.0,0.0,0.0,0.0,0.0,0.0,0.0,0.0,0.5807,0.5665,0.6106,0.5909,0.5675,0.5504,0.5498,0.0,0.0,0.5852,0.6151,0.6593,0.6894,0.7189,0.7506,0.7785,0.8094,0.8402,0.8543,0.8664,0.8804,0.8804,0.8804,0.8804,0.8804,0.8804,0.8804,0.8804,0.8804,0.8791,0.8651,0.8504,0.8298,0.7869,0.7772,0.7866,0.7598,0.7591,0.7675,0.7544,0.7468,0.7453,0.7453,0.7666,0.7905,0.0,0.0,0.0,0.0,0.0,0.0,0.0,0.0,0.0,0.0,0.0,0.0,0.0,0.0,0.7537,0.0,0.0,0.6938,0.7245,0.687,0.654,0.6459,0.598,0.57,0.5788,0.5717,0.5526,0.5222,0.489,0.4691,0.4691,0.4762,0.4806,0.4806,0.4877,0.4887,0.4887,0.4958,0.4992,0.4992,0.5101,0.5176,0.5247,0.5247,0.5287,0.5395,0.5395,0.5395,0.5395,0.5395,0.5395,0.5395,0.5395,0.5395,0.5382,0.5231,0.5142,0.5142,0.5142,0.542,0.5978,0.0,0.0,0.0,0.0,0.0,0.0,0.0,0.0,0.0,0.0,0.0,0.5677,0.5896,0.5718,0.5538,0.0,0.0,0.0,0.0,0.6043,0.635,0.666,0.7203,0.7517,0.7578,0.812,0.8429,0.8482,0.8691,0.8804,0.8804,0.8804,0.8804,0.8804,0.8804,0.8804,0.8804,0.8804,0.8804,0.8804,0.8804,0.8804,0.8751,0.8192,0.7959,0.7866,0.7598,0.7651,0.7772,0.7504,0.7622,0.7899,0.7832,0.7939,0.8112,0.8348,0.8482,0.0,0.0,0.0,0.0,0.0,0.0,0.0,0.0,0.0,0.8849,0.7894,0.7538,0.7405,0.7488,0.676,0.6336,0.6827,0.6248,0.5723,0.5649,0.5108,0.4976,0.5584,0.5648,0.5424,0.4938,0.4887,0.4887,0.4887,0.4914,0.4928,0.4928,0.4989,0.5006,0.5006,0.5114,0.5143,0.5143,0.533,0.5395,0.5395,0.5395,0.5395,0.5395,0.5395,0.5412,0.544,0.547,0.5481,0.5481,0.5481,0.5481,0.5481,0.5481,0.5481,0.5474,0.5416,0.5848,0.656,0.0,0.0,0.0,0.0,0.0,0.0,0.0,0.0,0.0,0.0,0.0,0.0,0.0,0.0,0.0,0.0,0.0,0.0,0.6109,0.6176,0.6419,0.6926,0.731,0.7618,0.7852,0.8203,0.8529,0.8758,0.8791,0.8804,0.8804,0.8804,0.8804,0.8804,0.8804,0.8804,0.8804,0.8804,0.8804,0.8804,0.8804,0.8804,0.8771,0.845,0.8163,0.7866,0.7598,0.7511,0.7497,0.7174,0.7433,0.7859,0.7631,0.807,0.8664,0.8462,0.0,0.9071,0.8871,0.8991,0.9277,0.9566,0.9633,0.9699,0.0,0.0,0.8776,0.8528,0.8026,0.7614,0.7514,0.6676,0.6088,0.6257,0.5475,0.4881,0.4991,0.4924,0.4938,0.5158,0.5061,0.4958,0.4918,0.4887,0.4887,0.4887,0.5005,0.5076,0.5076,0.5237,0.5344,0.5344,0.5361,0.5368,0.5368,0.5385,0.5395,0.5395,0.5395,0.5395,0.5395,0.5395,0.547,0.5569,0.5698,0.5752,0.5752,0.5752,0.5752,0.5752,0.5752,0.5752,0.5722,0.5491,0.5458,0.5653,0.0,0.0,0.0,0.0,0.0,0.0,0.0,0.0,0.0,0.0,0.0,0.0,0.0,0.0,0.0,0.0,0.0,0.0,0.5903,0.6238,0.6539,0.676,0.7236,0.7551,0.7662,0.8154,0.8456,0.8557,0.8724,0.8804,0.8804,0.8804,0.8804,0.8804,0.8804,0.8804,0.8804,0.8804,0.8804,0.8804,0.8804,0.8704,0.8569,0.8449,0.81,0.7642,0.7538,0.7513,0.0,0.0,0.7569,0.7912,0.8007,0.837,0.8784,0.8664,0.8798,0.0,0.9259,0.9406,0.9526,0.9653,0.9715,0.9673,0.959,0.9305,0.908,0.9224,0.8628,0.8082,0.7936,0.7146,0.6573,0.0,0.6371,0.6198,0.6498,0.6088,0.5845,0.6008,0.5528,0.5176,0.5176,0.5176,0.5176,0.5176,0.5233,0.5267,0.5267,0.5358,0.5395,0.5395,0.5395,0.5395,0.5395,0.5395,0.5395,0.5395,0.5484,0.5528,0.5532,0.5614,0.565,0.5718,0.5776,0.58,0.58,0.58,0.58,0.58,0.58,0.58,0.5786,0.5664,0.596,0.6441,0.0,0.0,0.0,0.0,0.0,0.0,0.0,0.0,0.0,0.0,0.0,0.0,0.0,0.0,0.0,0.0,0.0,0.0,0.0,0.6152,0.646,0.67,0.7136,0.7404,0.7491,0.8007,0.825,0.825,0.8464,0.8538,0.8538,0.8538,0.8611,0.8691,0.8691,0.8731,0.8804,0.8717,0.8691,0.8684,0.8597,0.8437,0.8243,0.8181,0.7873,0.7513,0.7513,0.7513,0.0,0.0,0.7729,0.809,0.8335,0.8571,0.8804,0.8804,0.8804,0.8918,0.9426,0.9559,0.9579,0.9688,0.9715,0.9606,0.9277,0.9097,0.9028,0.9136,0.8536,0.7948,0.7795,0.7243,0.6887,0.7128,0.7148,0.7214,0.7399,0.6867,0.6446,0.6351,0.5782,0.5395,0.5395,0.5395,0.5395,0.5395,0.5395,0.5395,0.5395,0.5395,0.5395,0.5395,0.5395,0.5416,0.5457,0.5457,0.5477,0.5518,0.5596,0.5647,0.5654,0.5796,0.5864,0.5867,0.5908,0.5928,0.5928,0.5928,0.5928,0.5928,0.5928,0.5928,0.5928,0.5928,0.627,0.6793,0.0,0.0,0.0,0.0,0.0,0.0,0.0,0.0,0.0,0.0,0.0,0.0,0.0,0.0,0.0,0.0,0.0,0.0,0.0,0.5892,0.6101,0.6953,0.7006,0.7168,0.7506,0.7782,0.7919,0.7919,0.7925,0.7932,0.7932,0.7932,0.811,0.8415,0.8415,0.8569,0.8791,0.8536,0.8415,0.8389,0.8052,0.7925,0.7885,0.7631,0.7527,0.7513,0.7513,0.0,0.0,0.0,0.7886,0.8389,0.8395,0.8571,0.0,0.8804,0.8804,0.0,0.0,0.0,0.9291,0.9613,0.9715,0.9606,0.9277,0.8814,0.8299,0.7847,0.7328,0.6877,0.6693,0.6625,0.6761,0.7214,0.7309,0.7163,0.6785,0.6711,0.6392,0.5524,0.5428,0.5395,0.0,0.5395,0.5395,0.5395,0.5395,0.5395,0.5395,0.5395,0.5395,0.5395,0.5395,0.5467,0.5583,0.5583,0.565,0.5786,0.5793,0.5793,0.58,0.5915,0.5986,0.5993,0.6218,0.6286,0.6286,0.6286,0.6286,0.6286,0.6286,0.6286,0.6286,0.6286,0.6095,0.5979,0.0,0.0,0.0,0.0,0.0,0.0,0.0,0.0,0.0,0.0,0.0,0.0,0.0,0.0,0.0,0.0,0.0,0.0,0.0,0.6442,0.6635,0.6485,0.6814,0.7046,0.7168,0.7468,0.7645,0.7645,0.7806,0.7905,0.7905,0.7905,0.7959,0.8076,0.8076,0.8105,0.8192,0.8099,0.8076,0.809,0.8183,0.7983,0.7635,0.7736,0.7522,0.7168,0.0,0.0,0.0,0.0,0.0,0.0,0.8664,0.0,0.0,0.8864,0.0,0.0,0.0,0.0,0.9237,0.9337,0.9357,0.9284,0.8991,0.8808,0.8624,0.8466,0.8284,0.8153,0.8062,0.8049,0.8248,0.8817,0.8416,0.8116,0.8382,0.7437,0.6588,0.6297,0.5752,0.0,0.0,0.0,0.0,0.5395,0.5395,0.5395,0.5395,0.5395,0.5395,0.5395,0.5494,0.5538,0.5589,0.5684,0.5752,0.5803,0.5905,0.6006,0.6146,0.6159,0.6183,0.6186,0.6276,0.63,0.63,0.63,0.63,0.63,0.63,0.63,0.63,0.63,0.6649,0.7185,0.0,0.0,0.0,0.0,0.0,0.0,0.0,0.0,0.0,0.0,0.0,0.0,0.0,0.0,0.0,0.0,0.0,0.0,0.0,0.0,0.664,0.6421,0.649,0.6587,0.6713,0.7022,0.7176,0.7176,0.7562,0.7769,0.7769,0.7852,0.7905,0.7912,0.8019,0.8005,0.7905,0.7905,0.7846,0.7776,0.7856,0.7655,0.735,0.7506,0.7339,0.0,0.0,0.0,0.0,0.0,0.0,0.0,0.0,0.0,0.0,0.0,0.0,0.0,0.0,0.9138,0.9084,0.9184,0.9131,0.9011,0.8851,0.8804,0.8804,0.8804,0.8804,0.8725,0.8454,0.8401,0.8498,0.8788,0.8358,0.8234,0.8889,0.8012,0.7315,0.7315,0.6826,0.6307,0.0,0.0,0.0,0.5428,0.5395,0.5395,0.5395,0.5446,0.5477,0.5477,0.5589,0.5691,0.5745,0.5837,0.5911,0.5966,0.6064,0.6166,0.63,0.63,0.63,0.63,0.63,0.63,0.63,0.63,0.63,0.63,0.63,0.63,0.6338,0.6718,0.7253,0.7859,0.0,0.0,0.0,0.0,0.0,0.0,0.0,0.0,0.0,0.0,0.0,0.0,0.0,0.0,0.0,0.0,0.0,0.0,0.0,0.0,0.0,0.6773,0.6128,0.59,0.6226,0.6478,0.6606,0.6606,0.7182,0.7464,0.7471,0.7742,0.7859,0.7872,0.8176,0.815,0.7859,0.7859,0.7709,0.7444,0.7154,0.7013,0.7,0.702,0.0,0.0,0.0,0.0,0.0,0.0,0.0,0.0,0.0,0.0,0.0,0.0,0.0,0.8831,0.909,0.8991,0.8871,0.9124,0.8984,0.8804,0.8804,0.8804,0.8778,0.8752,0.8752,0.8507,0.0,0.0,0.7647,0.7379,0.7349,0.7624,0.8351,0.8405,0.8376,0.0,0.0,0.0,0.0,0.0,0.0,0.5472,0.0,0.5399,0.5405,0.5545,0.5593,0.5599,0.5739,0.5881,0.599,0.6,0.6115,0.63,0.63,0.63,0.63,0.63,0.63,0.63,0.63,0.63,0.63,0.63,0.63,0.63,0.63,0.63,0.6416,0.7365,0.7783,0.8008,0.0,0.0,0.0,0.0,0.0,0.0,0.0,0.0,0.0,0.0,0.0,0.0,0.0,0.0,0.0,0.0,0.0,0.0,0.0,0.0,0.0,0.0,0.0,0.0,0.0,0.0,0.0,0.0,0.0,0.7134,0.7134,0.7193,0.7233,0.7239,0.7313,0.7299,0.7233,0.7233,0.7186,0.7148,0.0,0.7221,0.7026,0.0,0.0,0.0,0.0,0.0,0.0,0.0,0.0,0.0,0.0,0.9083,0.872,0.0,0.0,0.8435,0.879,0.8864,0.8824,0.8898,0.8864,0.8804,0.8804,0.8804,0.8646,0.8103,0.799,0.775,0.0,0.0,0.0,0.7983,0.8215,0.0,0.9013,0.8505,0.0,0.8371,0.0,0.7723,0.6789,0.6687,0.0,0.0,0.546,0.5443,0.5559,0.5569,0.5637,0.5745,0.5891,0.5952,0.5993,0.6142,0.6259,0.63,0.63,0.63,0.63,0.63,0.63,0.63,0.63,0.63,0.63,0.63,0.63,0.63,0.63,0.63,0.6338,0.6606,0.7633,0.8955,0.0,0.0,0.0,0.0,0.0,0.0,0.0,0.0,0.0,0.0,0.0,0.0,0.0,0.0,0.0,0.0,0.0,0.0,0.0,0.0,0.0,0.0,0.0,0.0,0.0,0.0,0.0,0.0,0.0,0.0,0.0,0.7273,0.7326,0.7221,0.7339,0.7253,0.7006,0.0,0.0,0.0,0.0,0.0,0.0,0.0,0.0,0.0,0.0,0.0,0.0,0.0,0.0,0.9466,0.9633,0.9418,0.9092,0.9185,0.0,0.8675,0.8778,0.8804,0.8804,0.8804,0.8804,0.8804,0.8804,0.8804,0.8672,0.8268,0.8182,0.7963,0.7208,0.7569,0.0,0.0,0.0,0.0,0.9183,0.8972,0.8953,0.0,0.908,0.0,0.7446,0.701,0.6489,0.0,0.5579,0.5562,0.5674,0.5745,0.582,0.5898,0.6051,0.6132,0.6132,0.6255,0.63,0.63,0.63,0.63,0.63,0.63,0.63,0.63,0.0,0.63,0.63,0.63,0.63,0.63,0.63,0.63,0.6338,0.6795,0.7668,0.8765,0.0,0.0,0.0,0.0,0.0,0.0,0.0,0.0,0.0,0.0,0.0,0.0,0.0,0.0,0.0,0.0,0.0,0.0,0.0,0.0,0.0,0.0,0.0,0.0,0.0,0.0,0.0,0.0,0.0,0.0,0.0,0.0,0.0,0.0,0.0,0.0,0.0,0.0,0.0,0.0,0.0,0.0,0.0,0.0,0.0,0.0,0.0,0.0,0.0,0.0,0.9735,0.9746,0.9816,0.9829,0.9733,0.9371,0.9271,0.9198,0.8898,0.8804,0.8804,0.8804,0.8804,0.8804,0.8804,0.8804,0.8778,0.8672,0.8646,0.8427,0.7696,0.7672,0.7585,0.7091,0.0,0.8083,0.9251,0.964,1.0079,1.0751,1.0224,0.9342,0.816,0.7448,0.6714,0.5888,0.5718,0.5701,0.5827,0.5922,0.6,0.6023,0.6193,0.63,0.63,0.63,0.63,0.63,0.63,0.63,0.63,0.63,0.63,0.63,0.63,0.0,0.63,0.63,0.63,0.63,0.63,0.63,0.6412,0.7288,0.7668,0.8084,0.0,0.0,0.0,0.0,0.0,0.0,0.0,0.0,0.0,0.0,0.7695,0.7695,0.0,0.0,0.0,0.0,0.0,0.0,0.0,0.0,0.0,0.0,0.0,0.0,0.0,0.0,0.0,0.0,0.0,0.0,0.0,0.0,0.0,0.0,0.0,0.0,0.0,0.0,0.0,0.0,0.0,0.0,0.0,0.0,0.0,0.0,0.0,0.0,0.0,0.0,0.984,1.0087,1.0358,1.0439,1.0332,0.9766,0.9606,0.9492,0.8951,0.8804,0.8804,0.8804,0.8804,0.8804,0.8804,0.8804,0.0,0.0,0.7883,0.767,0.6939,0.751,0.7987,0.7622,0.871,0.9704,0.9929,1.0228,1.0296,0.0,1.0224,0.9577,0.7328,0.7652,0.0,0.0,0.0,0.5929,0.5952,0.5979,0.6088,0.6255,0.6286,0.63,0.63,0.63,0.63,0.63,0.63,0.63,0.63,0.63,0.63,0.63,0.63,0.0,0.63,0.63,0.63,0.63,0.63,0.63,0.6338,0.649,0.7099,0.797,0.0,0.0,0.0,0.0,0.0,0.0,0.0,0.833,0.7954,0.7725,0.7695,0.7695,0.7695,0.7695,0.7695,0.0,0.0,0.0,0.0,0.0,0.0,0.0,0.0,0.0,0.0,0.0,0.0,0.0,0.0,0.0,0.0,0.0,0.0,0.0,0.0,0.0,0.0,0.0,0.0,0.0,0.0,0.0,0.0,0.0,0.0,0.0,0.0,0.0,0.0,0.0,0.9717,1.0167,1.0499,1.0593,1.0472,0.9883,0.9715,0.9552,0.8965,0.8804,0.8804,0.8804,0.8891,0.8964,0.8844,0.0,0.0,0.0,0.8262,0.8156,0.7803,0.8153,0.0,0.8287,0.9034,0.9684,0.9873,1.0147,0.0,1.018,1.0027,0.9545,0.0,0.7949,0.0,0.0,0.0,0.6149,0.6149,0.6149,0.6183,0.6296,0.63,0.63,0.63,0.63,0.63,0.63,0.63,0.63,0.63,0.63,0.63,0.63,0.63,0.0,0.63,0.63,0.63,0.63,0.63,0.63,0.6377,0.6868,0.7403,0.8008,0.0,0.0,0.0,0.0,0.0,0.0,0.0,0.8207,0.7695,0.7695,0.7695,0.7695,0.7695,0.7695,0.7695,0.0,0.0,0.0,0.0,0.0,0.0,0.0,0.0,0.0,0.0,0.0,0.0,0.0,0.0,0.0,0.0,0.0,0.0,0.0,0.0,0.0,0.0,0.0,0.0,0.0,0.0,0.0,0.0,0.0,0.0,0.0,0.0,0.0,0.0,0.0,0.9517,0.995,1.0311,1.0445,1.0392,0.9869,0.9639,0.9486,0.9025,0.8851,0.8804,0.8804,0.8998,0.9138,0.8871,0.9004,0.0,0.8871,0.8804,0.8804,0.8804,0.8804,0.8804,0.0,0.9024,0.9317,0.9646,0.9933,1.0166,0.0,0.9931,0.0,0.9627,0.8523,0.0,0.0,0.0,0.0,0.63,0.63,0.63,0.63,0.63,0.63,0.63,0.63,0.63,0.63,0.63,0.63,0.63,0.63,0.63,0.63,0.63,0.0,0.0,0.63,0.63,0.63,0.63,0.6412,0.6718,0.7518,0.7931,0.8389,0.0,0.0,0.0,0.0,0.0,0.0,0.0,0.8022,0.7695,0.7695,0.7695,0.7695,0.7695,0.7695,0.7695,0.0,0.0,0.0,0.0,0.0,0.0,0.0,0.0,0.0,0.0,0.0,0.0,0.0,0.0,0.0,0.0,0.0,0.0,0.0,0.0,0.0,0.0,0.0,0.0,0.0,0.0,0.0,0.0,0.0,0.0,0.0,0.0,0.0,0.0,0.0,0.0,0.9344,0.9673,0.9947,1.0094,0.978,0.0,0.0,0.9184,0.8984,0.8804,0.8804,0.8998,0.9138,0.8871,0.0,0.9131,0.8871,0.8804,0.8804,0.8804,0.8804,0.8804,0.8804,0.0,0.9317,0.9646,0.9933,0.9944,0.9468,0.0,0.0,0.8843,0.0,0.0,0.0,0.0,0.0,0.6338,0.63,0.63,0.63,0.63,0.63,0.63,0.63,0.63,0.63,0.63,0.63,0.63,0.63,0.63,0.63,0.63,0.0,0.0,0.63,0.63,0.63,0.63,0.6872,0.7668,0.7783,0.8389,0.9334,0.0,0.0,0.0,0.0,0.0,0.0,0.8779,0.8158,0.7695,0.7695,0.7695,0.7695,0.7695,0.7695,0.7695,0.7695,0.0,0.0,0.0,0.0,0.0,0.0,0.0,0.0,0.0,0.0,0.0,0.0,0.0,0.0,0.0,0.0,0.0,0.0,0.0,0.0,0.0,0.0,0.0,0.0,0.0,0.0,0.0,0.0,0.0,0.0,0.0,0.0,0.0,0.0,0.0,0.0,0.9172,0.9359,0.0,0.0,0.9472,0.9211,0.9211,0.8998,0.8804,0.8804,0.8998,0.9138,0.8871,0.0,0.9131,0.8871,0.8804,0.8804,0.8804,0.8804,0.8804,0.0,0.0,0.0,0.9619,0.9786,0.9913,1.0053,1.062,0.0,0.0,0.0,0.0,0.0,0.0,0.0,0.7249,0.6641,0.63,0.63,0.63,0.63,0.63,0.63,0.63,0.63,0.63,0.63,0.63,0.63,0.63,0.63,0.63,0.0,0.0,0.63,0.63,0.6377,0.6984,0.7442,0.7936,0.9173,0.9852,1.034,0.0,0.0,0.0,0.0,0.0,0.9004,0.9004,0.8266,0.7695,0.7695,0.7695,0.7695,0.7695,0.7695,0.7695,0.7695,0.7695,0.0,0.0,0.0,0.0,0.0,0.0,0.0,0.0,0.0,0.0,0.8139,0.0,0.0,0.0,0.0,0.0,0.0,0.0,0.0,0.0,0.0,0.0,0.0,0.0,0.0,0.0,0.0,0.0,0.0,0.0,0.0,0.0,0.0,0.0,0.0,0.0,0.0,0.0,0.0,0.9377,0.9211,0.9211,0.9064,0.8891,0.8831,0.8998,0.9138,0.0,0.0,0.9131,0.8871,0.8804,0.8804,0.8804,0.8804,0.8804,0.0,0.0,0.9011,0.9628,0.9715,0.993,0.0,0.0,0.0,0.0,0.0,0.0,0.0,0.0,0.0,0.8723,0.7437,0.6606,0.63,0.63,0.63,0.63,0.63,0.63,0.63,0.63,0.63,0.63,0.63,0.63,0.63,0.63,0.0,0.0,0.63,0.649,0.6834,0.7514,0.8161,0.8874,1.0297,1.0975,1.1354,0.0,0.0,0.0,0.0,0.0,0.0,0.9004,0.8266,0.7695,0.7695,0.7695,0.7695,0.7695,0.7695,0.7695,0.7695,0.7695,0.0,0.0,0.0,0.0,0.0,0.0,0.0,0.0,0.0,0.8695,0.8695,0.8152,0.7891,0.0,0.0,0.0,0.0,0.0,0.0,0.0,0.0,0.0,0.0,0.0,0.0,0.0,0.0,0.0,0.0,0.0,0.0,0.0,0.0,0.0,0.0,0.0,0.0,0.0,0.0,0.9217,0.9211,0.9211,0.9211,0.9138,0.8878,0.8998,0.9138,0.0,0.9004,0.9131,0.8871,0.8804,0.8804,0.8804,0.8804,0.8804,0.8804,0.0,0.0,0.9628,0.9715,0.0,0.0,0.0,0.0,0.0,0.0,0.0,0.0,0.0,0.0,1.0783,0.8874,0.7326,0.6338,0.63,0.63,0.63,0.63,0.63,0.63,0.63,0.63,0.63,0.63,0.63,0.0,0.0,0.0,0.0,0.63,0.6868,0.7783,0.7783,0.9026,1.0783,1.0783,1.1428,1.2298,0.0,0.0,0.0,0.0,0.0,0.0,0.0,0.8266,0.7695,0.7695,0.7695,0.7695,0.7695,0.7695,0.7695,0.7695,0.7695,0.0,0.0,0.0,0.0,0.0,0.0,0.0,0.0,0.0,0.9239,0.9239,0.8704,0.8255,0.7899,0.8082,0.0,0.0,0.0,0.0,0.0,0.0,0.0,0.0,0.0,0.0,0.0,0.0,0.0,0.0,0.0,0.0,0.0,0.0,0.0,0.0,0.0,0.0,0.0,0.0,0.0,0.0,0.9158,0.9071,0.8898,0.8831,0.8878,0.8891,0.8831,0.8878,0.8891,0.8824,0.8804,0.8804,0.8804,0.8804,0.8804,0.8804,0.8804,0.0,0.0,0.0,0.0,1.0546,0.0,0.0,0.0,0.0,0.0,0.0,0.0,0.0,1.082,1.0185,0.9399,0.8389,0.7022,0.6641,0.7326,0.6644,0.63,0.63,0.63,0.63,0.63,0.63,0.63,0.0,0.0,0.0,0.0,0.7326,0.7936,0.8879,0.9588,1.0222,1.0901,1.1576,1.2033,1.2305,0.0,0.0,0.0,0.0,0.0,0.0,0.0,0.85,0.7963,0.7963,0.7817,0.7695,0.7695,0.7695,0.7778,0.7944,0.7963,0.0,0.0,0.0,0.0,0.0,0.0,0.0,0.0,0.9981,0.9804,0.9804,0.9259,0.8837,0.85,0.8635,0.8521,0.8201,0.8201,0.0,0.0,0.0,0.0,0.0,0.0,0.0,0.7939,0.0,0.0,0.0,0.0,0.0,0.0,0.0,0.0,0.0,0.0,0.0,0.0,0.0,0.0,0.0,0.0,0.8998,0.8918,0.8838,0.8804,0.0,0.0,0.8804,0.8804,0.8804,0.8804,0.8804,0.8804,0.8804,0.8804,0.8804,0.8804,0.0,0.0,0.0,0.0,1.1162,0.0,0.0,0.0,0.0,0.0,0.0,0.0,0.0,1.1391,1.1013,1.0677,1.0426,0.8461,0.7557,0.7783,0.7176,0.6872,0.6872,0.6872,0.6872,0.6872,0.6872,0.6872,0.0,0.0,0.0,0.0,0.8351,0.8955,0.9933,1.0565,1.1013,1.1428,1.207,1.2305,1.2318,0.0,0.0,0.0,0.0,0.0,0.0,0.0,0.8896,0.8385,0.8356,0.7963,0.7695,0.7695,0.7725,0.7924,0.8356,0.0,0.0,0.0,0.0,0.0,0.0,0.0,0.0,1.0303,1.0303,1.0303,1.0303,0.9804,0.9538,0.9478,0.9019,0.8777,0.8695,0.8695,0.8378,0.7808,0.728,0.7055,0.706,0.7404,0.7682,0.0,0.0,0.0,0.0,0.0,0.0,0.0,0.0,0.0,0.0,0.0,0.0,0.0,0.0,0.0,0.0,0.0,0.0,0.0,0.0,0.0,0.0,0.0,0.8804,0.0,0.8804,0.8804,0.8804,0.8804,0.8804,0.8804,0.8804,0.8824,0.9138,0.0,1.0137,0.0,0.0,0.0,0.0,0.0,0.0,0.0,0.0,0.0,0.0,1.2305,1.1391,1.1316,1.2268,1.0496,0.9031,0.8008,0.7936,0.7897,0.7897,0.7897,0.7897,0.7897,0.7897,0.7897,0.0,0.0,0.0,0.0,0.941,1.0008,1.0901,1.0901,1.1465,1.2305,1.2305,1.2318,1.2371,0.0,0.0,0.0,0.0,0.0,0.0,0.0,0.0,0.0,0.0,0.7763,0.7695,0.7695,0.8027,0.8277,0.0,0.0,0.0,0.0,0.0,0.0,0.0,0.0,0.0,1.0303,1.0303,1.0303,1.0303,1.0176,0.9902,0.9498,0.9795,0.9478,0.8695,0.8695,0.8136,0.7231,0.7558,0.756,0.741,0.7695,0.8003,0.0,0.0,0.0,0.0,0.8804,0.8804,0.0,0.0,0.0,0.0,0.0,0.0,0.0,0.0,0.8804,0.0,0.0,0.0,0.0,0.0,0.0,0.0,0.0,0.0,0.0,0.0,0.0,0.0,0.0,0.8804,0.8804,0.8804,0.8964,0.9337,0.9997,0.0,0.0,0.0,0.0,0.0,0.0,0.0,0.0,0.0,0.0,1.2583,1.2311,1.2077,1.2077,1.2298,1.1848,1.1093,1.011,0.9329,0.8955,0.8955,0.8955,0.8955,0.8955,0.8955,0.8955,0.0,0.0,0.0,1.0453,1.0453,1.1056,1.1959,1.1959,1.2077,1.2305,1.2305,1.2445,1.269,0.0,0.0,0.0,0.0,0.0,0.0,0.0,0.0,0.0,0.0,0.0,0.7773,0.0,0.0,0.0,0.0,0.0,0.0,0.0,0.0,0.0,0.0,0.0,1.0303,1.0303,1.0303,1.0186,0.9942,0.9942,0.9657,0.9139,0.9439,0.9259,0.8683,0.8439,0.7917,0.7249,0.7573,0.7711,0.7709,0.8009,0.0,0.0,0.0,0.0,0.0,0.8804,0.8804,0.0,0.8804,0.8804,0.8804,0.0,0.0,0.0,0.0,0.8804,0.8804,0.8804,0.8804,0.8804,0.8804,0.8804,0.0,0.0,0.0,0.0,0.0,0.0,0.0,0.0,0.0,0.0,0.0,0.9337,0.0,0.0,0.0,0.0,0.0,0.0,0.0,0.0,0.0,0.0,0.0,0.0,1.2717,1.2549,1.2378,1.2365,1.2536,1.2371,1.1811,1.082,1.0265,1.0002,1.0002,1.0002,1.0002,1.0002,1.0002,1.0002,0.0,0.0,0.0,1.1502,1.1502,1.1805,1.2305,1.2305,1.2305,1.2305,1.2305,1.2405,1.2623,0.0,0.0,0.0,0.0,0.0,0.0,0.0,0.0,0.0,0.0,0.0,0.0,0.0,0.0,0.0,0.0,0.0,0.0,0.0,0.0,0.0,0.0,0.0,1.0264,1.0186,1.0186,0.9922,0.9379,0.9379,0.9139,0.8695,0.8695,0.8667,0.8622,0.8124,0.7766,0.7558,0.7558,0.7715,0.8023,0.8394,0.0,0.0,0.0,0.0,0.0,0.0,0.0,0.0,0.8804,0.8804,0.8804,0.8804,0.0,0.0,0.0,0.0,0.0,0.8804,0.8838,0.8864,0.8818,0.8804,0.8804,0.0,0.0,0.0,0.0,0.0,0.0,0.0,0.9011,0.0,0.0,0.0,0.0,1.1042,1.1665,0.0,0.0,0.0,0.0,0.0,0.0,0.0,0.0,0.0,1.2904,1.2857,1.2532,1.2522,1.2777,1.2458,1.1885,1.105,1.1013,1.1013,1.1013,1.1013,1.1013,1.1013,1.1013,1.1013,1.1013,0.0,0.0,1.2305,1.2305,1.2305,1.2305,1.2305,1.2331,1.2365,1.2318,1.2358,1.2518,0.0,0.0,0.0,0.0,0.0,0.0,0.0,0.0,0.0,0.0,0.0,0.0,0.0,0.0,0.0,0.0,0.0,0.0,0.0,0.0,0.0,1.0303,1.0303,1.0088,0.9637,0.9617,0.9359,0.8817,0.8817,0.8777,0.8695,0.8695,0.8571,0.834,0.8042,0.7863,0.7832,0.7832,0.8029,0.8385,0.9,0.0,0.0,0.0,0.0,0.0,0.0,0.0,0.0,0.8804,0.8804,0.8804,0.8804,0.0,0.0,0.0,0.0,0.0,0.8804,0.8958,0.9084,0.8871,0.8804,0.8804,0.8804,0.8804,0.0,0.0,0.0,0.0,0.0,0.8984,0.9038,0.0,0.0,1.1062,0.0,0.0,0.0,0.0,0.0,0.0,0.0,0.0,0.0,0.0,0.0,1.34,1.3153,1.2884,1.2737,1.2784,1.2458,1.2224,1.207,1.207,1.207,1.207,1.207,1.207,1.207,1.207,1.207,1.207,0.0,1.215,1.2305,1.2305,1.2305,1.2305,1.2305,1.2458,1.2683,1.2392,1.2625,1.312,0.0,0.0,0.0,0.0,0.0,0.0,0.0,0.0,0.0,0.0,0.0,0.0,0.0,0.0,0.0,0.0,0.0,0.0,0.0,0.0,0.0,1.0303,1.002,0.9755,0.9498,0.9219,0.8797,0.8255,0.8422,0.8338,0.806,0.8202,0.8214,0.8068,0.7963,0.7999,0.817,0.817,0.8337,0.863,0.0,0.0,0.0,0.0,0.0,0.0,0.0,0.0,0.0,0.0,0.8804,0.8804,0.8804,0.0,0.0,0.0,0.0,0.0,0.8804,0.8878,0.8984,0.9004,0.9165,0.9279,0.9279,0.9279,0.0,0.0,0.0,0.0,0.0,0.0,0.9813,1.0747,0.0,0.0,0.0,0.0,0.0,0.0,0.0,0.0,0.0,0.0,0.0,0.0,0.0,0.0,1.3413,1.316,1.3066,1.3227,1.2779,1.2619,1.2792,1.2625,1.2496,1.2305,1.2305,1.2305,1.2305,1.2305,1.2305,1.2305,0.0,1.2392,1.2583,1.2583,1.2645,1.2772,1.2643,1.2764,1.2998,1.269,1.2826,1.3227,0.0,0.0,0.0,0.0,0.0,0.0,0.0,0.0,0.0,0.0,0.0,0.0,0.0,0.0,0.0,0.0,0.0,0.0,0.0,0.0,1.0303,1.0303,0.9657,0.9319,0.9319,0.8777,0.8273,0.7814,0.8019,0.7927,0.7605,0.7889,0.8012,0.8012,0.8079,0.8263,0.8502,0.8502,0.8604,0.8804,0.0,0.0,0.0,0.0,0.0,0.0,0.0,0.0,0.0,0.0,0.0,0.0,0.0,0.0,0.0,0.8804,0.8804,0.8804,0.8804,0.8858,0.8938,0.9158,0.9359,0.9512,0.9682,0.9626,0.0,0.0,0.0,0.0,0.0,1.008,0.0,1.1551,0.0,0.0,0.0,0.0,0.0,0.0,0.0,0.0,0.0,0.0,0.0,0.0,0.0,0.0,1.3706,1.3433,1.3373,1.3593,1.3099,1.2898,1.31,1.2904,1.267,1.2405,1.2405,1.2371,1.2305,1.2378,1.2405,1.2412,1.2485,1.2645,1.2891,1.2891,1.2993,1.3186,1.2985,1.3038,1.3186,1.3058,1.3106,1.3273,0.0,0.0,0.0,0.0,0.0,0.0,0.0,0.0,0.0,0.0,0.0,0.0,0.0,0.0,0.0,0.0,0.0,0.0,0.0,0.0,1.0303,1.0303,0.9299,0.8756,0.8756,0.8234,0.7808,0.7524,0.7544,0.7661,0.7879,0.8203,0.8368,0.8382,0.8624,0.8758,0.8778,0.8778,0.8791,0.8857,0.9484,0.0,0.0,0.0,0.0,0.0,0.0,0.0,0.0,0.0,0.0,0.0,0.0,0.0,0.0,0.0,0.8804,0.8804,0.8804,0.8978,0.9184,0.9211,0.9024,0.9011,0.9559,0.9472,0.0,0.9599,0.0,0.0,0.0,1.0548,1.0955,1.1042,0.0,0.0,0.0,0.0,0.0,0.0,0.0,0.0,0.0,0.0,0.0,0.0,0.0,0.0,1.4055,1.3733,1.358,1.36,1.3099,1.2797,1.2817,1.2797,1.277,1.275,1.275,1.2603,1.2311,1.2623,1.275,1.277,1.3019,1.316,1.318,1.318,1.3186,1.3206,1.3186,1.3186,1.324,1.3447,1.3553,1.3573,0.0,0.0,0.0,0.0,0.0,0.0,0.0,0.0,0.0,0.0,0.0,0.0,0.0,0.0,0.0,0.0,0.0,0.0,0.0,1.0303,1.0303,1.0303,0.9835,0.9383,0.8963,0.8097,0.7597,0.7513,0.7866,0.8208,0.8452,0.8591,0.8644,0.8651,0.8758,0.8804,0.8804,0.8804,0.8804,0.8831,0.9087,0.9035,0.0,0.0,0.0,0.0,0.0,0.0,0.0,0.0,0.8804,0.0,0.0,0.0,0.0,0.0,0.0,0.8804,0.8804,0.8991,0.9211,0.9211,0.9131,0.0,0.0,0.9866,0.979,0.9927,1.0187,0.0,0.0,0.0,1.1744,0.0,0.0,0.0,0.0,0.0,0.0,0.0,0.0,0.0,0.0,0.0,0.0,0.0,0.0,0.0,1.4088,1.3981,1.3921,1.3921,1.352,1.33,1.33,1.33,1.3213,1.3033,1.3033,1.2979,1.2866,1.2986,1.3033,1.3039,1.316,1.3273,1.344,1.344,1.3587,1.3754,1.3754,1.3641,1.3453,1.356,1.36,1.36,0.0,0.0,0.0,0.0,0.0,0.0,0.0,0.0,0.0,0.0,0.0,0.0,0.0,0.0,0.0,0.0,0.0,0.0,1.0303,1.0303,1.0361,1.0478,1.0045,0.9619,0.9289,0.8308,0.7779,0.7779,0.8288,0.8611,0.8804,0.8804,0.8804,0.8804,0.8804,0.8804,0.8804,0.8804,0.8804,0.8804,0.8804,0.8804,0.0,0.0,0.0,0.0,0.0,0.0,0.0,0.0,0.0,0.0,0.0,0.0,0.0,0.0,0.0,0.0,0.8918,0.9058,0.9231,0.9331,0.0,0.0,1.01,1.018,1.0163,1.0443,1.0688,0.0,0.0,0.0,0.0,0.0,0.0,0.0,0.0,0.0,0.0,0.0,0.0,0.0,0.0,0.0,0.0,0.0,0.0,0.0,0.0,1.4088,1.4088,1.4088,1.376,1.36,1.36,1.36,1.35,1.3347,1.344,1.3387,1.3213,1.3307,1.3347,1.3313,1.3447,1.3601,1.374,1.374,1.3901,1.4088,1.4088,1.3961,1.374,1.374,1.374,1.374,0.0,0.0,0.0,0.0,0.0,0.0,0.0,0.0,0.0,0.0,0.0,0.0,0.0,0.0,0.0,0.0,0.0,0.0,1.0303,1.0303,1.0469,1.0868,0.9747,0.9297,0.9686,0.8839,0.8402,0.8402,0.8664,0.8804,0.8804,0.8804,0.8804,0.8804,0.8804,0.8804,0.8804,0.8804,0.8804,0.8804,0.8804,0.8804,0.8804,0.0,0.0,0.0,0.0,0.0,0.0,0.0,0.0,0.0,0.0,0.0,0.0,0.0,0.8984,0.9211,0.9211,0.9211,0.9284,0.0,0.0,0.0,1.0392,1.0334,1.0336,1.1216,1.1395,1.1516,1.1852,0.0,0.0,0.0,0.0,0.0,0.0,0.0,0.0,0.0,0.0,0.0,0.0,0.0,0.0,0.0,0.0,0.0,0.0,1.4088,1.4088,1.4088,1.376,1.3606,1.36,1.3606,1.3606,1.3606,1.3948,1.3781,1.3227,1.3473,1.3606,1.3626,1.3961,1.4088,1.4088,1.4088,1.4088,1.4088,1.4088,1.4088,1.4088,1.4088,1.4088,1.4088,0.0,0.0,0.0,0.0,0.0,0.0,0.0,0.0,0.0,0.0,0.0,0.0,0.0,0.0,0.0,0.0,0.0,0.0,1.0303,1.0126,1.0063,1.0203,0.9984,0.9715,0.9347,0.8917,0.8677,0.8677,0.8764,0.8804,0.8804,0.8804,0.8804,0.8804,0.8804,0.8804,0.8804,0.8804,0.8804,0.8804,0.8804,0.8804,0.8804,0.0,0.0,0.0,0.0,0.0,0.0,0.0,0.0,0.0,0.0,0.0,0.0,0.8804,0.8871,0.8911,0.8911,0.9239,0.0,0.9377,0.0,0.0,0.0,1.0673,0.0,0.0,1.1737,1.1764,1.1893,0.0,0.0,0.0,0.0,0.0,0.0,0.0,0.0,0.0,0.0,0.0,0.0,0.0,0.0,0.0,0.0,0.0,0.0,1.4088,1.4088,1.4088,1.4001,1.3854,1.3606,1.3848,1.3848,1.3606,1.3948,1.3995,1.3834,1.3921,1.3955,1.3961,1.4048,1.4088,1.4088,1.4088,1.4088,1.4088,1.4088,1.4088,1.4088,1.4088,1.4088,1.4088,0.0,0.0,0.0,0.0,0.0,0.0,0.0,0.0,0.0,0.0,1.0303,0.0,0.0,0.0,0.0,0.0,0.0,0.0,0.0,0.9883,0.9838,1.0006,0.9865,0.956,0.9058,0.8893,0.8804,0.8804,0.8804,0.8804,0.8804,0.8804,0.8804,0.8804,0.8804,0.8804,0.8804,0.8804,0.8804,0.8804,0.8804,0.8804,0.8804,0.0,0.0,0.0,0.0,0.0,0.0,0.0,0.0,0.0,0.0,0.0,0.0,0.8918,0.8951,0.9004,0.9265,0.9499,0.0,0.9753,1.0198,1.0727,1.1256,0.0,0.0,0.0,0.0,1.2114,1.2228,0.0,0.0,0.0,0.0,0.0,0.0,0.0,0.0,0.0,0.0,0.0,0.0,0.0,0.0,0.0,0.0,0.0,0.0,1.4088,1.4088,1.4088,1.4088,1.4001,1.378,1.4001,1.4001,1.378,1.4001,1.4088,1.4088,1.4088,1.4088,1.4088,1.4088,1.4088,1.4088,1.4088,1.4088,1.4088,1.4088,1.4088,1.4088,1.4088,1.4088,1.4088,0.0,0.0,0.0,0.0,0.0,0.0,0.0,0.0,0.0,0.0,1.0303,0.0,0.0,0.0,0.0,0.0,0.0,0.0,0.0,0.0,0.9658,1.0084,0.9505,0.9051,0.8804,0.8804,0.8804,0.8804,0.8804,0.8804,0.8804,0.8804,0.8804,0.8804,0.8804,0.8804,0.8804,0.8804,0.8804,0.8804,0.8804,0.8804,0.8804,0.8804,0.0,0.0,0.0,0.0,0.0,0.0,0.0,0.0,0.0,0.0,0.8858,0.9098,0.9191,0.9331,0.9864,0.0,0.0,1.0419,1.0613,0.0,1.1752,1.2118,1.2305,1.2305,0.0,1.2392,0.0,0.0,0.0,0.0,0.0,0.0,0.0,0.0,0.0,0.0,0.0,0.0,0.0,0.0,0.0,0.0,0.0,0.0,0.0,1.4088,1.4088,1.4088,1.4088,1.4088,1.4088,1.4088,1.4088,1.4088,1.4088,1.4088,1.4088,1.4088,1.4088,1.4088,1.4088,1.4088,1.4088,1.4088,1.4088,1.4088,1.4088,1.4088,1.4088,1.4088,1.4088,1.4088,0.0,0.0,0.0,0.0,0.0,0.0,0.0,0.0,0.0,0.0,0.0,0.0,0.0,0.0,0.0,0.0,0.0,0.0,0.0,0.0,0.9309,0.9402,0.9089,0.8868,0.8804,0.8804,0.8804,0.8804,0.8804,0.8804,0.8804,0.8804,0.8804,0.8804,0.8804,0.8804,0.8804,0.8804,0.8804,0.8804,0.8804,0.8804,0.8804,0.8804,0.8804,0.0,0.0,0.0,0.0,0.0,0.0,0.0,0.8804,0.8804,0.8818,0.8858,0.9038,0.9237,0.0,0.969,0.0,0.0,1.0728,1.141,1.2064,1.2258,1.2305,1.2305,1.2305,0.0,0.0,0.0,0.0,0.0,0.0,0.0,0.0,0.0,0.0,0.0,0.0,0.0,0.0,0.0,0.0,0.0,0.0,0.0,1.4088,1.4088,1.4088,1.4088,1.4088,1.4088,1.4088,1.4088,1.4088,0.0,1.4088,1.4088,1.4088,1.4088,1.4088,1.4088,1.4088,1.4088,1.4088,1.4088,1.4088,1.4088,1.4088,1.4088,1.4088,1.4088,1.4088,1.4088,0.0,0.0,0.0,0.0,0.0,0.0,0.0,0.0,0.0,0.0,0.0,0.0,0.0,0.0,0.0,0.0,0.0,0.0,0.0,0.0,0.8999,0.8999,0.8874,0.8804,0.8804,0.8804,0.8804,0.8804,0.8804,0.8804,0.8804,0.8804,0.8804,0.8804,0.8804,0.8804,0.8804,0.8804,0.8804,0.8804,0.8804,0.8804,0.8804,0.8804,0.8804,0.8804,0.8804,0.0,0.0,0.0,0.0,0.0,0.0,0.0,0.8838,0.8944,0.8998,0.0,0.0,0.0,0.0,1.0601,0.0,1.1542,1.2164,1.2305,1.2305,1.2305,0.0,0.0,0.0,0.0,0.0,0.0,0.0,0.0,0.0,0.0,0.0,0.0,0.0,0.0,0.0,0.0,0.0,0.0,0.0,1.4088,1.4088,1.4088,1.4088,1.4088,1.4088,1.4088,1.4088,1.4088,1.4088,1.4088,1.4088,1.4088,1.4088,1.4088,1.4088,1.4088,1.4088,1.4088,1.4088,1.4088,1.4088,1.4088,1.4088,1.4088,1.4088,1.4088,1.4088,1.4088,0.0,0.0,0.0,0.0,0.0,0.0,0.0,0.0,0.0,0.0,0.0,0.0,0.0,0.0,0.0,0.0,0.0,0.0,0.0,0.0,0.0,0.8804,0.8804,0.8804,0.8804,0.8804,0.8804,0.8804,0.8804,0.8804,0.8804,0.8804,0.8804,0.8804,0.8804,0.8804,0.8804,0.8804,0.8804,0.8804,0.8804,0.8804,0.8804,0.8804,0.8804,0.8804,0.8804,0.8804,0.8804,0.8804,0.0,0.0,0.0,0.0,0.8851,0.9071,0.9004,0.0,0.0,0.0,1.0027,1.1149,1.1389,0.0,1.2164,1.2305,1.2305,1.2305,0.0,0.0,0.0,0.0,0.0,0.0,0.0,0.0,0.0,0.0,0.0,0.0,0.0,0.0,0.0,0.0,0.0,0.0,0.0,1.4088,1.4088,1.4088,1.4088,1.4088,1.4088,1.4088,1.4088,1.4088,1.4088,1.4088,1.4088,1.4088,1.4088,1.4088,1.4088,1.4088,1.4088,1.4088,1.4088,1.4088,1.4088,1.4088,1.4088,1.4088,1.4088,1.4088,1.4088,1.4088,0.0,0.0,0.0,0.0,0.0,0.0,0.0,0.0,0.0,0.0,1.0303,0.0,0.0,0.0,0.0,0.0,0.0,0.0,0.0,0.0,0.0,0.8804,0.8804,0.8804,0.8804,0.8804,0.8804,0.8804,0.8804,0.8804,0.8804,0.8804,0.8804,0.8804,0.8804,0.8804,0.8804,0.8804,0.8804,0.8804,0.8804,0.8804,0.8804,0.8804,0.8804,0.8804,0.8804,0.8804,0.8804,0.8804,0.8804,0.0,0.0,0.0,0.0,0.0,0.0,0.0,0.0,0.0,1.025,0.0,1.1389,1.1542,0.0,0.0,1.2305,0.0,0.0,0.0,0.0,0.0,0.0,0.0,0.0,0.0,0.0,0.0,0.0,0.0,0.0,0.0,0.0,0.0,0.0,0.0,1.4088,1.4088,1.4088,1.4088,1.4088,1.4088,1.4088,1.4088,1.4088,1.4088,1.4088,1.4088,1.4088,1.4088,1.4088,1.4088,1.4088,1.4088,1.4088,1.4088,1.4088,1.4088,1.4088,1.4088,1.4088,1.4088,1.4088,1.4088,1.4088,1.4088,0.0,0.0,0.0,0.0,0.0,0.0,0.0,0.0,0.0,0.0,0.0,0.9823,0.0,0.0,0.0,0.0,0.0,0.0,0.0,0.0,0.0,0.8804,0.8804,0.8804,0.8804,0.8804,0.8804,0.8804,0.8804,0.8804,0.8804,0.8804,0.8804,0.8804,0.8804,0.8804,0.8804,0.8804,0.8804,0.8804,0.8804,0.8878,0.9004,0.8871,0.8884,0.8998,0.8864,0.8804,0.8804,0.8804,0.8804,0.8804,0.8804,0.0,0.0,0.0,0.0,0.0,0.9399,0.98,1.0256,0.0,1.1309,1.1536,1.1964,0.0,0.0,0.0,0.0,0.0,0.0,0.0,0.0,0.0,0.0,0.0,0.0,0.0,0.0,0.0,0.0,0.0,0.0,0.0,0.0,0.0,1.4088,1.4088,1.4088,1.4088,1.4088,1.4088,1.4088,1.4088,1.4088,1.4088,1.4088,1.4088,1.4088,1.4088,1.4088,1.4088,1.4088,1.4088,1.4088,1.4088,1.4088,1.4088,1.4088,1.4088,1.4088,1.4088,1.4088,1.4088,1.4088,1.4088,0.0,0.0,0.0,0.0,0.0,0.0,0.0,0.0,0.0,0.0,0.0,0.0,0.0,0.0,0.0,0.0,0.0,0.0,0.0,0.0,0.0,0.8804,0.8804,0.8804,0.8804,0.8804,0.8804,0.8804,0.8804,0.8804,0.8804,0.8804,0.8804,0.8804,0.8804,0.8804,0.8804,0.8804,0.8804,0.8811,0.8884,0.9018,0.9198,0.9085,0.9165,0.9297,0.9112,0.8985,0.8891,0.8891,0.8871,0.8804,0.8804,0.8804,0.0,0.0,0.0,0.0,0.0,0.0,1.0257,1.0779,1.1174,1.1587,0.0,0.0,0.0,0.0,0.0,0.0,0.0,0.0,0.0,0.0,0.0,0.0,0.0,0.0,0.0,0.0,0.0,0.0,0.0,0.0,0.0,0.0,1.4088,1.4088,1.4088,1.4088,1.4088,1.4088,1.4088,1.4088,1.4088,1.4088,1.4088,1.4088,1.4088,1.4088,1.4088,1.4088,1.4088,1.4088,1.4088,1.4088,1.4088,1.4088,1.4088,1.4088,1.4088,1.4088,1.4088,1.4088,1.4088,1.4088,0.0,0.0,0.0,0.0,0.0,0.0,0.0,0.0,0.0,0.0,0.0,0.0,0.0,0.9216,0.8817,0.8804,0.9387,0.9736,0.9736,0.9159,0.8804,0.8804,0.8804,0.0,0.8804,0.8804,0.8804,0.8804,0.8804,0.8804,0.8804,0.8804,0.8804,0.8804,0.8804,0.8804,0.8804,0.8804,0.8804,0.8831,0.9078,0.9198,0.9244,0.9539,0.0,0.0,0.0,0.9452,0.9191,0.9191,0.9004,0.8804,0.8804,0.8804,0.8804,0.0,0.0,0.0,0.0,0.9756,0.0,1.0578,1.1111,0.0,0.0,0.0,0.0,0.0,0.0,0.0,0.0,0.0,0.0,0.0,0.0,0.0,0.0,0.0,0.0,0.0,0.0,0.0,0.0,0.0,0.0,0.0,1.4088,1.4088,1.4088,1.4088,1.4088,1.4088,1.4088,1.4088,1.4088,1.4088,1.4088,1.4088,1.4088,1.4088,1.4088,1.4088,1.4088,1.4088,1.4088,1.4088,1.4088,1.4088,1.4088,1.4088,1.4088,1.4088,1.4088,1.4088,1.4088,1.4088,0.0,0.0,0.0,0.0,0.0,0.0,0.0,0.0,0.0,0.0,0.0,0.0,0.0,0.8936,0.8804,0.8804,0.9008,0.9159,0.9159,0.8929,0.8804,0.8804,0.8804,0.8804,0.8804,0.8804,0.8804,0.8804,0.8804,0.8804,0.8804,0.8804,0.8804,0.8804,0.8804,0.8804,0.8804,0.8804,0.8891,0.9084,0.9406,0.9753,1.008,0.0,0.0,0.0,0.0,0.0,0.0,0.977,0.9451,0.9058,0.9058,0.8931,0.8804,0.8804,0.0,0.0,0.0,0.0,0.0,0.9955,1.0873,1.1838,0.0,0.0,0.0,0.0,0.0,0.0,0.0,0.0,0.0,0.0,0.0,0.0,0.0,0.0,0.0,0.0,0.0,0.0,0.0,0.0,0.0,0.0,0.0,1.4088,1.4088,1.4088,1.4088,1.4088,1.4088,1.4088,1.4088,1.4088,1.4088,1.4088,1.4088,1.4088,1.4088,1.4088,1.4088,1.4088,1.4088,1.4088,1.4088,1.4088,1.4088,1.4088,1.4088,1.4088,1.4088,1.4088,1.4088,1.4088,0.0,0.0,0.0,0.0,0.0,0.0,0.0,0.0,0.0,0.0,0.0,0.0,0.0,0.0,0.8804,0.8804,0.8804,0.8804,0.8804,0.8804,0.8804,0.8804,0.8804,0.8804,0.8804,0.8804,0.8804,0.8804,0.8804,0.8804,0.8804,0.8804,0.8858,0.8924,0.8924,0.8924,0.8924,0.8924,0.9098,0.9397,0.982,0.0,1.0445,0.0,0.0,0.0,0.0,0.0,0.0,0.0,0.0,0.9637,0.9537,0.9237,0.0,0.0,0.0,0.0,0.9011,0.0,0.0,0.0,0.0,1.1749,0.0,0.0,0.0,0.0,0.0,0.0,0.0,0.0,0.0,0.0,0.0,0.0,0.0,0.0,0.0,0.0,0.0,0.0,0.0,0.0,0.0,0.0,0.0,0.0,1.4088,1.4088,1.4088,1.4088,1.4088,1.4088,1.4088,1.4088,1.4088,1.4088,1.4088,1.4088,1.4088,1.4088,1.4088,1.4088,1.4088,1.4088,1.4088,1.4088,1.4088,1.4088,1.4088,1.4088,1.4088,1.4088,1.4088,1.4088,0.0,0.0,0.0,0.0,0.0,0.0,0.0,0.0,0.0,1.1823,0.0,0.0,0.0,0.0,0.0,0.8804,0.8804,0.8804,0.8804,0.8804,0.8804,0.8804,0.8804,0.8804,0.8804,0.8804,0.8804,0.8804,0.8804,0.8804,0.8804,0.8818,0.8944,0.9211,0.9217,0.9231,0.9237,0.9231,0.9397,0.9775,0.0,1.0439,1.019,0.0,0.0,0.0,1.0955,1.0861,0.0,1.0955,0.0,0.0,0.0,0.0,0.0,0.0,0.0,0.0,0.0,0.0,0.0,0.0,0.0,0.0,0.0,0.0,0.0,0.0,0.0,0.0,0.0,0.0,0.0,0.0,0.0,0.0,0.0,0.0,0.0,0.0,0.0,0.0,0.0,0.0,0.0,0.0,1.472,1.4117,1.413,1.413,1.4088,1.4088,1.4088,1.4088,1.4088,1.4088,1.4088,1.4088,1.4088,1.4088,1.4088,1.4088,1.4088,1.4088,1.4088,1.4088,1.4088,1.4088,1.4088,1.4088,1.4088,1.4088,1.4088,1.4088,1.4088,1.4088,0.0,0.0,0.0,0.0,0.0,0.0,0.0,0.0,1.0405,0.0,0.0,0.0,0.9113,0.8903,0.8804,0.8804,0.8804,0.8804,0.8804,0.8804,0.8804,0.8804,0.8804,0.8804,0.8804,0.8804,0.8804,0.8804,0.8804,0.0,0.0,0.0,0.0,0.9224,0.9466,0.9679,0.983,0.9653,0.0,1.0047,1.0635,1.0949,0.0,0.0,0.0,0.0,0.0,1.1436,1.1229,0.0,1.1009,1.0187,0.0,0.0,0.0,0.0,0.0,0.0,0.8864,0.0,0.0,0.0,0.0,0.0,0.0,0.0,0.0,0.0,0.0,0.0,0.0,0.0,0.0,0.0,0.0,0.0,0.0,0.0,0.0,0.0,0.0,0.0,0.0,0.0,0.0,0.0,1.5425,1.4941,1.5247,1.4531,1.4088,1.4088,1.4088,1.4088,1.4088,1.4088,1.4088,1.4088,1.4088,1.4088,1.4088,1.4088,1.4088,1.4088,1.4088,1.4088,1.4088,1.4088,1.4088,1.4088,1.4088,1.4088,1.4088,1.4088,1.4088,1.4088,0.0,0.0,0.0,0.0,0.0,0.0,1.1241,1.0644,1.009,0.0,0.0,0.0,0.8831,0.8804,0.8804,0.8804,0.8804,0.8804,0.8804,0.8804,0.8804,0.8804,0.8804,0.8804,0.8804,0.8804,0.8864,0.0,0.0,0.0,0.0,0.0,0.0,0.0,0.0,0.0,1.0294,0.0,0.0,0.0,1.0935,0.0,0.0,1.1745,1.1897,0.0,0.0,0.0,1.1657,1.1951,1.143,0.0,0.0,0.0,0.0,0.0,0.0,0.0,0.0,0.0,0.0,0.0,0.0,0.0,1.221,1.3644,1.5029,0.0,0.0,0.0,0.0,0.0,0.0,0.0,0.0,0.0,0.0,0.0,0.0,0.0,0.0,0.0,0.0,1.7679,1.7314,1.715,1.5748,1.4878,1.4839,1.4343,1.4088,1.4088,1.4088,1.4088,1.4088,1.4088,1.4088,1.4088,1.4088,1.4088,1.4088,1.4088,1.4088,1.4088,1.4088,1.4088,1.4088,1.4088,1.4088,1.4088,1.4088,1.4088,1.4088,1.4088,1.4088,1.4088,0.0,0.0,0.0,1.0939,1.0838,1.099,1.1491,1.1015,1.0593,0.0,1.0064,0.9465,0.8857,0.8804,0.8824,0.8851,0.8851,0.8871,0.8905,0.8905,0.8905,0.8905,0.8905,0.8905,0.8905,0.8905,0.9004,0.0,0.0,0.0,0.0,0.0,0.0,0.0,0.0,0.0,0.0,0.0,0.0,1.0687,1.1169,1.1263,0.0,0.0,1.179,1.1622,1.1924,1.2033,1.2033,1.2191,1.1931,0.0,0.0,0.0,0.0,0.0,1.0009,0.0,0.0,0.0,0.0,0.0,0.0,0.0,1.2116,1.3158,1.4367,1.5576,0.0,0.0,0.0,0.0,0.0,0.0,0.0,0.0,0.0,0.0,0.0,0.0,0.0,0.0,1.849,1.7662,1.7279,1.7759,1.5915,1.4442,1.3627,1.3895,1.4055,1.4088,1.4088,1.4088,1.4088,1.4088,1.4088,1.4088,1.4088,1.4088,1.4088,1.4088,1.4088,1.4088,1.4088,1.4088,1.4088,1.4088,1.4088,1.4088,1.4088,1.4088,1.4088,1.4088,1.4088,1.4088,0.0,0.0,0.0,1.1724,1.1166,1.0661,1.0236,0.9614,0.9185,0.9185,0.9087,0.8936,0.8804,0.8804,0.8871,0.9111,0.9131,0.9231,0.9499,0.9512,0.9512,0.9512,0.9512,0.9512,0.9512,0.9512,0.9539,0.9599,0.0,0.0,0.0,0.0,0.0,0.0,0.0,0.0,0.0,0.0,0.0,1.0915,1.1035,0.0,1.1772,1.2084,1.2485,1.2866,1.2926,1.2831,1.2549,1.2134,1.2031,1.1997,0.0,0.0,0.0,1.0254,0.0,0.0,0.0,0.0,0.0,0.0,0.0,0.0,1.2595,1.3202,1.3701,0.0,0.0,0.0,0.0,0.0,0.0,0.0,0.0,0.0,0.0,0.0,0.0,0.0,0.0,0.0,1.8125,1.7919,1.7989,1.8401,1.6856,1.5203,1.3661,1.366,1.3841,1.4082,1.4088,1.4088,1.4088,1.4088,1.4088,1.4088,1.4088,1.4088,1.4088,1.4088,1.4088,1.4088,1.4088,1.4088,1.4088,1.4088,1.4088,1.4088,1.4088,1.4088,1.4088,1.4088,1.4088,1.4088,0.0,0.0,0.0,1.0813,1.0517,1.0287,1.0287,0.9744,0.9309,0.9309,0.9496,0.9496,0.9052,0.9493,0.9729,0.9474,0.9459,0.0,0.9702,0.9715,0.9715,0.9715,0.9715,0.9715,0.9715,0.9715,0.9753,0.99,0.0,0.0,0.0,0.0,0.0,0.0,0.0,0.0,0.0,0.0,1.0894,1.1022,1.1343,0.0,1.2131,1.2585,1.2946,1.3213,1.3213,1.3113,1.2933,1.2639,1.2432,0.0,0.0,1.1888,1.1944,0.0,1.1139,1.1583,0.0,0.0,0.0,1.1009,0.0,0.0,0.0,1.2974,1.3564,1.3753,0.0,0.0,0.0,0.0,0.0,0.0,0.0,0.0,0.0,0.0,0.0,0.0,0.0,0.0,1.8008,1.8008,1.7699,1.6971,1.6272,1.518,1.3487,1.3527,1.374,1.4075,1.4088,1.4088,1.4088,1.4088,1.4088,1.4088,1.4088,1.4088,1.4088,1.4088,1.4088,1.4088,1.4088,1.4088,1.4088,1.4088,1.4088,1.4088,1.4088,1.4088,1.4166,1.4692,1.4894,1.4977,0.0,0.0,0.0,0.0,0.9891,0.9987,1.0517,0.0,0.981,0.9877,1.0328,1.0411,0.9701,1.0537,1.0952,1.0534,1.0483,0.0,1.0223,1.023,1.0141,0.9963,0.9909,0.9909,0.9933,0.9909,0.9967,1.02,0.0,0.0,0.0,0.0,0.0,0.0,0.0,0.0,0.0,0.0,0.0,1.1289,0.0,1.2144,1.2358,1.2913,1.3193,1.33,1.336,1.338,1.336,1.3247,1.2886,1.2445,1.2271,1.2543,0.0,0.0,0.0,0.0,0.0,0.0,0.0,0.0,0.0,1.2591,0.0,0.0,0.0,0.0,0.0,0.0,0.0,0.0,0.0,0.0,0.0,0.0,0.0,0.0,0.0,0.0,0.0,0.0,0.0,1.7687,1.6961,1.5332,1.5181,1.4545,1.3217,1.34,1.3653,1.3988,1.4055,1.4088,1.4088,1.4088,1.4088,1.4088,1.4088,1.4088,1.4088,1.4088,1.4088,1.4088,1.4088,1.4088,1.4088,1.4088,1.4088,1.413,1.4334,1.4412,1.4531,1.5621,1.6026,1.615,1.2206,1.1916,0.0,0.0,1.0185,0.0,0.0,0.0,0.9892,1.019,1.0814,1.1218,1.1247,1.1631,1.2266,1.326,1.3316,1.2979,1.2148,1.2084,1.1732,1.0874,1.0633,1.0613,1.0842,1.0626,1.0506,1.0539,1.0539,0.0,0.0,0.0,0.0,0.0,1.0842,0.0,0.0,0.0,1.1677,0.0,1.2549,1.2543,0.0,1.271,1.3133,1.3586,1.3895,1.3988,1.3908,0.0,1.316,1.2966,0.0,1.2341,1.257,1.1377,0.0,0.0,0.0,0.0,0.0,0.0,1.3599,0.0,0.0,0.0,1.3516,1.3574,0.0,0.0,0.0,0.0,0.0,0.0,0.0,0.0,0.0,0.0,0.0,0.0,0.0,0.0,0.0,1.6525,1.6018,1.5244,1.4179,1.3353,1.288,1.3093,1.3353,1.3646,1.3948,1.4088,1.4088,1.4088,1.4088,1.4088,1.4088,1.4088,1.4088,1.4088,1.4088,1.4088,1.4088,1.4088,1.4088,1.4088,1.4088,1.4208,1.5137,1.5538,1.5662,1.6723,1.7131,1.7131,1.1831,1.1425,0.0,0.0,0.0,0.0,0.0,0.0,1.0489,1.0624,1.1016,1.1331,1.139,1.1692,1.218,1.2909,1.2972,1.282,1.2442,1.2409,0.0,1.0813,1.066,1.0646,1.0774,1.0653,1.0593,1.0593,1.0593,0.0,0.0,0.0,0.0,0.0,1.1189,0.0,1.1757,0.0,1.2078,0.0,0.0,0.0,0.0,1.332,1.3681,1.3915,1.4041,1.4088,1.4048,0.0,1.3494,0.0,0.0,0.0,0.0,0.0,0.0,0.0,0.0,0.0,0.0,0.0,0.0,0.0,1.3746,0.0,1.3851,0.0,0.0,0.0,0.0,0.0,0.0,0.0,0.0,0.0,0.0,0.0,0.0,0.0,0.0,0.0,0.0,0.0,0.0,0.0,1.4146,1.3317,1.284,1.3039,1.3307,1.3593,1.3935,1.4088,1.4088,1.4088,1.4088,1.4088,1.4088,1.4088,1.4088,1.4088,1.4088,1.4088,1.4088,1.4088,1.4088,1.4088,1.4088,1.4208,1.5296,1.5696,1.582,1.6887,1.7698,1.839,1.2033,0.0,0.0,0.0,1.1957,0.0,0.0,0.0,1.1805,1.1358,1.1727,1.2043,1.2104,1.2577,1.3224,1.4016,1.423,1.4147,1.3783,1.3429,1.2874,1.2105,1.1274,1.1031,1.149,1.1038,1.0827,1.0827,1.0827,0.0,0.0,0.0,0.0,0.0,0.0,1.183,1.2305,0.0,1.2518,1.2692,1.2906,1.3125,1.3333,1.3868,1.4135,1.4208,1.4208,1.4208,1.4182,1.4021,1.3681,0.0,1.3447,0.0,0.0,0.0,0.0,0.0,1.228,0.0,0.0,0.0,0.0,0.0,0.0,0.0,0.0,0.0,0.0,0.0,0.0,0.0,0.0,0.0,0.0,0.0,0.0,0.0,0.0,0.0,0.0,0.0,0.0,0.0,0.0,1.4876,1.4084,1.3433,1.3058,1.3067,1.3332,1.3864,1.3925,1.4008,1.4088,1.4088,1.4088,1.4088,1.4088,1.4088,1.4088,1.4088,1.4088,1.4088,1.4088,1.4088,1.4088,1.4088,1.4088,1.4166,1.4977,1.5621,1.6273,1.7374,1.847,1.9559,1.4012,1.3456,0.0,1.3023,1.2512,1.2327,1.2959,1.3978,1.4129,1.2543,1.3223,1.3934,1.4196,1.5078,1.6416,1.8254,1.8828,1.8562,1.7314,1.6024,1.5468,1.5811,0.0,1.2144,1.3771,1.22,1.1362,1.1362,1.1362,0.0,0.0,0.0,0.0,0.0,0.0,1.206,1.2318,1.265,1.3066,1.356,1.3573,1.3913,1.4436,0.0,1.4262,1.4502,1.4502,0.0,0.0,1.3806,1.36,0.0,0.0,0.0,0.0,0.0,0.0,0.0,0.0,0.0,0.0,1.5963,0.0,0.0,0.0,0.0,1.4793,0.0,0.0,0.0,0.0,0.0,0.0,0.0,0.0,0.0,0.0,0.0,0.0,0.0,0.0,0.0,0.0,0.0,1.466,1.3991,1.3534,1.3424,1.3673,1.3119,1.3348,1.4538,1.3971,1.3753,1.4082,1.4088,1.4088,1.4088,1.4088,1.4088,1.4088,1.4088,1.4088,1.4088,1.4088,1.4088,1.4088,1.4088,1.4088,1.4088,1.413,1.5428,1.7383,1.851,1.9638,2.0557,0.0,0.0,0.0,1.3868,1.3837,1.3858,1.3829,1.4416,1.4784,1.4484,1.4516,1.4909,1.5856,1.5799,1.6234,1.7664,1.7965,1.7876,1.745,1.6156,0.0,1.573,1.3585,1.277,0.0,1.2826,1.2064,1.1389,1.1389,0.0,0.0,0.0,0.0,0.0,0.0,1.2432,0.0,0.0,0.0,0.0,0.0,1.4342,1.4529,0.0,1.473,1.481,1.481,1.481,0.0,1.4589,1.4389,1.4166,1.4108,1.384,1.356,1.34,1.3505,0.0,0.0,0.0,1.5198,1.5068,0.0,0.0,0.0,0.0,0.0,0.0,0.0,0.0,0.0,0.0,0.0,0.0,0.0,0.0,0.0,0.0,0.0,0.0,0.0,0.0,0.0,0.0,0.0,1.4809,1.4677,1.4616,1.4692,1.467,1.4638,1.46,1.4616,1.4426,1.4082,1.4088,1.4088,1.4088,1.4088,1.4088,1.4088,1.4088,1.4088,1.4088,1.4088,1.4489,1.5095,1.4412,1.4531,1.5179,1.5179,1.6034,1.7342,1.7747,1.9036,2.0644,1.541,1.541,1.5206,1.466,1.4824,1.4974,1.4876,1.5135,1.5414,1.5683,1.5601,1.5956,1.7141,1.7035,1.7393,1.8639,1.8892,1.876,1.8217,1.727,0.0,1.6828,1.5095,1.4502,0.0,0.0,0.0,0.0,0.0,1.1871,0.0,0.0,0.0,0.0,0.0,1.2639,1.322,1.328,1.3707,0.0,0.0,1.483,0.0,0.0,1.5189,1.5022,0.0,1.5117,1.5149,1.5042,1.4836,1.4676,1.4676,1.4711,1.4762,1.4762,1.5187,1.5604,1.514,1.591,0.0,1.6096,1.6629,0.0,1.6986,0.0,0.0,0.0,0.0,0.0,0.0,0.0,0.0,0.0,0.0,0.0,0.0,1.2905,0.0,0.0,0.0,0.0,0.0,0.0,1.4693,1.5258,1.5254,1.5377,0.0,0.0,1.5364,1.5119,1.4965,1.4665,1.4124,1.4088,1.4286,1.4657,1.4657,1.4859,1.5228,1.5228,1.5228,1.5228,1.5228,1.5628,1.6232,1.5511,1.5628,1.6273,1.6273,1.6927,1.7908,1.7908,1.9127,2.0869,1.5478,1.5478,1.5478,1.5478,1.5478,1.5615,1.6065,1.6163,1.6206,1.6254,1.6578,1.7169,1.8193,1.8918,1.9872,2.111,2.165,2.1278,1.9802,1.941,0.0,0.0,1.7458,1.7178,1.8495,0.0,0.0,0.0,0.0,0.0,0.0,0.0,0.0,0.0,1.2318,0.0,1.3253,1.35,1.3973,1.4616,1.519,1.5411,1.5431,1.5718,1.5478,1.5068,1.5311,1.5418,1.5378,1.5149,1.5055,1.5048,1.5035,1.5805,1.6741,1.6726,1.8313,1.9865,1.9098,1.9704,2.0245,1.8945,0.0,0.0,0.0,0.0,1.7324,0.0,0.0,0.0,0.0,0.0,0.0,0.0,0.0,0.0,0.0,0.0,0.0,0.0,0.0,0.0,0.0,1.4124,1.4468,1.5246,1.5321,0.0,0.0,0.0,1.5468,1.5975,1.5134,1.4496,1.4159,1.4166,1.4734,1.5786,1.5786,1.6314,1.7302,1.7302,1.7302,1.7302,1.7302,1.7334,1.7374,1.7334,1.7334,1.7374,1.7374,1.8078,1.9112,1.9112,2.0017,2.1259,1.6365,1.6365,1.6365,1.6365,1.6365,1.6395,0.0,0.0,1.7745,1.8379,1.9139,1.9928,2.0833,2.1082,2.1337,2.1709,2.1816,0.0,0.0,0.0,0.0,2.1106,1.9442,1.8656,1.9,1.6966,1.5514,1.4746,0.0,0.0,1.2666,0.0,0.0,0.0,0.0,0.0,1.3507,1.3848,1.4436,1.5204,1.5571,1.5585,1.5431,0.0,1.5605,1.5324,1.5611,1.5718,1.5705,1.5631,1.5605,1.5571,1.5351,1.5506,1.5725,1.5497,1.6514,1.7632,1.7407,1.8802,2.0066,1.9114,1.9487,1.9844,0.0,0.0,0.0,0.0,0.0,0.0,0.0,0.0,0.0,0.0,0.0,0.0,0.0,0.0,0.0,1.2944,0.0,0.0,0.0,1.4346,1.5148,1.5366,1.5706,0.0,0.0,0.0,0.0,1.6005,1.5771,1.5536,1.5289,1.5296,1.5827,1.6887,1.6887,1.7009,1.7302,1.7302,1.7302,1.7302,1.7302,1.7779,1.8519,1.7666,1.7787,1.8559,1.8559,1.9427,2.0656,2.0656,2.0883,2.1298,1.6697,1.6853,1.7021,1.7021,0.0,0.0,1.7321,1.7672,0.0,1.9424,2.0184,0.0,2.1787,2.2051,2.2236,2.2412,2.2432,0.0,2.1499,0.0,0.0,2.1172,2.0646,2.0401,2.0401,1.873,0.0,1.7106,0.0,0.0,1.3829,0.0,0.0,0.0,0.0,1.3119,1.364,1.4235,1.483,1.5424,1.5712,1.5732,0.0,1.5718,1.5732,1.5605,1.5772,1.5784,1.5784,1.5784,1.5784,1.5751,1.5638,1.5951,1.638,1.6204,1.7033,1.8047,1.8417,1.9462,2.0407,2.0307,2.0732,2.0957,2.0077,1.9658,1.9375,0.0,0.0,1.8159,0.0,0.0,0.0,0.0,0.0,0.0,0.0,0.0,0.0,0.0,1.3821,0.0,0.0,0.0,1.5488,1.5684,1.5944,0.0,0.0,0.0,0.0,1.6456,1.6145,1.6116,1.6388,1.5944,1.6478,1.8029,1.8029,1.831,1.8749,1.8749,1.851,1.8069,1.855,1.8829,1.9006,1.8829,1.9116,1.9706,1.9893,2.0593,2.1543,2.1678,2.1756,2.1824,1.6941,1.7285,1.7568,0.0,0.0,0.0,0.0,1.8398,0.0,2.0019,0.0,2.1173,2.1963,2.2373,2.2744,2.3062,2.3091,2.2567,2.1259,2.2055,2.1978,2.064,2.1511,2.2021,2.1973,2.0595,1.9975,0.0,0.0,0.0,0.0,0.0,0.0,0.0,0.0,0.0,0.0,1.4676,1.519,1.5478,1.5732,1.5784,1.5784,1.5784,1.5784,1.5784,1.5784,1.5784,1.5784,1.5784,1.5784,1.5832,1.6015,1.6709,1.7505,1.7645,1.8542,1.9604,2.0175,2.0657,2.1148,2.1633,2.188,2.1758,2.0967,2.0781,2.0546,1.9707,1.9202,1.8997,0.0,0.0,0.0,0.0,0.0,0.0,0.0,0.0,0.0,0.0,0.0,0.0,0.0,0.0,0.0,0.0,0.0,0.0,0.0,0.0,0.0,1.709,1.6529,1.6591,1.7285,0.0,1.7082,1.8997,1.9155,1.9678,2.0605,2.0664,2.0165,1.9326,2.035,2.0251,1.9439,2.0369,2.0781,2.082,2.1172,2.1582,2.2012,2.2373,2.2549,2.2598,1.8198,1.8334,1.85,0.0,0.0,1.9873,2.0126,2.043,2.0839,2.1465,2.1914,2.2363,2.2818,2.2945,2.3013,2.3091,2.3091,0.0,0.0,0.0,0.0,2.2597,2.278,2.2711,2.2412,2.1006,1.9578,0.0,0.0,0.0,0.0,0.0,0.0,0.0,0.0,0.0,1.4756,1.5157,0.0,1.5711,1.5758,1.5784,1.5784,1.5784,1.5784,1.5784,1.5784,1.5784,1.5784,1.5784,1.5784,1.5967,1.7037,1.6803,1.6339,1.7412,1.8542,1.9298,1.8479,2.0399,2.2379,2.1201,2.1641,2.2275,2.1768,2.166,2.1514,2.0996,2.0791,2.044,1.9473,0.0,0.0,0.0,0.0,0.0,0.0,0.0,0.0,0.0,0.0,1.5312,0.0,0.0,0.0,0.0,0.0,0.0,0.0,0.0,0.0,0.0,1.747,0.0,0.0,0.0,1.863,1.8997,1.9883,2.0401,2.0615,2.0947,2.0993,2.0853,2.1413,2.1568,2.1404,2.1568,2.166,2.166,2.1738,2.2031,2.2412,2.248,2.2691,2.2984,1.8936,0.0,1.9111,0.0,0.0,0.0,0.0,2.2002,2.2402,2.1943,2.2246,2.2588,2.275,2.3213,2.3477,2.3477,2.3627,2.3754,2.3754,2.3594,2.3477,2.3477,2.3218,2.3003,2.2799,2.2136,2.1137,1.9784,0.0,0.0,0.0,0.0,0.0,0.0,0.0,1.4907,0.0,0.0,0.0,1.5798,1.5999,1.6146,1.6279,1.6279,1.6279,1.6279,1.6279,1.6279,1.6239,1.5932,1.5784,1.592,1.6527,1.6763,1.6897,1.7505,1.8542,1.936,1.8772,1.9906,2.1221,2.1067,2.1471,2.1953,2.2168,2.2207,2.209,2.166,2.1356,2.0791,1.9531,1.8769,0.0,0.0,0.0,0.0,0.0,0.0,0.0,0.0,0.0,0.0,0.0,0.0,0.0,0.0,0.0,0.0,0.0,0.0,0.0,0.0,0.0,0.0,0.0,0.0,0.0,1.9844,2.0555,2.0908,2.0928,2.1367,2.1226,2.0714,2.153,2.1575,2.1038,2.1658,2.2012,2.2207,2.2207,2.2471,2.2789,2.2789,2.2925,2.3091,1.9521,1.9597,0.0,0.0,2.1015,2.1717,2.21,2.3154,2.3525,2.2432,2.2656,2.292,2.292,2.3525,2.3926,2.3926,2.4228,2.4414,2.4414,2.4111,2.3926,2.3926,2.3549,2.3325,2.3237,2.3227,2.2732,0.0,0.0,0.0,0.0,0.0,0.0,0.0,0.0,0.0,0.0,0.0,1.7405,1.6873,1.7167,1.7366,1.7527,1.7236,1.7285,1.7527,1.7243,1.7143,1.7074,1.6594,1.6204,1.596,1.613,1.6897,1.7731,1.801,1.8956,1.9807,1.9588,1.9852,2.044,2.1114,2.1471,2.1859,2.249,2.2646,2.2519,2.2109,2.1602,2.0849,1.9766,1.9277,0.0,0.0,0.0,0.0,0.0,0.0,0.0,0.0,0.0,0.0,0.0,0.0,0.0,0.0,0.0,1.629,1.6677,1.6785,1.7379,0.0,0.0,1.8695,2.0101,0.0,1.9685,2.038,2.0935,2.1239,2.1346,2.1826,2.1534,2.073,2.1713,2.1658,2.0893,2.1794,2.2344,2.2646,2.2646,2.2808,2.3091,2.3091,2.3091,2.3091,0.0,0.0,0.0,0.0,0.0,2.2925,2.2974,2.3779,2.418,2.3682,2.3975,2.4238,2.4238,2.4307,2.4355,2.4355,2.4394,2.4414,2.4414,2.4385,2.4355,2.4355,2.4316,2.4121,2.374,2.373,2.284,0.0,0.0,2.0322,0.0,0.0,0.0,0.0,0.0,0.0,0.0,1.9406,1.9789,2.0327,2.036,2.0392,2.028,1.8984,1.9326,2.0232,1.8984,1.8501,1.8493,1.8434,1.7456,1.6373,1.7272,1.7598,1.7917,1.8993,2.0169,2.089,1.9807,2.1087,2.2545,2.1569,2.212,2.294,2.3042,2.3033,2.2916,2.2539,2.1765,2.1034,2.0586,2.0449,2.0155,0.0,0.0,0.0,0.0,0.0,0.0,0.0,0.0,0.0,0.0,1.6599,0.0,0.0,1.6269,1.629,1.6677,1.7109,1.7725,1.8568,0.0,1.8937,1.8531,1.9811,2.0191,1.9693,2.0709,2.1405,2.1836,2.2266,2.2409,2.2291,2.2765,2.293,2.2843,2.293,2.3003,2.3033,2.3033,2.3062,2.3091,2.3091,2.3091,2.3091,0.0,0.0,0.0,0.0,0.0,0.0,0.0,2.4424,2.4746,2.458,2.4473,2.4414,2.4414,2.4648,2.4805,2.4805,2.5049,2.5157,2.5157,2.4961,2.4805,2.4805,2.456,2.4336,2.417,2.417,2.3641,0.0,0.0,0.0,0.0,0.0,0.0,0.0,0.0,1.9904,2.0105,2.1038,2.1294,2.0989,2.0164,1.9951,1.993,1.8585,1.8884,2.0031,1.9434,1.9779,2.0492,2.0277,1.8568,1.6578,1.6808,1.7373,1.8174,1.9196,2.035,2.1203,2.0702,2.1302,2.1889,2.1436,2.1658,2.2217,2.295,2.3091,2.3052,2.2877,2.237,2.1875,2.1435,2.0957,2.0547,0.0,0.0,0.0,0.0,0.0,0.0,0.0,0.0,0.0,0.0,0.0,0.0,0.0,0.0,1.665,1.71,1.7529,1.8154,1.8994,0.0,1.9675,1.9667,2.0546,2.0846,2.0566,2.1542,2.209,2.2275,2.2695,2.2847,2.2857,2.3023,2.3091,2.3091,2.3091,2.3091,2.3091,2.3091,2.3091,2.3091,2.3091,2.3091,2.3091,2.3198,0.0,2.3467,0.0,2.4082,2.4268,2.456,2.498,2.5264,2.5264,2.5,2.4758,2.4758,2.5078,2.5264,2.5264,2.5557,2.5693,2.5693,2.5439,2.5264,2.5264,2.4971,0.0,2.4609,2.4609,2.4394,2.3975,2.3242,0.0,0.0,0.0,0.0,0.0,2.1717,2.1995,2.1734,2.2413,2.2408,2.1858,2.088,2.0631,2.0641,1.9317,1.9878,2.1304,2.0487,2.11,2.2273,2.2001,2.0255,1.8024,1.7239,1.7836,1.8947,1.9483,2.0477,2.15,2.1748,2.1845,2.1845,2.1845,2.1845,2.2031,2.2916,2.3091,2.3091,2.3091,2.276,2.2422,2.2129,2.1465,2.1016,2.1161,0.0,0.0,0.0,0.0,0.0,0.0,1.8906,1.849,1.8188,1.793,0.0,0.0,0.0,1.7568,1.7744,1.8154,1.8662,0.0,0.0,0.0,2.0595,2.1016,2.1327,2.158,2.2227,2.2578,2.2705,2.2955,2.3091,2.3091,2.3091,2.3091,2.3091,2.3091,2.3091,2.3091,2.3091,2.3091,2.3091,2.3091,2.3091,2.3091,2.3691,2.3779,2.3916,2.4336,2.4766,2.5106,2.5106,2.5439,2.5684,2.5684,2.5674,2.5674,2.5674,2.5674,2.5684,2.5684,2.5684,2.5693,2.5693,2.5684,2.5684,0.0,0.0,2.5518,2.5116,2.5106,2.4844,2.4414,0.0,0.0,2.3071,0.0,2.1898,2.368,2.2674,2.3261,2.4954,2.357,2.3264,2.3683,2.3633,2.3633,2.3484,2.2156,2.3335,2.5274,2.2617,2.2567,2.3692,2.3683,2.2759,2.1309,1.9288,1.9554,2.0495,2.003,2.0788,2.198,2.2846,2.3091,2.3091,2.3091,2.3091,2.3091,2.3091,2.3091,2.3091,2.3091,2.276,2.251,2.251,2.2158,2.1728,2.1268,0.0,0.0,0.0,0.0,0.0,1.9336,1.8906,1.8598,1.8598,1.8588,0.0,0.0,0.0,0.0,0.0,0.0,0.0,1.9287,1.9697,0.0,2.0595,2.1016,2.1619,2.249,2.251,2.2734,2.3091,2.3091,2.3091,2.3091,2.3091,2.3091,2.3091,2.3091,2.3091,2.3091,2.3091,2.3091,2.3091,2.3091,2.3091,2.3091,2.5029,2.5117,2.5156,2.5245,2.543,2.5527,2.5527,2.5596,2.5693,2.5693,2.5693,2.5693,2.5693,2.5693,2.5693,0.0,2.5693,2.5693,0.0,2.5693,2.5693,2.5693,2.5693,2.5625,2.5527,2.5527,2.5459,2.5274,0.0,0.0,0.0,2.3361,2.3772,2.4668,2.464,2.4929,2.5469,2.5024,2.4945,2.4971,2.4048,2.3692,2.3534,2.2206,2.2826,2.4196,2.3384,2.3949,2.5069,2.5069,2.4766,2.4159,2.2589,2.0999,1.9901,2.1333,2.1126,2.0948,2.3012,2.3315,2.3091,2.3091,2.3091,2.3091,2.3091,2.3091,2.3091,2.3091,2.2984,2.2896,2.2896,2.2598,2.2266,2.2129,2.158,0.0,0.0,0.0,0.0,2.0214,2.0029,1.9834,1.9541,1.9512,0.0,0.0,0.0,0.0,0.0,0.0,0.0,0.0,2.0391,0.0,2.1025,2.1748,2.2246,2.2519,2.276,2.2964,2.3091,2.3091,2.3091,2.3091,2.3091,2.3091,2.3091,2.3091,2.3091,2.3091,2.3091,2.3091,2.3091,2.3091,2.3091,2.3091,2.5635,2.5693,2.5693,2.5693,2.5693,2.5693,2.5693,2.5693,2.5693,2.5693,2.5693,2.5693,2.5693,2.5693,0.0,2.5693,2.5693,2.5693,2.5693,2.5693,2.5693,2.5693,2.5693,2.5693,2.5693,2.5693,0.0,2.5693,2.5138,2.4775,2.4531,2.4795,2.5059,2.5332,2.5567,2.5693,2.5684,2.5177,2.4971,2.4864,2.4048,2.3692,2.3583,2.2767,2.3276,2.4402,2.389,2.4559,2.5693,2.5693,2.5693,2.5538,2.4716,2.2819,2.1155,2.2403,2.1969,2.1504,2.3496,2.3711,2.3379,2.3379,2.3218,2.3091,2.3091,2.3091,2.3091,2.3091,2.3091,2.3091,2.3091,2.2877,2.2695,2.2539,2.2019,2.1619,2.1504,0.0,0.0,0.0,0.0,0.0,0.0,1.9912,1.9941,0.0,0.0,0.0,0.0,0.0,0.0,2.0362,2.1103,0.0,2.1668,2.2246,2.2598,2.2711,2.2974,2.3091,2.3091,2.3091,2.3091,2.3091,2.3091,2.3091,2.3091,2.3091,2.3091,2.3091,2.3091,2.3091,2.3091,2.3091,2.3091,2.3091,2.5693,2.5693,2.5693,0.0,2.5693,0.0,2.5693,2.5693,2.5693,2.5693,2.5693,2.5693,2.5693,2.5693,2.5693,2.5693,0.0,0.0,0.0,2.5693,2.5693,2.5693,2.5693,2.5693,2.5693,2.5693,2.5693,2.5693,2.5693,2.5693,2.5693,2.5693,2.5693,2.5693,2.5693,2.5693,2.5635,2.4353,2.384,2.384,2.384,2.384,2.384,2.384,2.4609,2.5538,2.4304,2.4658,2.5693,2.5693,2.5693,2.5693,2.5693,2.4815,2.3768,2.3298,2.3114,2.3208,2.4179,2.415,2.3838,2.3838,2.3506,2.313,2.3101,2.3091,2.3091,2.3091,2.3091,2.3091,2.3091,2.3091,2.2974,2.2617,2.2529,2.2373,2.1982,0.0,0.0,0.0,0.0,0.0,2.0049,2.0049,2.0342,0.0,0.0,0.0,0.0,0.0,2.085,2.1229,2.1699,2.2119,2.251,2.2539,2.2711,2.3091,2.3091,2.3091,2.3091,2.3091,2.3091,2.3091,2.3091,2.3091,2.3091,2.3091,2.3091,2.3091,2.3091,2.3091,2.3091,2.3091,2.3091,2.3091,0.0,0.0,2.5693,2.5693,2.5693,2.5693,2.5693,2.5693,2.5693,2.5693,2.5693,2.5693,2.5693,2.5693,2.5693,2.5693,2.5693,2.5693,2.5693,2.5693,2.5693,2.5693,2.5693,2.5693,2.5693,2.5693,2.5693,2.5693,2.5693,2.5693,2.5693,2.5693,2.5693,2.5693,2.5693,2.5693,2.5684,2.5382,2.5226,2.5226,2.5226,2.5226,2.5226,2.5226,2.543,2.5635,2.5323,2.543,2.5693,2.5693,2.5693,2.5693,2.5693,2.5479,2.5206,2.5101,2.4089,2.3272,2.4591,2.46,2.4268,2.4268,2.3955,2.3545,2.3169,2.3091,2.3091,2.3091,2.3091,2.3091,2.3091,2.3091,2.3062,2.2964,2.2682,2.248,2.2373,2.2002,0.0,0.0,2.1484,2.1426,2.1426,2.1426,2.1367,0.0,0.0,0.0,0.0,2.1504,2.1621,2.1728,2.2148,2.2412,2.251,2.2789,2.3003,2.3091,2.3091,2.3091,2.3091,2.3091,2.3091,2.3091,2.3091,2.3091,2.3091,2.3091,2.3091,2.3091,2.3091,2.3091,2.3091,2.3091,2.3091,2.3091,2.5693,2.5693,2.5693,2.5693,2.5693,2.5693,2.5693,2.5693,2.5693,2.5693,2.5693,2.5693,2.5693,2.5693,2.5693,2.5693,2.5693,2.5693,2.5693,2.5693,2.5693,2.5693,2.5693,2.5693,2.5693,2.5693,2.5693,2.5693,2.5693,2.5693,2.5693,2.5693,2.5693,2.5693,2.5693,2.5693,2.5693,2.5693,2.5693,2.5693,2.5693,2.5693,2.5693,2.5693,2.5693,2.5693,2.5693,2.5693,2.5693,2.5693,2.5693,2.5693,2.5693,2.5693,2.5693,2.5693,2.5014,2.4417,2.5179,2.5049,2.4668,2.4463,2.4102,2.373,2.3486,2.3237,2.3091,2.3091,2.3091,2.3091,2.3091,2.3091,2.3091,2.3091,2.2906,2.275,2.275,2.2441,2.2168,2.2168,2.2002,2.1885,2.1885,2.1885,2.1865,2.1785,2.1775,0.0,2.2058,2.2334,2.2373,2.2178,2.2578,2.275,2.275,2.3223,2.3437,2.3437,2.3633,2.3578,2.3437,2.3437,2.3286,2.3091,2.3091,2.3091,2.3091,2.3091,2.3091,2.3091,2.3091,2.3091,2.3091,2.3091,2.3091,2.3091,2.5693,2.5693,2.5693,2.5693,2.5693,2.5693,2.5693,2.5693,2.5693,2.5693,2.5693,2.5693,2.5693,2.5693,2.5693,2.5693,2.5693,2.5693,2.5693,2.5693,2.5693,2.5693,2.5693,2.5693,2.5693,2.5693,2.5693,2.5693,2.5693,2.5693,2.5693,2.5693,2.5693,2.5693,2.5693,2.5693,2.5693,2.5693,2.5693,2.5693,2.5693,2.5693,2.5693,2.5693,2.5693,2.5693,2.5693,2.5693,2.5693,2.5693,2.5693,2.5693,2.5693,2.5693,2.5693,2.5693,2.5693,2.5693,2.5693,2.5459,2.5059,2.4619,2.4248,2.3965,2.3896,2.3555,2.3198,2.3198,2.314,2.3091,2.3091,2.3091,2.3091,2.3091,2.3091,2.3091,2.3091,0.0,2.2607,2.2607,2.2295,2.207,2.207,2.207,2.2217,2.2578,2.2607,2.2721,2.3081,2.3159,2.3033,2.2715,2.3013,2.3218,2.3286,2.3701,2.3887,2.3887,2.4248,2.4228,2.3887,2.3887,2.3643,2.3198,2.3198,2.3159,2.3091,2.3091,2.3091,2.3091,2.3091,2.3091,2.3091,2.3091,2.3091,2.3091,2.5693,2.5693,2.5693,2.5693,2.5693,2.5693,2.5693,2.5693,2.5693,2.5693,2.5693,2.5693,2.5693,2.5693,2.5693,2.5693,2.5693,2.5693,2.5693,2.5693,2.5693,2.5693,2.5693,2.5693,2.5693,2.5693,2.5693,2.5693,2.5693,2.5693,2.5693,2.5693,2.5693,2.5693,2.5693,2.5693,2.5693,2.5693,2.5693,2.5693,2.5693,2.5693,2.5693,2.5693,2.5693,2.5693,2.5693,2.5693,2.5693,2.5693,2.5693,2.5693,2.5693,2.5693,2.5693,2.5693,2.5693,2.5693,2.5693,2.5635,2.5527,2.5078,2.4959,2.4775,2.4404,2.3994,2.3691,2.3691,2.3398,2.3091,2.3091,2.3091,2.3091,2.3091,2.3091,2.3091,2.3091,0.0,2.3003,2.3003,2.2945,2.2896,2.2896,2.2896,2.2925,2.2994,2.3003,2.3023,2.3091,2.3486,2.3662,2.3594,2.3652,2.3857,2.4209,2.4287,2.4316,2.4316,2.4385,2.4385,2.4316,2.4316,2.4092,2.3691,2.3691,2.3486,2.3091,2.3091,2.3091,2.3091,2.3091,2.3091,2.3091,2.3091,2.3091,2.3091,2.5693,2.5693,2.5693,2.5693,2.5693,2.5693,2.5693,2.5693,2.5693,2.5693,2.5693,2.5693,2.5693,2.5693,2.5693,2.5693,2.5693,2.5693,2.5693,2.5693,2.5693,2.5693,2.5693,2.5693,2.5693,2.5693,2.5693,2.5693,2.5693,2.5693,2.5693,2.5693,2.5693,2.5693,2.5693,2.5693,2.5693,2.5693,2.5693,2.5693,2.5693,2.5693,2.5693,2.5693,2.5693,2.5693,2.5693,2.5693,2.5693,2.5693,2.5693,2.5693,2.5693,2.5693,2.5693,2.5693,2.5693,2.5693,2.5693,2.5693,2.5635,2.5478,2.5244,2.5057,2.4814,2.4434,2.4062,2.3838,2.3633,2.3418,2.314,2.3091,2.3091,2.3091,2.3091,0.0,0.0,2.3091,2.3091,2.3091,2.3091,2.3188,2.3467,2.3486,2.3584,2.3764,2.3783,2.3783,2.3783,2.4023,2.4121,2.4121,2.4121,2.4219,2.4414,2.4648,2.4766,2.4775,2.501,2.5,2.4766,2.4766,2.4531,2.4111,2.3887,2.3682,2.3467,2.3188,2.3091,2.3091,2.3091,2.3091,2.3091,2.3091,2.3091,2.3091,2.5693,2.5693,2.5693,2.5693,2.5693,2.5693,2.5693,2.5693,2.5693,2.5693,2.5693,2.5693,2.5693,2.5693,2.5693,2.5693,2.5693,2.5693,2.5693,2.5693,2.5693,2.5693,2.5693,2.5693,2.5693,2.5693,2.5693,2.5693,2.5693,2.5693,2.5693,2.5693,2.5693,2.5693,2.5693,2.5693,2.5693,2.5693,2.5693,2.5693,2.5693,2.5693,2.5693,2.5693,2.5693,2.5693,2.5693,2.5693,2.5693,2.5693,2.5693,2.5693,2.5693,2.5693,2.5693,2.5693,2.5693,2.5693,2.5693,2.5693,2.5693,2.5693,2.5478,2.5225,2.5225,2.4883,2.4482,2.416,2.4014,2.3799,2.3369,2.3247,2.3218,2.311,0.0,0.0,0.0,2.3179,2.3247,2.3247,2.3335,2.352,2.3906,2.3935,2.4072,2.4394,2.4414,2.4414,2.4414,2.4512,2.4619,2.4717,2.4619,2.4619,2.4717,2.5059,2.5225,2.5225,2.5566,2.5557,2.5225,2.5225,2.498,2.4551,2.4228,2.3975,2.3769,2.3428,2.3188,2.3091,2.3091,2.3091,2.3091,2.3091,2.3091,2.3091,2.5693,2.5693,2.5693,2.5693,2.5693,2.5693,2.5693,2.5693,2.5693,2.5693,2.5693,2.5693,2.5693,2.5693,2.5693,2.5693,2.5693,2.5693,2.5693,2.5693,2.5693,2.5693,2.5693,2.5693,2.5693,2.5693,2.5693,2.5693,2.5693,2.5693,2.5693,2.5693,2.5693,2.5693,2.5693,2.5693,2.5693,2.5693,2.5693,2.5693,2.5693,2.5693,2.5693,2.5693,2.5693,2.5693,2.5693,2.5693,2.5693,2.5693,2.5693,2.5693,2.5693,2.5693,2.5693,2.5693,2.5693,2.5693,2.5693,2.5693,2.5693,2.5693,2.5664,2.5635,2.5635,2.5342,2.5057,2.5028,2.4648,2.4238,2.3818,2.374,2.3613,2.3159,0.0,0.0,2.3091,2.3486,2.374,2.374,2.4082,2.4336,2.4365,2.4375,2.4385,2.4414,2.4414,2.4414,2.4414,2.4805,2.5215,2.5577,2.5234,2.5225,2.5586,2.5625,2.5635,2.5635,2.5674,2.5674,2.5635,2.5635,2.5449,2.5067,2.5037,2.4568,2.3789,2.375,2.3506,2.3091,2.3091,2.3091,2.3091,2.3091,2.3091,2.3091,2.5693,2.5693,2.5693,2.5693,2.5693,2.5693,2.5693,2.5693,2.5693,2.5693,2.5693,2.5693,2.5693,2.5693,2.5693,2.5693,2.5693,2.5693,2.5693,2.5693,2.5693,2.5693,2.5693,2.5693,2.5693,2.5693,2.5693,2.5693,2.5693,2.5693,2.5693,2.5693,2.5693,2.5693,2.5693,2.5693,2.5693,2.5693,2.5693,2.5693,2.5693,2.5693,2.5693,2.5693,2.5693,2.5693,2.5693,2.5693,2.5693,2.5693,2.5693,2.5693,2.5693,2.5693,2.5693,2.5693,2.5693,2.5693,2.5693,2.5693,2.5693,2.5693,2.5693,2.5693,2.5693,2.5605,2.54,2.5174,2.4941,2.4687,2.4258,2.418,2.4121,2.3955,0.0,2.3926,2.3926,2.4072,2.418,2.418,2.4316,2.4521,2.4795,2.4814,2.4941,2.5167,2.5187,2.5187,2.5187,2.5391,2.5557,2.5684,2.5566,2.5566,2.5693,2.5693,2.5693,2.5693,2.5693,2.5693,2.5693,2.5693,2.5644,2.5469,2.5195,2.493,2.456,2.4287,2.4082,2.3861,2.3643,2.3545,2.3516,2.3198,2.3091,2.3091,2.5693,2.5693,2.5693,2.5693,2.5693,2.5693,2.5693,2.5693,2.5693,2.5693,2.5693,2.5693,2.5693,2.5693,2.5693,2.5693,2.5693,2.5693,2.5693,2.5693,2.5693,2.5693,2.5693,2.5693,2.5693,2.5693,2.5693,2.5693,2.5693,2.5693,2.5693,2.5693,2.5693,2.5693,2.5693,2.5693,2.5693,2.5693,2.5693,2.5693,2.5693,2.5693,2.5693,2.5693,2.5693,2.5693,2.5693,2.5693,2.5693,2.5693,2.5693,2.5693,2.5693,2.5693,2.5693,2.5693,2.5693,2.5693,2.5693,2.5693,2.5693,2.5693,2.5693,2.5693,2.5693,2.5693,2.5596,2.5342,2.5283,2.5146,2.4707,2.4619,2.458,2.4443,2.4414,2.4414,2.4414,2.4531,2.4619,2.4619,2.4746,2.4951,2.5254,2.5283,2.541,2.5664,2.5693,2.5693,2.5693,2.5693,2.5693,2.5693,2.5693,2.5693,2.5693,2.5693,2.5693,2.5693,2.5693,2.5693,2.5693,2.5693,2.5693,2.5674,2.541,2.5195,2.5096,2.4746,2.4541,2.4385,2.4102,2.3984,2.3945,2.3608,2.3413,2.3305,2.5693,2.5693,2.5693,2.5693,2.5693,2.5693,2.5693,2.5693,2.5693,2.5693,2.5693,2.5693,2.5693,2.5693,2.5693,2.5693,2.5693,2.5693,2.5693,2.5693,2.5693,2.5693,2.5693,2.5693,2.5693,2.5693,2.5693,2.5693,2.5693,2.5693,2.5693,2.5693,2.5693,2.5693,2.5693,2.5693,2.5693,2.5693,2.5693,2.5693,2.5693,2.5693,2.5693,2.5693,2.5693,2.5693,2.5693,2.5693,2.5693,2.5693,2.5693,2.5693,2.5693,2.5693,2.5693,2.5693,2.5693,2.5693,2.5693,2.5693,2.5693,2.5693,2.5693,2.5693,2.5693,2.5693,2.5693,2.5693,2.5693,2.5605,2.5156,2.5116,2.4932,2.4502,2.4424,2.4424,2.4424,2.4805,2.5116,2.5116,2.5469,2.5693,2.5693,2.5693,2.5693,2.5693,2.5693,2.5693,2.5693,2.5693,2.5693,2.5693,2.5693,2.5693,2.5693,2.5693,2.5693,2.5693,2.5693,2.5693,2.5693,2.5693,2.5693,2.5693,2.5693,2.5488,2.5116,2.5116,2.4814,2.4424,2.4424,2.4424,2.4424,2.4414,2.415,2.3789,2.5693,2.5693,2.5693,2.5693,2.5693,2.5693,2.5693,2.5693,2.5693,2.5693,2.5693,2.5693,2.5693,2.5693,2.5693,2.5693,2.5693,2.5693,2.5693,2.5693,2.5693,2.5693,2.5693,2.5693,2.5693,2.5693,2.5693,2.5693,2.5693,2.5693,2.5693,2.5693,2.5693,2.5693,2.5693,2.5693,2.5693,2.5693,2.5693,2.5693,2.5693,2.5693,2.5693,2.5693,2.5693,2.5693,2.5693,2.5693,2.5693,2.5693,2.5693,2.5693,2.5693,2.5693,2.5693,2.5693,2.5693,2.5693,2.5693,2.5693,2.5693,2.5693,2.5693,2.5693,2.5693,2.5693,2.5693,2.5693,2.5693,2.5645,2.5566,2.5537,2.5498,2.5313,2.5294,2.5294,2.5294,2.5449,2.5537,2.5537,2.5606,2.5693,2.5693,2.5693,2.5693,2.5693,2.5693,2.5693,2.5693,2.5693,2.5693,2.5693,2.5693,2.5693,2.5693,2.5693,2.5693,2.5693,2.5693,2.5693,2.5693,2.5693,2.5693,2.5693,2.5693,2.5615,2.5537,2.5537,2.5459,2.5265,2.5,2.4873,2.4834,2.4531,2.415,2.3789,2.5693,2.5693,2.5693,2.5693,2.5693,2.5693,2.5693,2.5693,2.5693,2.5693,2.5693,2.5693,2.5693,2.5693,2.5693,2.5693,2.5693,2.5693,2.5693,2.5693,2.5693,2.5693,2.5693,2.5693,2.5693,2.5693,2.5693,2.5693,2.5693,2.5693,2.5693,2.5693,2.5693,2.5693,2.5693,2.5693,2.5693,2.5693,2.5693,2.5693,2.5693,2.5693,2.5693,2.5693,2.5693,2.5693,2.5693,2.5693,2.5693,2.5693,2.5693,2.5693,2.5693,2.5693,2.5693,2.5693,2.5693,2.5693,2.5693,2.5693,2.5693,2.5693,2.5693,2.5693,2.5693,2.5693,2.5693,2.5693,2.5693,2.5693,2.5693,2.5693,2.5693,2.5693,2.5693,2.5693,2.5693,2.5693,2.5693,2.5693,2.5693,2.5693,2.5693,2.5693,2.5693,2.5693,2.5693,2.5693,2.5693,2.5693,2.5693,2.5693,2.5693,2.5693,2.5693,2.5693,2.5693,2.5693,2.5693,2.5693,2.5693,2.5693,2.5693,2.5693,2.5693,2.5693,2.5693,2.5693,2.5693,2.5664,2.5439,2.5332,2.5303,2.5039,2.4551,2.4043,2.5693,2.5693,2.5693,2.5693,2.5693,2.5693,2.5693,2.5693,2.5693,2.5693,2.5693,2.5693,2.5693,2.5693,2.5693,2.5693,2.5693,2.5693,2.5693,2.5693,2.5693,2.5693,2.5693,2.5693,2.5693,2.5693,2.5693,2.5693,2.5693,2.5693,2.5693,2.5693,2.5693,2.5693,2.5693,2.5693,2.5693,2.5693,2.5693,2.5693,2.5693,2.5693,2.5693,2.5693,2.5693,2.5693,2.5693,2.5693,2.5693,2.5693,2.5693,2.5693,2.5693,2.5693,2.5693,2.5693,2.5693,2.5693,2.5693,2.5693,2.5693,2.5693,2.5693,2.5693,2.5693,2.5693,2.5693,2.5693,2.5693,2.5693,2.5693,2.5693,2.5693,2.5693,2.5693,2.5693,2.5693,2.5693,2.5693,2.5693,2.5693,2.5693,2.5693,2.5693,2.5693,2.5693,2.5693,2.5693,2.5693,2.5693,2.5693,2.5693,2.5693,2.5693,2.5693,2.5693,2.5693,2.5693,2.5693,2.5693,2.5693,2.5693,2.5693,2.5693,2.5693,2.5693,2.5693,2.5693,2.5693,2.5693,2.5693,2.5693,2.5693,2.5693,2.5128,2.4404,2.5693,2.5693,2.5693,2.5693,2.5693,2.5693,2.5693,2.5693,2.5693,2.5693,2.5693,2.5693,2.5693,2.5693,2.5693,2.5693,2.5693,2.5693,2.5693,2.5693,2.5693,2.5693,2.5693,2.5693,2.5693,2.5693,2.5693,2.5693,2.5693,2.5693,2.5693,2.5693,2.5693,2.5693,2.5693,2.5693,2.5693,2.5693,2.5693,2.5693,2.5693,2.5693,2.5693,2.5693,2.5693,2.5693,2.5693,2.5693,2.5693,2.5693,2.5693,2.5693,2.5693,2.5693,2.5693,2.5693,2.5693,2.5693,2.5693,2.5693,2.5693,2.5693,2.5693,2.5693,2.5693,2.5693,2.5693,2.5693,2.5693,2.5693,2.5693,2.5693,2.5693,2.5693,2.5693,2.5693,2.5693,2.5693,2.5693,2.5693,2.5693,2.5693,2.5693,2.5693,2.5693,2.5693,2.5693,2.5693,2.5693,2.5693,2.5693,2.5693,2.5693,2.5693,2.5693,2.5693,2.5693,2.5693,2.5693,2.5693,2.5693,2.5693,2.5693,2.5693,2.5693,2.5693,2.5693,2.5693,2.5693,2.5693,2.5693,2.5693,2.5693,2.5693,2.5128,2.4316,2.5693,2.5693,2.5693,2.5693,2.5693,2.5693,2.5693,2.5693,2.5693,2.5693,2.5693,2.5693,2.5693,2.5693,2.5693,2.5693,2.5693,2.5693,2.5693,2.5693,2.5693,2.5693,2.5693,2.5693,2.5693,2.5693,2.5693,2.5693,2.5693,2.5693,2.5693,2.5693,2.5693,2.5693,2.5693,2.5693,2.5693,2.5693,2.5693,2.5693,2.5693,2.5693,2.5693,2.5693,2.5693,2.5693,2.5693,2.5693,2.5693,2.5693,2.5693,2.5693,2.5693,2.5693,2.5693,2.5693,2.5693,2.5693,2.5693,2.5693,2.5693,2.5693,2.5693,2.5693,2.5693,2.5693,2.5693,2.5693,2.5693,2.5693,2.5693,2.5693,2.5693,2.5693,2.5693,2.5693,2.5693,2.5693,2.5693,2.5693,2.5693,2.5693,2.5693,2.5693,2.5693,2.5693,2.5693,2.5693,2.5693,2.5693,2.5693,2.5693,2.5693,2.5693,2.5693,2.5693,2.5693,2.5693,2.5693,2.5693,2.5693,2.5693,2.5693,2.5693,2.5693,2.5693,2.5693,2.5693,2.5693,2.5693,2.5693,2.5693,2.5693,2.5693,2.5128,2.4297,2.5693,2.5693,2.5693,2.5693,2.5693,2.5693,2.5693,2.5693,2.5693,2.5693,2.5693,2.5693,2.5693,2.5693,2.5693,2.5693,2.5693,2.5693,2.5693,2.5693,2.5693,2.5693,2.5693,2.5693,2.5693,2.5693,2.5693,2.5693,2.5693,2.5693,2.5693,2.5693,2.5693,2.5693,2.5693,2.5693,2.5693,2.5693,2.5693,2.5693,2.5693,2.5693,2.5693,2.5693,2.5693,2.5693,2.5693,2.5693,2.5693,2.5693,2.5693,2.5693,2.5693,2.5693,2.5693,2.5693,2.5693,2.5693,2.5693,2.5693,2.5693,2.5693,2.5693,2.5693,2.5693,2.5693,2.5693,2.5693,2.5693,2.5693,2.5693,2.5693,2.5693,2.5693,2.5693,2.5693,2.5693,2.5693,2.5693,2.5693,2.5693,2.5693,2.5693,2.5693,2.5693,2.5693,2.5693,2.5693,2.5693,2.5693,2.5693,2.5693,2.5693,2.5693,2.5693,2.5693,2.5693,2.5693,2.5693,2.5693,2.5693,2.5693,2.5693,2.5693,2.5693,2.5693,2.5693,2.5693,2.5693,2.5693,2.5693,2.5693,2.5674,2.5518,2.5001,2.4297,2.5693,2.5693,2.5693,2.5693,2.5693,2.5693,2.5693,2.5693,2.5693,2.5693,2.5693,2.5693,2.5693,2.5693,2.5693,2.5693,2.5693,2.5693,2.5693,2.5693,2.5693,2.5693,2.5693,2.5693,2.5693,2.5693,2.5693,2.5693,2.5693,2.5693,2.5693,2.5693,2.5693,2.5693,2.5693,2.5693,2.5693,2.5693,2.5693,2.5693,2.5693,2.5693,2.5693,2.5693,2.5693,2.5693,2.5693,2.5693,2.5693,2.5693,2.5693,2.5693,2.5693,2.5693,2.5693,2.5693,2.5693,2.5693,2.5693,2.5693,2.5693,2.5693,2.5693,2.5693,2.5693,2.5693,2.5693,2.5693,2.5693,2.5693,2.5693,2.5693,2.5693,2.5693,2.5693,2.5693,2.5693,2.5693,2.5693,2.5693,2.5693,2.5693,2.5693,2.5693,2.5693,2.5693,2.5693,2.5693,2.5693,2.5693,2.5693,2.5693,2.5693,2.5693,2.5693,2.5693,2.5693,2.5693,2.5693,2.5693,2.5693,2.5693,2.5693,2.5693,2.5693,2.5693,2.5693,2.5693,2.5693,2.5693,2.5693,2.5693,2.5596,2.4826,2.4521,2.4297,2.5693,2.5693,2.5693,2.5693,2.5693,2.5693,2.5693,2.5693,2.5693,2.5693,2.5693,2.5693,2.5693,2.5693,2.5693,2.5693,2.5693,2.5693,2.5693,2.5693,2.5693,2.5693,2.5693,2.5693,2.5693,2.5693,2.5693,2.5693,2.5693,2.5693,2.5693,2.5693,2.5693,2.5693,2.5693,2.5693,2.5693,2.5693,2.5693,2.5693,2.5693,2.5693,2.5693,2.5693,2.5693,2.5693,2.5693,2.5693,2.5693,2.5693,2.5693,2.5693,2.5693,2.5693,2.5693,2.5693,2.5693,2.5693,2.5693,2.5693,2.5693,2.5693,2.5693,2.5693,2.5693,2.5693,2.5693,2.5693,2.5693,2.5693,2.5693,2.5693,2.5693,2.5693,2.5693,2.5693,2.5693,2.5693,2.5693,2.5693,2.5693,2.5693,2.5693,2.5693,2.5693,2.5693,2.5693,2.5693,2.5693,2.5693,2.5693,2.5693,2.5693,2.5693,2.5693,2.5693,2.5693,2.5693,2.5693,2.5693,2.5693,2.5693,2.5693,2.5693,2.5693,2.5693,2.5693,2.5693,2.5693,2.5693,2.5693,2.5538,2.5293,2.4648,2.4268,2.4065]}]]